<?xml version="1.0" encoding="UTF-8" standalone="no" ?>
<gpx xmlns="http://www.topografix.com/GPX/1/1" xmlns:xsi="http://www.w3.org/2001/XMLSchema-instance" xsi:schemaLocation="http://www.topografix.com/GPX/1/1 http://www.topografix.com/GPX/1/1/gpx.xsd" version="1.1" creator="VisuGPX - https://www.visugpx.com">
  <metadata>
    <name>La haute viennoise 2019</name>
    <desc><![CDATA[La limousine 2019  Épreuve 130 km La haute Viennoise]]></desc>
  </metadata>
  <trk>
    <name><![CDATA[5572640-HV_2019]]></name>
    <trkseg>
      <trkpt lat="45.83492" lon="1.26252">
        <ele>264</ele>
        <time>2018-11-04T14:42:21Z</time>
      </trkpt>
      <trkpt lat="45.83445" lon="1.26093">
        <ele>268</ele>
        <time>2018-11-04T14:43:21Z</time>
      </trkpt>
      <trkpt lat="45.83409" lon="1.26116">
        <ele>268</ele>
        <time>2018-11-04T14:44:21Z</time>
      </trkpt>
      <trkpt lat="45.83409" lon="1.26116">
        <ele>268</ele>
        <time>2018-11-04T14:45:21Z</time>
      </trkpt>
      <trkpt lat="45.83243" lon="1.26216">
        <ele>267</ele>
        <time>2018-11-04T14:46:21Z</time>
      </trkpt>
      <trkpt lat="45.83187" lon="1.26243">
        <ele>267</ele>
        <time>2018-11-04T14:47:21Z</time>
      </trkpt>
      <trkpt lat="45.83159" lon="1.2625">
        <ele>267</ele>
        <time>2018-11-04T14:48:21Z</time>
      </trkpt>
      <trkpt lat="45.83024" lon="1.26294">
        <ele>265</ele>
        <time>2018-11-04T14:49:21Z</time>
      </trkpt>
      <trkpt lat="45.83009" lon="1.26293">
        <ele>265</ele>
        <time>2018-11-04T14:50:21Z</time>
      </trkpt>
      <trkpt lat="45.83002" lon="1.2629">
        <ele>265</ele>
        <time>2018-11-04T14:51:21Z</time>
      </trkpt>
      <trkpt lat="45.82965" lon="1.26258">
        <ele>265</ele>
        <time>2018-11-04T14:52:21Z</time>
      </trkpt>
      <trkpt lat="45.82907" lon="1.26214">
        <ele>266</ele>
        <time>2018-11-04T14:53:21Z</time>
      </trkpt>
      <trkpt lat="45.82859" lon="1.26175">
        <ele>266</ele>
        <time>2018-11-04T14:54:21Z</time>
      </trkpt>
      <trkpt lat="45.82824" lon="1.26151">
        <ele>267</ele>
        <time>2018-11-04T14:55:21Z</time>
      </trkpt>
      <trkpt lat="45.82806" lon="1.26134">
        <ele>269</ele>
        <time>2018-11-04T14:56:21Z</time>
      </trkpt>
      <trkpt lat="45.8273" lon="1.26023">
        <ele>272</ele>
        <time>2018-11-04T14:57:21Z</time>
      </trkpt>
      <trkpt lat="45.82719" lon="1.26054">
        <ele>271</ele>
        <time>2018-11-04T14:58:21Z</time>
      </trkpt>
      <trkpt lat="45.82716" lon="1.26075">
        <ele>270</ele>
        <time>2018-11-04T14:59:21Z</time>
      </trkpt>
      <trkpt lat="45.82711" lon="1.26142">
        <ele>268</ele>
        <time>2018-11-04T15:00:21Z</time>
      </trkpt>
      <trkpt lat="45.82708" lon="1.26161">
        <ele>267</ele>
        <time>2018-11-04T15:01:21Z</time>
      </trkpt>
      <trkpt lat="45.82708" lon="1.26161">
        <ele>267</ele>
        <time>2018-11-04T15:02:21Z</time>
      </trkpt>
      <trkpt lat="45.82677" lon="1.26361">
        <ele>256</ele>
        <time>2018-11-04T15:03:21Z</time>
      </trkpt>
      <trkpt lat="45.82664" lon="1.26434">
        <ele>253</ele>
        <time>2018-11-04T15:04:21Z</time>
      </trkpt>
      <trkpt lat="45.82635" lon="1.26612">
        <ele>245</ele>
        <time>2018-11-04T15:05:21Z</time>
      </trkpt>
      <trkpt lat="45.82634" lon="1.26631">
        <ele>245</ele>
        <time>2018-11-04T15:06:21Z</time>
      </trkpt>
      <trkpt lat="45.82616" lon="1.26746">
        <ele>240</ele>
        <time>2018-11-04T15:07:21Z</time>
      </trkpt>
      <trkpt lat="45.82529" lon="1.27242">
        <ele>241</ele>
        <time>2018-11-04T15:08:21Z</time>
      </trkpt>
      <trkpt lat="45.82491" lon="1.27476">
        <ele>245</ele>
        <time>2018-11-04T15:09:21Z</time>
      </trkpt>
      <trkpt lat="45.8248" lon="1.27551">
        <ele>246</ele>
        <time>2018-11-04T15:10:21Z</time>
      </trkpt>
      <trkpt lat="45.8248" lon="1.27584">
        <ele>247</ele>
        <time>2018-11-04T15:11:21Z</time>
      </trkpt>
      <trkpt lat="45.82487" lon="1.2764">
        <ele>247</ele>
        <time>2018-11-04T15:12:21Z</time>
      </trkpt>
      <trkpt lat="45.82559" lon="1.27881">
        <ele>249</ele>
        <time>2018-11-04T15:13:21Z</time>
      </trkpt>
      <trkpt lat="45.82603" lon="1.28021">
        <ele>252</ele>
        <time>2018-11-04T15:14:21Z</time>
      </trkpt>
      <trkpt lat="45.8265" lon="1.28182">
        <ele>255</ele>
        <time>2018-11-04T15:15:21Z</time>
      </trkpt>
      <trkpt lat="45.82665" lon="1.28246">
        <ele>256</ele>
        <time>2018-11-04T15:16:21Z</time>
      </trkpt>
      <trkpt lat="45.82696" lon="1.28346">
        <ele>259</ele>
        <time>2018-11-04T15:17:21Z</time>
      </trkpt>
      <trkpt lat="45.82721" lon="1.28432">
        <ele>261</ele>
        <time>2018-11-04T15:18:21Z</time>
      </trkpt>
      <trkpt lat="45.82724" lon="1.2847">
        <ele>262</ele>
        <time>2018-11-04T15:19:21Z</time>
      </trkpt>
      <trkpt lat="45.82719" lon="1.28498">
        <ele>262</ele>
        <time>2018-11-04T15:20:21Z</time>
      </trkpt>
      <trkpt lat="45.82709" lon="1.28535">
        <ele>263</ele>
        <time>2018-11-04T15:21:21Z</time>
      </trkpt>
      <trkpt lat="45.82681" lon="1.28587">
        <ele>264</ele>
        <time>2018-11-04T15:22:21Z</time>
      </trkpt>
      <trkpt lat="45.82608" lon="1.28733">
        <ele>270</ele>
        <time>2018-11-04T15:23:21Z</time>
      </trkpt>
      <trkpt lat="45.82592" lon="1.2876">
        <ele>271</ele>
        <time>2018-11-04T15:24:21Z</time>
      </trkpt>
      <trkpt lat="45.82588" lon="1.28764">
        <ele>271</ele>
        <time>2018-11-04T15:25:21Z</time>
      </trkpt>
      <trkpt lat="45.8253" lon="1.28816">
        <ele>276</ele>
        <time>2018-11-04T15:26:21Z</time>
      </trkpt>
      <trkpt lat="45.82513" lon="1.28829">
        <ele>276</ele>
        <time>2018-11-04T15:27:21Z</time>
      </trkpt>
      <trkpt lat="45.82498" lon="1.28849">
        <ele>277</ele>
        <time>2018-11-04T15:28:21Z</time>
      </trkpt>
      <trkpt lat="45.82487" lon="1.28878">
        <ele>276</ele>
        <time>2018-11-04T15:29:21Z</time>
      </trkpt>
      <trkpt lat="45.82482" lon="1.28907">
        <ele>277</ele>
        <time>2018-11-04T15:30:21Z</time>
      </trkpt>
      <trkpt lat="45.82482" lon="1.28917">
        <ele>277</ele>
        <time>2018-11-04T15:31:21Z</time>
      </trkpt>
      <trkpt lat="45.82483" lon="1.28934">
        <ele>277</ele>
        <time>2018-11-04T15:32:21Z</time>
      </trkpt>
      <trkpt lat="45.82489" lon="1.28966">
        <ele>278</ele>
        <time>2018-11-04T15:33:21Z</time>
      </trkpt>
      <trkpt lat="45.82501" lon="1.28996">
        <ele>280</ele>
        <time>2018-11-04T15:34:21Z</time>
      </trkpt>
      <trkpt lat="45.82511" lon="1.29007">
        <ele>281</ele>
        <time>2018-11-04T15:35:21Z</time>
      </trkpt>
      <trkpt lat="45.82544" lon="1.29038">
        <ele>285</ele>
        <time>2018-11-04T15:36:21Z</time>
      </trkpt>
      <trkpt lat="45.82661" lon="1.29136">
        <ele>294</ele>
        <time>2018-11-04T15:37:21Z</time>
      </trkpt>
      <trkpt lat="45.82716" lon="1.2918">
        <ele>297</ele>
        <time>2018-11-04T15:38:21Z</time>
      </trkpt>
      <trkpt lat="45.82716" lon="1.2918">
        <ele>297</ele>
        <time>2018-11-04T15:39:21Z</time>
      </trkpt>
      <trkpt lat="45.82741" lon="1.292">
        <ele>298</ele>
        <time>2018-11-04T15:40:21Z</time>
      </trkpt>
      <trkpt lat="45.82753" lon="1.29224">
        <ele>299</ele>
        <time>2018-11-04T15:41:21Z</time>
      </trkpt>
      <trkpt lat="45.8285" lon="1.29462">
        <ele>297</ele>
        <time>2018-11-04T15:42:21Z</time>
      </trkpt>
      <trkpt lat="45.8288" lon="1.29527">
        <ele>297</ele>
        <time>2018-11-04T15:43:21Z</time>
      </trkpt>
      <trkpt lat="45.82915" lon="1.29616">
        <ele>298</ele>
        <time>2018-11-04T15:44:21Z</time>
      </trkpt>
      <trkpt lat="45.82998" lon="1.29814">
        <ele>297</ele>
        <time>2018-11-04T15:45:21Z</time>
      </trkpt>
      <trkpt lat="45.8302" lon="1.29875">
        <ele>297</ele>
        <time>2018-11-04T15:46:21Z</time>
      </trkpt>
      <trkpt lat="45.8303" lon="1.29889">
        <ele>296</ele>
        <time>2018-11-04T15:47:21Z</time>
      </trkpt>
      <trkpt lat="45.83024" lon="1.29902">
        <ele>296</ele>
        <time>2018-11-04T15:48:21Z</time>
      </trkpt>
      <trkpt lat="45.83022" lon="1.29913">
        <ele>296</ele>
        <time>2018-11-04T15:49:21Z</time>
      </trkpt>
      <trkpt lat="45.83024" lon="1.29926">
        <ele>297</ele>
        <time>2018-11-04T15:50:21Z</time>
      </trkpt>
      <trkpt lat="45.83029" lon="1.29937">
        <ele>297</ele>
        <time>2018-11-04T15:51:21Z</time>
      </trkpt>
      <trkpt lat="45.83039" lon="1.29945">
        <ele>297</ele>
        <time>2018-11-04T15:52:21Z</time>
      </trkpt>
      <trkpt lat="45.83045" lon="1.29945">
        <ele>297</ele>
        <time>2018-11-04T15:53:21Z</time>
      </trkpt>
      <trkpt lat="45.83055" lon="1.29943">
        <ele>296</ele>
        <time>2018-11-04T15:54:21Z</time>
      </trkpt>
      <trkpt lat="45.83057" lon="1.29953">
        <ele>297</ele>
        <time>2018-11-04T15:55:21Z</time>
      </trkpt>
      <trkpt lat="45.8317" lon="1.30216">
        <ele>295</ele>
        <time>2018-11-04T15:56:21Z</time>
      </trkpt>
      <trkpt lat="45.83188" lon="1.30267">
        <ele>294</ele>
        <time>2018-11-04T15:57:21Z</time>
      </trkpt>
      <trkpt lat="45.83214" lon="1.3033">
        <ele>294</ele>
        <time>2018-11-04T15:58:21Z</time>
      </trkpt>
      <trkpt lat="45.83265" lon="1.30449">
        <ele>293</ele>
        <time>2018-11-04T15:59:21Z</time>
      </trkpt>
      <trkpt lat="45.83288" lon="1.30498">
        <ele>293</ele>
        <time>2018-11-04T16:00:21Z</time>
      </trkpt>
      <trkpt lat="45.8331" lon="1.30543">
        <ele>293</ele>
        <time>2018-11-04T16:01:21Z</time>
      </trkpt>
      <trkpt lat="45.83389" lon="1.30724">
        <ele>299</ele>
        <time>2018-11-04T16:02:21Z</time>
      </trkpt>
      <trkpt lat="45.83412" lon="1.3079">
        <ele>301</ele>
        <time>2018-11-04T16:03:21Z</time>
      </trkpt>
      <trkpt lat="45.83439" lon="1.30937">
        <ele>305</ele>
        <time>2018-11-04T16:04:21Z</time>
      </trkpt>
      <trkpt lat="45.83473" lon="1.31146">
        <ele>311</ele>
        <time>2018-11-04T16:05:21Z</time>
      </trkpt>
      <trkpt lat="45.83491" lon="1.31236">
        <ele>313</ele>
        <time>2018-11-04T16:06:21Z</time>
      </trkpt>
      <trkpt lat="45.83597" lon="1.31832">
        <ele>314</ele>
        <time>2018-11-04T16:07:21Z</time>
      </trkpt>
      <trkpt lat="45.83611" lon="1.31901">
        <ele>313</ele>
        <time>2018-11-04T16:08:21Z</time>
      </trkpt>
      <trkpt lat="45.83618" lon="1.31922">
        <ele>313</ele>
        <time>2018-11-04T16:09:21Z</time>
      </trkpt>
      <trkpt lat="45.83652" lon="1.31993">
        <ele>312</ele>
        <time>2018-11-04T16:10:21Z</time>
      </trkpt>
      <trkpt lat="45.83691" lon="1.32066">
        <ele>313</ele>
        <time>2018-11-04T16:11:21Z</time>
      </trkpt>
      <trkpt lat="45.8406" lon="1.32699">
        <ele>313</ele>
        <time>2018-11-04T16:12:21Z</time>
      </trkpt>
      <trkpt lat="45.84167" lon="1.33069">
        <ele>318</ele>
        <time>2018-11-04T16:13:21Z</time>
      </trkpt>
      <trkpt lat="45.84315" lon="1.33592">
        <ele>335</ele>
        <time>2018-11-04T16:14:21Z</time>
      </trkpt>
      <trkpt lat="45.84341" lon="1.33662">
        <ele>335</ele>
        <time>2018-11-04T16:15:21Z</time>
      </trkpt>
      <trkpt lat="45.84523" lon="1.34052">
        <ele>331</ele>
        <time>2018-11-04T16:16:21Z</time>
      </trkpt>
      <trkpt lat="45.84789" lon="1.34609">
        <ele>332</ele>
        <time>2018-11-04T16:17:21Z</time>
      </trkpt>
      <trkpt lat="45.8481" lon="1.34663">
        <ele>334</ele>
        <time>2018-11-04T16:18:21Z</time>
      </trkpt>
      <trkpt lat="45.84828" lon="1.34718">
        <ele>334</ele>
        <time>2018-11-04T16:19:21Z</time>
      </trkpt>
      <trkpt lat="45.84834" lon="1.34762">
        <ele>333</ele>
        <time>2018-11-04T16:20:21Z</time>
      </trkpt>
      <trkpt lat="45.84835" lon="1.34839">
        <ele>331</ele>
        <time>2018-11-04T16:21:21Z</time>
      </trkpt>
      <trkpt lat="45.84767" lon="1.35358">
        <ele>332</ele>
        <time>2018-11-04T16:22:21Z</time>
      </trkpt>
      <trkpt lat="45.84765" lon="1.35422">
        <ele>330</ele>
        <time>2018-11-04T16:23:21Z</time>
      </trkpt>
      <trkpt lat="45.84804" lon="1.35685">
        <ele>337</ele>
        <time>2018-11-04T16:24:21Z</time>
      </trkpt>
      <trkpt lat="45.84811" lon="1.3575">
        <ele>336</ele>
        <time>2018-11-04T16:25:21Z</time>
      </trkpt>
      <trkpt lat="45.84812" lon="1.3581">
        <ele>339</ele>
        <time>2018-11-04T16:26:21Z</time>
      </trkpt>
      <trkpt lat="45.84715" lon="1.36542">
        <ele>348</ele>
        <time>2018-11-04T16:27:21Z</time>
      </trkpt>
      <trkpt lat="45.84715" lon="1.36542">
        <ele>348</ele>
        <time>2018-11-04T16:28:21Z</time>
      </trkpt>
      <trkpt lat="45.84659" lon="1.36969">
        <ele>350</ele>
        <time>2018-11-04T16:29:21Z</time>
      </trkpt>
      <trkpt lat="45.84653" lon="1.36963">
        <ele>350</ele>
        <time>2018-11-04T16:30:21Z</time>
      </trkpt>
      <trkpt lat="45.84645" lon="1.36972">
        <ele>350</ele>
        <time>2018-11-04T16:31:21Z</time>
      </trkpt>
      <trkpt lat="45.8457" lon="1.37093">
        <ele>350</ele>
        <time>2018-11-04T16:32:21Z</time>
      </trkpt>
      <trkpt lat="45.84467" lon="1.3725">
        <ele>350</ele>
        <time>2018-11-04T16:33:21Z</time>
      </trkpt>
      <trkpt lat="45.8433" lon="1.37527">
        <ele>358</ele>
        <time>2018-11-04T16:34:21Z</time>
      </trkpt>
      <trkpt lat="45.8433" lon="1.37527">
        <ele>358</ele>
        <time>2018-11-04T16:35:21Z</time>
      </trkpt>
      <trkpt lat="45.84273" lon="1.37644">
        <ele>365</ele>
        <time>2018-11-04T16:36:21Z</time>
      </trkpt>
      <trkpt lat="45.84191" lon="1.37837">
        <ele>369</ele>
        <time>2018-11-04T16:37:21Z</time>
      </trkpt>
      <trkpt lat="45.84182" lon="1.37878">
        <ele>371</ele>
        <time>2018-11-04T16:38:21Z</time>
      </trkpt>
      <trkpt lat="45.84175" lon="1.37936">
        <ele>374</ele>
        <time>2018-11-04T16:39:21Z</time>
      </trkpt>
      <trkpt lat="45.84143" lon="1.38256">
        <ele>373</ele>
        <time>2018-11-04T16:40:21Z</time>
      </trkpt>
      <trkpt lat="45.84144" lon="1.38261">
        <ele>373</ele>
        <time>2018-11-04T16:41:21Z</time>
      </trkpt>
      <trkpt lat="45.84147" lon="1.38261">
        <ele>373</ele>
        <time>2018-11-04T16:42:21Z</time>
      </trkpt>
      <trkpt lat="45.84058" lon="1.38356">
        <ele>372</ele>
        <time>2018-11-04T16:43:21Z</time>
      </trkpt>
      <trkpt lat="45.84058" lon="1.38356">
        <ele>372</ele>
        <time>2018-11-04T16:44:21Z</time>
      </trkpt>
      <trkpt lat="45.83823" lon="1.38603">
        <ele>372</ele>
        <time>2018-11-04T16:45:21Z</time>
      </trkpt>
      <trkpt lat="45.83787" lon="1.38637">
        <ele>371</ele>
        <time>2018-11-04T16:46:21Z</time>
      </trkpt>
      <trkpt lat="45.83611" lon="1.38776">
        <ele>373</ele>
        <time>2018-11-04T16:47:21Z</time>
      </trkpt>
      <trkpt lat="45.83599" lon="1.38796">
        <ele>375</ele>
        <time>2018-11-04T16:48:21Z</time>
      </trkpt>
      <trkpt lat="45.83576" lon="1.38853">
        <ele>380</ele>
        <time>2018-11-04T16:49:21Z</time>
      </trkpt>
      <trkpt lat="45.83564" lon="1.38871">
        <ele>381</ele>
        <time>2018-11-04T16:50:21Z</time>
      </trkpt>
      <trkpt lat="45.83552" lon="1.38883">
        <ele>383</ele>
        <time>2018-11-04T16:51:21Z</time>
      </trkpt>
      <trkpt lat="45.83523" lon="1.38901">
        <ele>386</ele>
        <time>2018-11-04T16:52:21Z</time>
      </trkpt>
      <trkpt lat="45.83491" lon="1.38902">
        <ele>388</ele>
        <time>2018-11-04T16:53:21Z</time>
      </trkpt>
      <trkpt lat="45.83248" lon="1.38877">
        <ele>391</ele>
        <time>2018-11-04T16:54:21Z</time>
      </trkpt>
      <trkpt lat="45.83082" lon="1.38944">
        <ele>385</ele>
        <time>2018-11-04T16:55:21Z</time>
      </trkpt>
      <trkpt lat="45.82986" lon="1.38986">
        <ele>382</ele>
        <time>2018-11-04T16:56:21Z</time>
      </trkpt>
      <trkpt lat="45.82966" lon="1.38991">
        <ele>382</ele>
        <time>2018-11-04T16:57:21Z</time>
      </trkpt>
      <trkpt lat="45.82855" lon="1.38986">
        <ele>378</ele>
        <time>2018-11-04T16:58:21Z</time>
      </trkpt>
      <trkpt lat="45.82687" lon="1.38984">
        <ele>373</ele>
        <time>2018-11-04T16:59:21Z</time>
      </trkpt>
      <trkpt lat="45.82597" lon="1.39052">
        <ele>373</ele>
        <time>2018-11-04T17:00:21Z</time>
      </trkpt>
      <trkpt lat="45.82574" lon="1.39077">
        <ele>374</ele>
        <time>2018-11-04T17:01:21Z</time>
      </trkpt>
      <trkpt lat="45.82527" lon="1.39142">
        <ele>375</ele>
        <time>2018-11-04T17:02:21Z</time>
      </trkpt>
      <trkpt lat="45.8251" lon="1.39162">
        <ele>376</ele>
        <time>2018-11-04T17:03:21Z</time>
      </trkpt>
      <trkpt lat="45.82486" lon="1.39175">
        <ele>377</ele>
        <time>2018-11-04T17:04:21Z</time>
      </trkpt>
      <trkpt lat="45.82334" lon="1.39207">
        <ele>379</ele>
        <time>2018-11-04T17:05:21Z</time>
      </trkpt>
      <trkpt lat="45.82306" lon="1.39209">
        <ele>380</ele>
        <time>2018-11-04T17:06:21Z</time>
      </trkpt>
      <trkpt lat="45.82165" lon="1.39193">
        <ele>383</ele>
        <time>2018-11-04T17:07:21Z</time>
      </trkpt>
      <trkpt lat="45.82122" lon="1.39179">
        <ele>383</ele>
        <time>2018-11-04T17:08:21Z</time>
      </trkpt>
      <trkpt lat="45.82061" lon="1.39117">
        <ele>380</ele>
        <time>2018-11-04T17:09:21Z</time>
      </trkpt>
      <trkpt lat="45.82004" lon="1.39071">
        <ele>380</ele>
        <time>2018-11-04T17:10:21Z</time>
      </trkpt>
      <trkpt lat="45.81928" lon="1.39022">
        <ele>379</ele>
        <time>2018-11-04T17:11:21Z</time>
      </trkpt>
      <trkpt lat="45.81876" lon="1.39005">
        <ele>377</ele>
        <time>2018-11-04T17:12:21Z</time>
      </trkpt>
      <trkpt lat="45.81826" lon="1.39004">
        <ele>375</ele>
        <time>2018-11-04T17:13:21Z</time>
      </trkpt>
      <trkpt lat="45.81771" lon="1.39013">
        <ele>372</ele>
        <time>2018-11-04T17:14:21Z</time>
      </trkpt>
      <trkpt lat="45.81747" lon="1.3902">
        <ele>371</ele>
        <time>2018-11-04T17:15:21Z</time>
      </trkpt>
      <trkpt lat="45.81609" lon="1.39053">
        <ele>366</ele>
        <time>2018-11-04T17:16:21Z</time>
      </trkpt>
      <trkpt lat="45.81517" lon="1.39054">
        <ele>362</ele>
        <time>2018-11-04T17:17:21Z</time>
      </trkpt>
      <trkpt lat="45.81407" lon="1.39064">
        <ele>357</ele>
        <time>2018-11-04T17:18:21Z</time>
      </trkpt>
      <trkpt lat="45.8138" lon="1.3905">
        <ele>356</ele>
        <time>2018-11-04T17:19:21Z</time>
      </trkpt>
      <trkpt lat="45.8137" lon="1.39037">
        <ele>356</ele>
        <time>2018-11-04T17:20:21Z</time>
      </trkpt>
      <trkpt lat="45.81347" lon="1.39014">
        <ele>356</ele>
        <time>2018-11-04T17:21:21Z</time>
      </trkpt>
      <trkpt lat="45.81335" lon="1.39007">
        <ele>355</ele>
        <time>2018-11-04T17:22:21Z</time>
      </trkpt>
      <trkpt lat="45.81316" lon="1.39006">
        <ele>354</ele>
        <time>2018-11-04T17:23:21Z</time>
      </trkpt>
      <trkpt lat="45.81296" lon="1.39012">
        <ele>353</ele>
        <time>2018-11-04T17:24:21Z</time>
      </trkpt>
      <trkpt lat="45.81274" lon="1.39027">
        <ele>353</ele>
        <time>2018-11-04T17:25:21Z</time>
      </trkpt>
      <trkpt lat="45.81213" lon="1.39082">
        <ele>355</ele>
        <time>2018-11-04T17:26:21Z</time>
      </trkpt>
      <trkpt lat="45.80982" lon="1.39361">
        <ele>372</ele>
        <time>2018-11-04T17:27:21Z</time>
      </trkpt>
      <trkpt lat="45.80966" lon="1.39386">
        <ele>372</ele>
        <time>2018-11-04T17:28:21Z</time>
      </trkpt>
      <trkpt lat="45.80943" lon="1.39475">
        <ele>371</ele>
        <time>2018-11-04T17:29:21Z</time>
      </trkpt>
      <trkpt lat="45.80928" lon="1.39508">
        <ele>371</ele>
        <time>2018-11-04T17:30:21Z</time>
      </trkpt>
      <trkpt lat="45.8092" lon="1.39497">
        <ele>370</ele>
        <time>2018-11-04T17:31:21Z</time>
      </trkpt>
      <trkpt lat="45.80911" lon="1.39492">
        <ele>370</ele>
        <time>2018-11-04T17:32:21Z</time>
      </trkpt>
      <trkpt lat="45.80895" lon="1.3949">
        <ele>370</ele>
        <time>2018-11-04T17:33:21Z</time>
      </trkpt>
      <trkpt lat="45.80881" lon="1.3948">
        <ele>370</ele>
        <time>2018-11-04T17:34:21Z</time>
      </trkpt>
      <trkpt lat="45.80865" lon="1.39456">
        <ele>370</ele>
        <time>2018-11-04T17:35:21Z</time>
      </trkpt>
      <trkpt lat="45.80775" lon="1.39255">
        <ele>374</ele>
        <time>2018-11-04T17:36:21Z</time>
      </trkpt>
      <trkpt lat="45.80748" lon="1.39235">
        <ele>375</ele>
        <time>2018-11-04T17:37:21Z</time>
      </trkpt>
      <trkpt lat="45.80725" lon="1.39223">
        <ele>377</ele>
        <time>2018-11-04T17:38:21Z</time>
      </trkpt>
      <trkpt lat="45.80682" lon="1.39206">
        <ele>381</ele>
        <time>2018-11-04T17:39:21Z</time>
      </trkpt>
      <trkpt lat="45.80662" lon="1.39195">
        <ele>382</ele>
        <time>2018-11-04T17:40:21Z</time>
      </trkpt>
      <trkpt lat="45.80651" lon="1.39187">
        <ele>383</ele>
        <time>2018-11-04T17:41:21Z</time>
      </trkpt>
      <trkpt lat="45.80641" lon="1.39173">
        <ele>383</ele>
        <time>2018-11-04T17:42:21Z</time>
      </trkpt>
      <trkpt lat="45.8064" lon="1.39154">
        <ele>383</ele>
        <time>2018-11-04T17:43:21Z</time>
      </trkpt>
      <trkpt lat="45.80643" lon="1.39112">
        <ele>384</ele>
        <time>2018-11-04T17:44:21Z</time>
      </trkpt>
      <trkpt lat="45.80642" lon="1.39089">
        <ele>384</ele>
        <time>2018-11-04T17:45:21Z</time>
      </trkpt>
      <trkpt lat="45.80637" lon="1.39067">
        <ele>385</ele>
        <time>2018-11-04T17:46:21Z</time>
      </trkpt>
      <trkpt lat="45.80618" lon="1.39013">
        <ele>388</ele>
        <time>2018-11-04T17:47:21Z</time>
      </trkpt>
      <trkpt lat="45.80597" lon="1.38965">
        <ele>389</ele>
        <time>2018-11-04T17:48:21Z</time>
      </trkpt>
      <trkpt lat="45.80583" lon="1.38946">
        <ele>388</ele>
        <time>2018-11-04T17:49:21Z</time>
      </trkpt>
      <trkpt lat="45.80565" lon="1.38928">
        <ele>388</ele>
        <time>2018-11-04T17:50:21Z</time>
      </trkpt>
      <trkpt lat="45.80489" lon="1.38888">
        <ele>392</ele>
        <time>2018-11-04T17:51:21Z</time>
      </trkpt>
      <trkpt lat="45.80404" lon="1.3884">
        <ele>395</ele>
        <time>2018-11-04T17:52:21Z</time>
      </trkpt>
      <trkpt lat="45.80404" lon="1.3884">
        <ele>395</ele>
        <time>2018-11-04T17:53:21Z</time>
      </trkpt>
      <trkpt lat="45.80297" lon="1.38779">
        <ele>395</ele>
        <time>2018-11-04T17:54:21Z</time>
      </trkpt>
      <trkpt lat="45.80212" lon="1.38713">
        <ele>392</ele>
        <time>2018-11-04T17:55:21Z</time>
      </trkpt>
      <trkpt lat="45.80196" lon="1.38695">
        <ele>392</ele>
        <time>2018-11-04T17:56:21Z</time>
      </trkpt>
      <trkpt lat="45.80189" lon="1.38676">
        <ele>390</ele>
        <time>2018-11-04T17:57:21Z</time>
      </trkpt>
      <trkpt lat="45.80187" lon="1.3866">
        <ele>390</ele>
        <time>2018-11-04T17:58:21Z</time>
      </trkpt>
      <trkpt lat="45.8019" lon="1.38608">
        <ele>392</ele>
        <time>2018-11-04T17:59:21Z</time>
      </trkpt>
      <trkpt lat="45.80188" lon="1.38592">
        <ele>392</ele>
        <time>2018-11-04T18:00:21Z</time>
      </trkpt>
      <trkpt lat="45.80174" lon="1.38548">
        <ele>393</ele>
        <time>2018-11-04T18:01:21Z</time>
      </trkpt>
      <trkpt lat="45.80155" lon="1.38513">
        <ele>396</ele>
        <time>2018-11-04T18:02:21Z</time>
      </trkpt>
      <trkpt lat="45.80133" lon="1.38476">
        <ele>398</ele>
        <time>2018-11-04T18:03:21Z</time>
      </trkpt>
      <trkpt lat="45.80111" lon="1.38449">
        <ele>399</ele>
        <time>2018-11-04T18:04:21Z</time>
      </trkpt>
      <trkpt lat="45.80067" lon="1.38412">
        <ele>399</ele>
        <time>2018-11-04T18:05:21Z</time>
      </trkpt>
      <trkpt lat="45.80054" lon="1.38404">
        <ele>399</ele>
        <time>2018-11-04T18:06:21Z</time>
      </trkpt>
      <trkpt lat="45.80033" lon="1.3848">
        <ele>402</ele>
        <time>2018-11-04T18:07:21Z</time>
      </trkpt>
      <trkpt lat="45.80017" lon="1.38532">
        <ele>405</ele>
        <time>2018-11-04T18:08:21Z</time>
      </trkpt>
      <trkpt lat="45.79965" lon="1.38639">
        <ele>407</ele>
        <time>2018-11-04T18:09:21Z</time>
      </trkpt>
      <trkpt lat="45.7994" lon="1.38632">
        <ele>406</ele>
        <time>2018-11-04T18:10:21Z</time>
      </trkpt>
      <trkpt lat="45.79916" lon="1.38619">
        <ele>405</ele>
        <time>2018-11-04T18:11:21Z</time>
      </trkpt>
      <trkpt lat="45.79438" lon="1.38468">
        <ele>401</ele>
        <time>2018-11-04T18:12:21Z</time>
      </trkpt>
      <trkpt lat="45.79393" lon="1.38469">
        <ele>403</ele>
        <time>2018-11-04T18:13:21Z</time>
      </trkpt>
      <trkpt lat="45.79338" lon="1.38489">
        <ele>402</ele>
        <time>2018-11-04T18:14:21Z</time>
      </trkpt>
      <trkpt lat="45.79319" lon="1.38493">
        <ele>403</ele>
        <time>2018-11-04T18:15:21Z</time>
      </trkpt>
      <trkpt lat="45.79292" lon="1.38491">
        <ele>405</ele>
        <time>2018-11-04T18:16:21Z</time>
      </trkpt>
      <trkpt lat="45.79223" lon="1.38453">
        <ele>410</ele>
        <time>2018-11-04T18:17:21Z</time>
      </trkpt>
      <trkpt lat="45.79208" lon="1.3845">
        <ele>411</ele>
        <time>2018-11-04T18:18:21Z</time>
      </trkpt>
      <trkpt lat="45.79192" lon="1.38453">
        <ele>411</ele>
        <time>2018-11-04T18:19:21Z</time>
      </trkpt>
      <trkpt lat="45.78531" lon="1.38785">
        <ele>397</ele>
        <time>2018-11-04T18:20:21Z</time>
      </trkpt>
      <trkpt lat="45.78512" lon="1.38806">
        <ele>396</ele>
        <time>2018-11-04T18:21:21Z</time>
      </trkpt>
      <trkpt lat="45.78499" lon="1.38835">
        <ele>395</ele>
        <time>2018-11-04T18:22:21Z</time>
      </trkpt>
      <trkpt lat="45.78493" lon="1.38862">
        <ele>394</ele>
        <time>2018-11-04T18:23:21Z</time>
      </trkpt>
      <trkpt lat="45.78494" lon="1.38898">
        <ele>392</ele>
        <time>2018-11-04T18:24:21Z</time>
      </trkpt>
      <trkpt lat="45.78526" lon="1.38999">
        <ele>392</ele>
        <time>2018-11-04T18:25:21Z</time>
      </trkpt>
      <trkpt lat="45.78529" lon="1.39035">
        <ele>391</ele>
        <time>2018-11-04T18:26:21Z</time>
      </trkpt>
      <trkpt lat="45.78521" lon="1.39065">
        <ele>390</ele>
        <time>2018-11-04T18:27:21Z</time>
      </trkpt>
      <trkpt lat="45.78502" lon="1.39096">
        <ele>389</ele>
        <time>2018-11-04T18:28:21Z</time>
      </trkpt>
      <trkpt lat="45.7836" lon="1.39289">
        <ele>379</ele>
        <time>2018-11-04T18:29:21Z</time>
      </trkpt>
      <trkpt lat="45.78342" lon="1.39324">
        <ele>377</ele>
        <time>2018-11-04T18:30:21Z</time>
      </trkpt>
      <trkpt lat="45.7833" lon="1.39356">
        <ele>376</ele>
        <time>2018-11-04T18:31:21Z</time>
      </trkpt>
      <trkpt lat="45.78318" lon="1.39471">
        <ele>370</ele>
        <time>2018-11-04T18:32:21Z</time>
      </trkpt>
      <trkpt lat="45.78299" lon="1.39518">
        <ele>368</ele>
        <time>2018-11-04T18:33:21Z</time>
      </trkpt>
      <trkpt lat="45.78274" lon="1.39554">
        <ele>366</ele>
        <time>2018-11-04T18:34:21Z</time>
      </trkpt>
      <trkpt lat="45.78245" lon="1.39569">
        <ele>364</ele>
        <time>2018-11-04T18:35:21Z</time>
      </trkpt>
      <trkpt lat="45.78201" lon="1.39574">
        <ele>362</ele>
        <time>2018-11-04T18:36:21Z</time>
      </trkpt>
      <trkpt lat="45.78145" lon="1.39568">
        <ele>360</ele>
        <time>2018-11-04T18:37:21Z</time>
      </trkpt>
      <trkpt lat="45.78056" lon="1.39518">
        <ele>358</ele>
        <time>2018-11-04T18:38:21Z</time>
      </trkpt>
      <trkpt lat="45.78026" lon="1.39503">
        <ele>357</ele>
        <time>2018-11-04T18:39:21Z</time>
      </trkpt>
      <trkpt lat="45.77954" lon="1.39507">
        <ele>358</ele>
        <time>2018-11-04T18:40:21Z</time>
      </trkpt>
      <trkpt lat="45.7786" lon="1.3947">
        <ele>355</ele>
        <time>2018-11-04T18:41:21Z</time>
      </trkpt>
      <trkpt lat="45.77849" lon="1.3947">
        <ele>354</ele>
        <time>2018-11-04T18:42:21Z</time>
      </trkpt>
      <trkpt lat="45.77629" lon="1.39556">
        <ele>346</ele>
        <time>2018-11-04T18:43:21Z</time>
      </trkpt>
      <trkpt lat="45.77596" lon="1.39595">
        <ele>348</ele>
        <time>2018-11-04T18:44:21Z</time>
      </trkpt>
      <trkpt lat="45.77584" lon="1.39617">
        <ele>349</ele>
        <time>2018-11-04T18:45:21Z</time>
      </trkpt>
      <trkpt lat="45.77568" lon="1.39669">
        <ele>354</ele>
        <time>2018-11-04T18:46:21Z</time>
      </trkpt>
      <trkpt lat="45.77557" lon="1.39686">
        <ele>355</ele>
        <time>2018-11-04T18:47:21Z</time>
      </trkpt>
      <trkpt lat="45.77541" lon="1.39704">
        <ele>356</ele>
        <time>2018-11-04T18:48:21Z</time>
      </trkpt>
      <trkpt lat="45.7752" lon="1.39714">
        <ele>355</ele>
        <time>2018-11-04T18:49:21Z</time>
      </trkpt>
      <trkpt lat="45.77491" lon="1.39718">
        <ele>352</ele>
        <time>2018-11-04T18:50:21Z</time>
      </trkpt>
      <trkpt lat="45.77464" lon="1.39725">
        <ele>351</ele>
        <time>2018-11-04T18:51:21Z</time>
      </trkpt>
      <trkpt lat="45.77437" lon="1.39741">
        <ele>351</ele>
        <time>2018-11-04T18:52:21Z</time>
      </trkpt>
      <trkpt lat="45.77388" lon="1.39784">
        <ele>351</ele>
        <time>2018-11-04T18:53:21Z</time>
      </trkpt>
      <trkpt lat="45.77347" lon="1.39824">
        <ele>350</ele>
        <time>2018-11-04T18:54:21Z</time>
      </trkpt>
      <trkpt lat="45.7719" lon="1.40021">
        <ele>356</ele>
        <time>2018-11-04T18:55:21Z</time>
      </trkpt>
      <trkpt lat="45.76838" lon="1.40415">
        <ele>334</ele>
        <time>2018-11-04T18:56:21Z</time>
      </trkpt>
      <trkpt lat="45.768" lon="1.40473">
        <ele>339</ele>
        <time>2018-11-04T18:57:21Z</time>
      </trkpt>
      <trkpt lat="45.76781" lon="1.40495">
        <ele>340</ele>
        <time>2018-11-04T18:58:21Z</time>
      </trkpt>
      <trkpt lat="45.76763" lon="1.40507">
        <ele>342</ele>
        <time>2018-11-04T18:59:21Z</time>
      </trkpt>
      <trkpt lat="45.76743" lon="1.40517">
        <ele>343</ele>
        <time>2018-11-04T19:00:21Z</time>
      </trkpt>
      <trkpt lat="45.7673" lon="1.40528">
        <ele>345</ele>
        <time>2018-11-04T19:01:21Z</time>
      </trkpt>
      <trkpt lat="45.76723" lon="1.40553">
        <ele>346</ele>
        <time>2018-11-04T19:02:21Z</time>
      </trkpt>
      <trkpt lat="45.76711" lon="1.40647">
        <ele>350</ele>
        <time>2018-11-04T19:03:21Z</time>
      </trkpt>
      <trkpt lat="45.76695" lon="1.40685">
        <ele>353</ele>
        <time>2018-11-04T19:04:21Z</time>
      </trkpt>
      <trkpt lat="45.76676" lon="1.40708">
        <ele>356</ele>
        <time>2018-11-04T19:05:21Z</time>
      </trkpt>
      <trkpt lat="45.7666" lon="1.40761">
        <ele>359</ele>
        <time>2018-11-04T19:06:21Z</time>
      </trkpt>
      <trkpt lat="45.76646" lon="1.40836">
        <ele>359</ele>
        <time>2018-11-04T19:07:21Z</time>
      </trkpt>
      <trkpt lat="45.76644" lon="1.40875">
        <ele>360</ele>
        <time>2018-11-04T19:08:21Z</time>
      </trkpt>
      <trkpt lat="45.76661" lon="1.40958">
        <ele>361</ele>
        <time>2018-11-04T19:09:21Z</time>
      </trkpt>
      <trkpt lat="45.76663" lon="1.40979">
        <ele>363</ele>
        <time>2018-11-04T19:10:21Z</time>
      </trkpt>
      <trkpt lat="45.76664" lon="1.41009">
        <ele>364</ele>
        <time>2018-11-04T19:11:21Z</time>
      </trkpt>
      <trkpt lat="45.76659" lon="1.41032">
        <ele>365</ele>
        <time>2018-11-04T19:12:21Z</time>
      </trkpt>
      <trkpt lat="45.76599" lon="1.41225">
        <ele>367</ele>
        <time>2018-11-04T19:13:21Z</time>
      </trkpt>
      <trkpt lat="45.76588" lon="1.41277">
        <ele>367</ele>
        <time>2018-11-04T19:14:21Z</time>
      </trkpt>
      <trkpt lat="45.7653" lon="1.41636">
        <ele>359</ele>
        <time>2018-11-04T19:15:21Z</time>
      </trkpt>
      <trkpt lat="45.76514" lon="1.41692">
        <ele>359</ele>
        <time>2018-11-04T19:16:21Z</time>
      </trkpt>
      <trkpt lat="45.76491" lon="1.41718">
        <ele>359</ele>
        <time>2018-11-04T19:17:21Z</time>
      </trkpt>
      <trkpt lat="45.76181" lon="1.42018">
        <ele>365</ele>
        <time>2018-11-04T19:18:21Z</time>
      </trkpt>
      <trkpt lat="45.76076" lon="1.42157">
        <ele>365</ele>
        <time>2018-11-04T19:19:21Z</time>
      </trkpt>
      <trkpt lat="45.76004" lon="1.42264">
        <ele>366</ele>
        <time>2018-11-04T19:20:21Z</time>
      </trkpt>
      <trkpt lat="45.75991" lon="1.42295">
        <ele>366</ele>
        <time>2018-11-04T19:21:21Z</time>
      </trkpt>
      <trkpt lat="45.75976" lon="1.42372">
        <ele>364</ele>
        <time>2018-11-04T19:22:21Z</time>
      </trkpt>
      <trkpt lat="45.75966" lon="1.42401">
        <ele>363</ele>
        <time>2018-11-04T19:23:21Z</time>
      </trkpt>
      <trkpt lat="45.75951" lon="1.42428">
        <ele>362</ele>
        <time>2018-11-04T19:24:21Z</time>
      </trkpt>
      <trkpt lat="45.75922" lon="1.42459">
        <ele>359</ele>
        <time>2018-11-04T19:25:21Z</time>
      </trkpt>
      <trkpt lat="45.75794" lon="1.42547">
        <ele>349</ele>
        <time>2018-11-04T19:26:21Z</time>
      </trkpt>
      <trkpt lat="45.75756" lon="1.42582">
        <ele>346</ele>
        <time>2018-11-04T19:27:21Z</time>
      </trkpt>
      <trkpt lat="45.75737" lon="1.42602">
        <ele>346</ele>
        <time>2018-11-04T19:28:21Z</time>
      </trkpt>
      <trkpt lat="45.75692" lon="1.42662">
        <ele>344</ele>
        <time>2018-11-04T19:29:21Z</time>
      </trkpt>
      <trkpt lat="45.75672" lon="1.42676">
        <ele>343</ele>
        <time>2018-11-04T19:30:21Z</time>
      </trkpt>
      <trkpt lat="45.75326" lon="1.42855">
        <ele>334</ele>
        <time>2018-11-04T19:31:21Z</time>
      </trkpt>
      <trkpt lat="45.75289" lon="1.42888">
        <ele>331</ele>
        <time>2018-11-04T19:32:21Z</time>
      </trkpt>
      <trkpt lat="45.7526" lon="1.4292">
        <ele>329</ele>
        <time>2018-11-04T19:33:21Z</time>
      </trkpt>
      <trkpt lat="45.75034" lon="1.43208">
        <ele>318</ele>
        <time>2018-11-04T19:34:21Z</time>
      </trkpt>
      <trkpt lat="45.74987" lon="1.43265">
        <ele>317</ele>
        <time>2018-11-04T19:35:21Z</time>
      </trkpt>
      <trkpt lat="45.74964" lon="1.43268">
        <ele>315</ele>
        <time>2018-11-04T19:36:21Z</time>
      </trkpt>
      <trkpt lat="45.74847" lon="1.43264">
        <ele>313</ele>
        <time>2018-11-04T19:37:21Z</time>
      </trkpt>
      <trkpt lat="45.74828" lon="1.43259">
        <ele>313</ele>
        <time>2018-11-04T19:38:21Z</time>
      </trkpt>
      <trkpt lat="45.74814" lon="1.43241">
        <ele>315</ele>
        <time>2018-11-04T19:39:21Z</time>
      </trkpt>
      <trkpt lat="45.74772" lon="1.43131">
        <ele>316</ele>
        <time>2018-11-04T19:40:21Z</time>
      </trkpt>
      <trkpt lat="45.74755" lon="1.43113">
        <ele>316</ele>
        <time>2018-11-04T19:41:21Z</time>
      </trkpt>
      <trkpt lat="45.74743" lon="1.4311">
        <ele>316</ele>
        <time>2018-11-04T19:42:21Z</time>
      </trkpt>
      <trkpt lat="45.74743" lon="1.4311">
        <ele>316</ele>
        <time>2018-11-04T19:43:21Z</time>
      </trkpt>
      <trkpt lat="45.74732" lon="1.43107">
        <ele>316</ele>
        <time>2018-11-04T19:44:21Z</time>
      </trkpt>
      <trkpt lat="45.74641" lon="1.43123">
        <ele>320</ele>
        <time>2018-11-04T19:45:21Z</time>
      </trkpt>
      <trkpt lat="45.7458" lon="1.43117">
        <ele>322</ele>
        <time>2018-11-04T19:46:21Z</time>
      </trkpt>
      <trkpt lat="45.74492" lon="1.43125">
        <ele>326</ele>
        <time>2018-11-04T19:47:21Z</time>
      </trkpt>
      <trkpt lat="45.7447" lon="1.4313">
        <ele>328</ele>
        <time>2018-11-04T19:48:21Z</time>
      </trkpt>
      <trkpt lat="45.74455" lon="1.4314">
        <ele>329</ele>
        <time>2018-11-04T19:49:21Z</time>
      </trkpt>
      <trkpt lat="45.74409" lon="1.43191">
        <ele>334</ele>
        <time>2018-11-04T19:50:21Z</time>
      </trkpt>
      <trkpt lat="45.74382" lon="1.43213">
        <ele>337</ele>
        <time>2018-11-04T19:51:21Z</time>
      </trkpt>
      <trkpt lat="45.74369" lon="1.4322">
        <ele>338</ele>
        <time>2018-11-04T19:52:21Z</time>
      </trkpt>
      <trkpt lat="45.74347" lon="1.43222">
        <ele>339</ele>
        <time>2018-11-04T19:53:21Z</time>
      </trkpt>
      <trkpt lat="45.7432" lon="1.43216">
        <ele>340</ele>
        <time>2018-11-04T19:54:21Z</time>
      </trkpt>
      <trkpt lat="45.74292" lon="1.43203">
        <ele>341</ele>
        <time>2018-11-04T19:55:21Z</time>
      </trkpt>
      <trkpt lat="45.74266" lon="1.43202">
        <ele>342</ele>
        <time>2018-11-04T19:56:21Z</time>
      </trkpt>
      <trkpt lat="45.74234" lon="1.43213">
        <ele>344</ele>
        <time>2018-11-04T19:57:21Z</time>
      </trkpt>
      <trkpt lat="45.74163" lon="1.43266">
        <ele>350</ele>
        <time>2018-11-04T19:58:21Z</time>
      </trkpt>
      <trkpt lat="45.74145" lon="1.43278">
        <ele>352</ele>
        <time>2018-11-04T19:59:21Z</time>
      </trkpt>
      <trkpt lat="45.74134" lon="1.43281">
        <ele>353</ele>
        <time>2018-11-04T20:00:21Z</time>
      </trkpt>
      <trkpt lat="45.74095" lon="1.43282">
        <ele>356</ele>
        <time>2018-11-04T20:01:21Z</time>
      </trkpt>
      <trkpt lat="45.74063" lon="1.43289">
        <ele>356</ele>
        <time>2018-11-04T20:02:21Z</time>
      </trkpt>
      <trkpt lat="45.74041" lon="1.43303">
        <ele>356</ele>
        <time>2018-11-04T20:03:21Z</time>
      </trkpt>
      <trkpt lat="45.73864" lon="1.43531">
        <ele>368</ele>
        <time>2018-11-04T20:04:21Z</time>
      </trkpt>
      <trkpt lat="45.73838" lon="1.43571">
        <ele>370</ele>
        <time>2018-11-04T20:05:21Z</time>
      </trkpt>
      <trkpt lat="45.73825" lon="1.43615">
        <ele>371</ele>
        <time>2018-11-04T20:06:21Z</time>
      </trkpt>
      <trkpt lat="45.73586" lon="1.45306">
        <ele>411</ele>
        <time>2018-11-04T20:07:21Z</time>
      </trkpt>
      <trkpt lat="45.73565" lon="1.45406">
        <ele>412</ele>
        <time>2018-11-04T20:08:21Z</time>
      </trkpt>
      <trkpt lat="45.73521" lon="1.45557">
        <ele>413</ele>
        <time>2018-11-04T20:09:21Z</time>
      </trkpt>
      <trkpt lat="45.73498" lon="1.45651">
        <ele>414</ele>
        <time>2018-11-04T20:10:21Z</time>
      </trkpt>
      <trkpt lat="45.73485" lon="1.45759">
        <ele>414</ele>
        <time>2018-11-04T20:11:21Z</time>
      </trkpt>
      <trkpt lat="45.73484" lon="1.45806">
        <ele>413</ele>
        <time>2018-11-04T20:12:21Z</time>
      </trkpt>
      <trkpt lat="45.73485" lon="1.45874">
        <ele>412</ele>
        <time>2018-11-04T20:13:21Z</time>
      </trkpt>
      <trkpt lat="45.73527" lon="1.47403">
        <ele>412</ele>
        <time>2018-11-04T20:14:21Z</time>
      </trkpt>
      <trkpt lat="45.73525" lon="1.4748">
        <ele>412</ele>
        <time>2018-11-04T20:15:21Z</time>
      </trkpt>
      <trkpt lat="45.73518" lon="1.47557">
        <ele>411</ele>
        <time>2018-11-04T20:16:21Z</time>
      </trkpt>
      <trkpt lat="45.73497" lon="1.47671">
        <ele>413</ele>
        <time>2018-11-04T20:17:21Z</time>
      </trkpt>
      <trkpt lat="45.73442" lon="1.47905">
        <ele>409</ele>
        <time>2018-11-04T20:18:21Z</time>
      </trkpt>
      <trkpt lat="45.73327" lon="1.4838">
        <ele>399</ele>
        <time>2018-11-04T20:19:21Z</time>
      </trkpt>
      <trkpt lat="45.73315" lon="1.48409">
        <ele>400</ele>
        <time>2018-11-04T20:20:21Z</time>
      </trkpt>
      <trkpt lat="45.73284" lon="1.4846">
        <ele>404</ele>
        <time>2018-11-04T20:21:21Z</time>
      </trkpt>
      <trkpt lat="45.73248" lon="1.48489">
        <ele>408</ele>
        <time>2018-11-04T20:22:21Z</time>
      </trkpt>
      <trkpt lat="45.73164" lon="1.48533">
        <ele>410</ele>
        <time>2018-11-04T20:23:21Z</time>
      </trkpt>
      <trkpt lat="45.7262" lon="1.48762">
        <ele>422</ele>
        <time>2018-11-04T20:24:21Z</time>
      </trkpt>
      <trkpt lat="45.72341" lon="1.48883">
        <ele>423</ele>
        <time>2018-11-04T20:25:21Z</time>
      </trkpt>
      <trkpt lat="45.72341" lon="1.48883">
        <ele>423</ele>
        <time>2018-11-04T20:26:21Z</time>
      </trkpt>
      <trkpt lat="45.71801" lon="1.49118">
        <ele>427</ele>
        <time>2018-11-04T20:27:21Z</time>
      </trkpt>
      <trkpt lat="45.71757" lon="1.49145">
        <ele>427</ele>
        <time>2018-11-04T20:28:21Z</time>
      </trkpt>
      <trkpt lat="45.7174" lon="1.49165">
        <ele>426</ele>
        <time>2018-11-04T20:29:21Z</time>
      </trkpt>
      <trkpt lat="45.71628" lon="1.49424">
        <ele>412</ele>
        <time>2018-11-04T20:30:21Z</time>
      </trkpt>
      <trkpt lat="45.71579" lon="1.49528">
        <ele>407</ele>
        <time>2018-11-04T20:31:21Z</time>
      </trkpt>
      <trkpt lat="45.71561" lon="1.4955">
        <ele>405</ele>
        <time>2018-11-04T20:32:21Z</time>
      </trkpt>
      <trkpt lat="45.71157" lon="1.49822">
        <ele>384</ele>
        <time>2018-11-04T20:33:21Z</time>
      </trkpt>
      <trkpt lat="45.70866" lon="1.50014">
        <ele>393</ele>
        <time>2018-11-04T20:34:21Z</time>
      </trkpt>
      <trkpt lat="45.70841" lon="1.50041">
        <ele>393</ele>
        <time>2018-11-04T20:35:21Z</time>
      </trkpt>
      <trkpt lat="45.70829" lon="1.50063">
        <ele>393</ele>
        <time>2018-11-04T20:36:21Z</time>
      </trkpt>
      <trkpt lat="45.70236" lon="1.51873">
        <ele>409</ele>
        <time>2018-11-04T20:37:21Z</time>
      </trkpt>
      <trkpt lat="45.70231" lon="1.51911">
        <ele>411</ele>
        <time>2018-11-04T20:38:21Z</time>
      </trkpt>
      <trkpt lat="45.70231" lon="1.51931">
        <ele>412</ele>
        <time>2018-11-04T20:39:21Z</time>
      </trkpt>
      <trkpt lat="45.70233" lon="1.5195">
        <ele>412</ele>
        <time>2018-11-04T20:40:21Z</time>
      </trkpt>
      <trkpt lat="45.70239" lon="1.5197">
        <ele>413</ele>
        <time>2018-11-04T20:41:21Z</time>
      </trkpt>
      <trkpt lat="45.7025" lon="1.5199">
        <ele>414</ele>
        <time>2018-11-04T20:42:21Z</time>
      </trkpt>
      <trkpt lat="45.70302" lon="1.52055">
        <ele>416</ele>
        <time>2018-11-04T20:43:21Z</time>
      </trkpt>
      <trkpt lat="45.70314" lon="1.52076">
        <ele>416</ele>
        <time>2018-11-04T20:44:21Z</time>
      </trkpt>
      <trkpt lat="45.70319" lon="1.52103">
        <ele>417</ele>
        <time>2018-11-04T20:45:21Z</time>
      </trkpt>
      <trkpt lat="45.70318" lon="1.5213">
        <ele>418</ele>
        <time>2018-11-04T20:46:21Z</time>
      </trkpt>
      <trkpt lat="45.70312" lon="1.52146">
        <ele>418</ele>
        <time>2018-11-04T20:47:21Z</time>
      </trkpt>
      <trkpt lat="45.7026" lon="1.52249">
        <ele>425</ele>
        <time>2018-11-04T20:48:21Z</time>
      </trkpt>
      <trkpt lat="45.70251" lon="1.52285">
        <ele>427</ele>
        <time>2018-11-04T20:49:21Z</time>
      </trkpt>
      <trkpt lat="45.70253" lon="1.52317">
        <ele>428</ele>
        <time>2018-11-04T20:50:21Z</time>
      </trkpt>
      <trkpt lat="45.70321" lon="1.52642">
        <ele>434</ele>
        <time>2018-11-04T20:51:21Z</time>
      </trkpt>
      <trkpt lat="45.70322" lon="1.52668">
        <ele>435</ele>
        <time>2018-11-04T20:52:21Z</time>
      </trkpt>
      <trkpt lat="45.7032" lon="1.52696">
        <ele>436</ele>
        <time>2018-11-04T20:53:21Z</time>
      </trkpt>
      <trkpt lat="45.70312" lon="1.52736">
        <ele>437</ele>
        <time>2018-11-04T20:54:21Z</time>
      </trkpt>
      <trkpt lat="45.70156" lon="1.53092">
        <ele>423</ele>
        <time>2018-11-04T20:55:21Z</time>
      </trkpt>
      <trkpt lat="45.70067" lon="1.53289">
        <ele>417</ele>
        <time>2018-11-04T20:56:21Z</time>
      </trkpt>
      <trkpt lat="45.70038" lon="1.53358">
        <ele>414</ele>
        <time>2018-11-04T20:57:21Z</time>
      </trkpt>
      <trkpt lat="45.70036" lon="1.53362">
        <ele>414</ele>
        <time>2018-11-04T20:58:21Z</time>
      </trkpt>
      <trkpt lat="45.70043" lon="1.53362">
        <ele>415</ele>
        <time>2018-11-04T20:59:21Z</time>
      </trkpt>
      <trkpt lat="45.70049" lon="1.53359">
        <ele>415</ele>
        <time>2018-11-04T21:00:21Z</time>
      </trkpt>
      <trkpt lat="45.7005" lon="1.53355">
        <ele>415</ele>
        <time>2018-11-04T21:01:21Z</time>
      </trkpt>
      <trkpt lat="45.7005" lon="1.53355">
        <ele>415</ele>
        <time>2018-11-04T21:02:21Z</time>
      </trkpt>
      <trkpt lat="45.70049" lon="1.53359">
        <ele>415</ele>
        <time>2018-11-04T21:03:21Z</time>
      </trkpt>
      <trkpt lat="45.70043" lon="1.53362">
        <ele>415</ele>
        <time>2018-11-04T21:04:21Z</time>
      </trkpt>
      <trkpt lat="45.70036" lon="1.53362">
        <ele>414</ele>
        <time>2018-11-04T21:05:21Z</time>
      </trkpt>
      <trkpt lat="45.70035" lon="1.53366">
        <ele>414</ele>
        <time>2018-11-04T21:06:21Z</time>
      </trkpt>
      <trkpt lat="45.69996" lon="1.53448">
        <ele>411</ele>
        <time>2018-11-04T21:07:21Z</time>
      </trkpt>
      <trkpt lat="45.69965" lon="1.53526">
        <ele>412</ele>
        <time>2018-11-04T21:08:21Z</time>
      </trkpt>
      <trkpt lat="45.69952" lon="1.53585">
        <ele>414</ele>
        <time>2018-11-04T21:09:21Z</time>
      </trkpt>
      <trkpt lat="45.69923" lon="1.53757">
        <ele>416</ele>
        <time>2018-11-04T21:10:21Z</time>
      </trkpt>
      <trkpt lat="45.69921" lon="1.53787">
        <ele>416</ele>
        <time>2018-11-04T21:11:21Z</time>
      </trkpt>
      <trkpt lat="45.69924" lon="1.53814">
        <ele>416</ele>
        <time>2018-11-04T21:12:21Z</time>
      </trkpt>
      <trkpt lat="45.69929" lon="1.53842">
        <ele>415</ele>
        <time>2018-11-04T21:13:21Z</time>
      </trkpt>
      <trkpt lat="45.69936" lon="1.53867">
        <ele>415</ele>
        <time>2018-11-04T21:14:21Z</time>
      </trkpt>
      <trkpt lat="45.69952" lon="1.53904">
        <ele>415</ele>
        <time>2018-11-04T21:15:21Z</time>
      </trkpt>
      <trkpt lat="45.70036" lon="1.54042">
        <ele>408</ele>
        <time>2018-11-04T21:16:21Z</time>
      </trkpt>
      <trkpt lat="45.70065" lon="1.541">
        <ele>406</ele>
        <time>2018-11-04T21:17:21Z</time>
      </trkpt>
      <trkpt lat="45.7007" lon="1.54133">
        <ele>406</ele>
        <time>2018-11-04T21:18:21Z</time>
      </trkpt>
      <trkpt lat="45.70066" lon="1.54183">
        <ele>407</ele>
        <time>2018-11-04T21:19:21Z</time>
      </trkpt>
      <trkpt lat="45.70061" lon="1.54211">
        <ele>408</ele>
        <time>2018-11-04T21:20:21Z</time>
      </trkpt>
      <trkpt lat="45.70052" lon="1.54235">
        <ele>409</ele>
        <time>2018-11-04T21:21:21Z</time>
      </trkpt>
      <trkpt lat="45.70037" lon="1.54255">
        <ele>409</ele>
        <time>2018-11-04T21:22:21Z</time>
      </trkpt>
      <trkpt lat="45.69995" lon="1.54287">
        <ele>410</ele>
        <time>2018-11-04T21:23:21Z</time>
      </trkpt>
      <trkpt lat="45.69973" lon="1.54319">
        <ele>410</ele>
        <time>2018-11-04T21:24:21Z</time>
      </trkpt>
      <trkpt lat="45.69963" lon="1.54368">
        <ele>411</ele>
        <time>2018-11-04T21:25:21Z</time>
      </trkpt>
      <trkpt lat="45.69946" lon="1.54524">
        <ele>408</ele>
        <time>2018-11-04T21:26:21Z</time>
      </trkpt>
      <trkpt lat="45.69967" lon="1.54629">
        <ele>409</ele>
        <time>2018-11-04T21:27:21Z</time>
      </trkpt>
      <trkpt lat="45.69992" lon="1.54709">
        <ele>409</ele>
        <time>2018-11-04T21:28:21Z</time>
      </trkpt>
      <trkpt lat="45.70069" lon="1.54848">
        <ele>413</ele>
        <time>2018-11-04T21:29:21Z</time>
      </trkpt>
      <trkpt lat="45.70084" lon="1.54887">
        <ele>412</ele>
        <time>2018-11-04T21:30:21Z</time>
      </trkpt>
      <trkpt lat="45.70088" lon="1.54917">
        <ele>411</ele>
        <time>2018-11-04T21:31:21Z</time>
      </trkpt>
      <trkpt lat="45.70091" lon="1.55005">
        <ele>411</ele>
        <time>2018-11-04T21:32:21Z</time>
      </trkpt>
      <trkpt lat="45.70096" lon="1.55033">
        <ele>411</ele>
        <time>2018-11-04T21:33:21Z</time>
      </trkpt>
      <trkpt lat="45.70116" lon="1.55066">
        <ele>411</ele>
        <time>2018-11-04T21:34:21Z</time>
      </trkpt>
      <trkpt lat="45.70216" lon="1.5515">
        <ele>412</ele>
        <time>2018-11-04T21:35:21Z</time>
      </trkpt>
      <trkpt lat="45.7023" lon="1.55203">
        <ele>413</ele>
        <time>2018-11-04T21:36:21Z</time>
      </trkpt>
      <trkpt lat="45.70245" lon="1.55353">
        <ele>428</ele>
        <time>2018-11-04T21:37:21Z</time>
      </trkpt>
      <trkpt lat="45.70269" lon="1.55407">
        <ele>429</ele>
        <time>2018-11-04T21:38:21Z</time>
      </trkpt>
      <trkpt lat="45.70269" lon="1.55438">
        <ele>431</ele>
        <time>2018-11-04T21:39:21Z</time>
      </trkpt>
      <trkpt lat="45.70198" lon="1.55553">
        <ele>436</ele>
        <time>2018-11-04T21:40:21Z</time>
      </trkpt>
      <trkpt lat="45.7019" lon="1.55589">
        <ele>436</ele>
        <time>2018-11-04T21:41:21Z</time>
      </trkpt>
      <trkpt lat="45.70216" lon="1.55765">
        <ele>435</ele>
        <time>2018-11-04T21:42:21Z</time>
      </trkpt>
      <trkpt lat="45.70305" lon="1.5628">
        <ele>441</ele>
        <time>2018-11-04T21:43:21Z</time>
      </trkpt>
      <trkpt lat="45.70466" lon="1.57175">
        <ele>457</ele>
        <time>2018-11-04T21:44:21Z</time>
      </trkpt>
      <trkpt lat="45.70485" lon="1.57299">
        <ele>458</ele>
        <time>2018-11-04T21:45:21Z</time>
      </trkpt>
      <trkpt lat="45.70485" lon="1.57356">
        <ele>457</ele>
        <time>2018-11-04T21:46:21Z</time>
      </trkpt>
      <trkpt lat="45.70469" lon="1.57466">
        <ele>455</ele>
        <time>2018-11-04T21:47:21Z</time>
      </trkpt>
      <trkpt lat="45.70474" lon="1.57518">
        <ele>455</ele>
        <time>2018-11-04T21:48:21Z</time>
      </trkpt>
      <trkpt lat="45.70568" lon="1.57896">
        <ele>444</ele>
        <time>2018-11-04T21:49:21Z</time>
      </trkpt>
      <trkpt lat="45.70572" lon="1.57931">
        <ele>442</ele>
        <time>2018-11-04T21:50:21Z</time>
      </trkpt>
      <trkpt lat="45.70563" lon="1.57963">
        <ele>442</ele>
        <time>2018-11-04T21:51:21Z</time>
      </trkpt>
      <trkpt lat="45.70529" lon="1.58031">
        <ele>441</ele>
        <time>2018-11-04T21:52:21Z</time>
      </trkpt>
      <trkpt lat="45.7052" lon="1.58063">
        <ele>440</ele>
        <time>2018-11-04T21:53:21Z</time>
      </trkpt>
      <trkpt lat="45.70519" lon="1.58086">
        <ele>439</ele>
        <time>2018-11-04T21:54:21Z</time>
      </trkpt>
      <trkpt lat="45.70524" lon="1.58111">
        <ele>440</ele>
        <time>2018-11-04T21:55:21Z</time>
      </trkpt>
      <trkpt lat="45.70534" lon="1.58132">
        <ele>441</ele>
        <time>2018-11-04T21:56:21Z</time>
      </trkpt>
      <trkpt lat="45.70552" lon="1.58152">
        <ele>441</ele>
        <time>2018-11-04T21:57:21Z</time>
      </trkpt>
      <trkpt lat="45.70713" lon="1.58229">
        <ele>441</ele>
        <time>2018-11-04T21:58:21Z</time>
      </trkpt>
      <trkpt lat="45.70756" lon="1.58257">
        <ele>440</ele>
        <time>2018-11-04T21:59:21Z</time>
      </trkpt>
      <trkpt lat="45.70772" lon="1.58281">
        <ele>439</ele>
        <time>2018-11-04T22:00:21Z</time>
      </trkpt>
      <trkpt lat="45.70783" lon="1.58308">
        <ele>439</ele>
        <time>2018-11-04T22:01:21Z</time>
      </trkpt>
      <trkpt lat="45.70783" lon="1.58331">
        <ele>440</ele>
        <time>2018-11-04T22:02:21Z</time>
      </trkpt>
      <trkpt lat="45.70775" lon="1.58357">
        <ele>440</ele>
        <time>2018-11-04T22:03:21Z</time>
      </trkpt>
      <trkpt lat="45.70728" lon="1.58443">
        <ele>440</ele>
        <time>2018-11-04T22:04:21Z</time>
      </trkpt>
      <trkpt lat="45.70713" lon="1.58494">
        <ele>438</ele>
        <time>2018-11-04T22:05:21Z</time>
      </trkpt>
      <trkpt lat="45.70706" lon="1.58644">
        <ele>439</ele>
        <time>2018-11-04T22:06:21Z</time>
      </trkpt>
      <trkpt lat="45.707" lon="1.58699">
        <ele>439</ele>
        <time>2018-11-04T22:07:21Z</time>
      </trkpt>
      <trkpt lat="45.70691" lon="1.58735">
        <ele>440</ele>
        <time>2018-11-04T22:08:21Z</time>
      </trkpt>
      <trkpt lat="45.70678" lon="1.58765">
        <ele>439</ele>
        <time>2018-11-04T22:09:21Z</time>
      </trkpt>
      <trkpt lat="45.70662" lon="1.5879">
        <ele>437</ele>
        <time>2018-11-04T22:10:21Z</time>
      </trkpt>
      <trkpt lat="45.70581" lon="1.58862">
        <ele>432</ele>
        <time>2018-11-04T22:11:21Z</time>
      </trkpt>
      <trkpt lat="45.70475" lon="1.58949">
        <ele>422</ele>
        <time>2018-11-04T22:12:21Z</time>
      </trkpt>
      <trkpt lat="45.70445" lon="1.58977">
        <ele>419</ele>
        <time>2018-11-04T22:13:21Z</time>
      </trkpt>
      <trkpt lat="45.70437" lon="1.59002">
        <ele>417</ele>
        <time>2018-11-04T22:14:21Z</time>
      </trkpt>
      <trkpt lat="45.70435" lon="1.59024">
        <ele>416</ele>
        <time>2018-11-04T22:15:21Z</time>
      </trkpt>
      <trkpt lat="45.70441" lon="1.59046">
        <ele>415</ele>
        <time>2018-11-04T22:16:21Z</time>
      </trkpt>
      <trkpt lat="45.70455" lon="1.59072">
        <ele>414</ele>
        <time>2018-11-04T22:17:21Z</time>
      </trkpt>
      <trkpt lat="45.7055" lon="1.59175">
        <ele>410</ele>
        <time>2018-11-04T22:18:21Z</time>
      </trkpt>
      <trkpt lat="45.70564" lon="1.59209">
        <ele>408</ele>
        <time>2018-11-04T22:19:21Z</time>
      </trkpt>
      <trkpt lat="45.70565" lon="1.5924">
        <ele>407</ele>
        <time>2018-11-04T22:20:21Z</time>
      </trkpt>
      <trkpt lat="45.70553" lon="1.59293">
        <ele>404</ele>
        <time>2018-11-04T22:21:21Z</time>
      </trkpt>
      <trkpt lat="45.70549" lon="1.5932">
        <ele>403</ele>
        <time>2018-11-04T22:22:21Z</time>
      </trkpt>
      <trkpt lat="45.7055" lon="1.59348">
        <ele>401</ele>
        <time>2018-11-04T22:23:21Z</time>
      </trkpt>
      <trkpt lat="45.70557" lon="1.59415">
        <ele>397</ele>
        <time>2018-11-04T22:24:21Z</time>
      </trkpt>
      <trkpt lat="45.70563" lon="1.59444">
        <ele>394</ele>
        <time>2018-11-04T22:25:21Z</time>
      </trkpt>
      <trkpt lat="45.70577" lon="1.59482">
        <ele>391</ele>
        <time>2018-11-04T22:26:21Z</time>
      </trkpt>
      <trkpt lat="45.70593" lon="1.59497">
        <ele>390</ele>
        <time>2018-11-04T22:27:21Z</time>
      </trkpt>
      <trkpt lat="45.7063" lon="1.5952">
        <ele>391</ele>
        <time>2018-11-04T22:28:21Z</time>
      </trkpt>
      <trkpt lat="45.7086" lon="1.59635">
        <ele>377</ele>
        <time>2018-11-04T22:29:21Z</time>
      </trkpt>
      <trkpt lat="45.70878" lon="1.59648">
        <ele>375</ele>
        <time>2018-11-04T22:30:21Z</time>
      </trkpt>
      <trkpt lat="45.70896" lon="1.59667">
        <ele>374</ele>
        <time>2018-11-04T22:31:21Z</time>
      </trkpt>
      <trkpt lat="45.70901" lon="1.59678">
        <ele>373</ele>
        <time>2018-11-04T22:32:21Z</time>
      </trkpt>
      <trkpt lat="45.70906" lon="1.59695">
        <ele>373</ele>
        <time>2018-11-04T22:33:21Z</time>
      </trkpt>
      <trkpt lat="45.70941" lon="1.59817">
        <ele>367</ele>
        <time>2018-11-04T22:34:21Z</time>
      </trkpt>
      <trkpt lat="45.70951" lon="1.59844">
        <ele>367</ele>
        <time>2018-11-04T22:35:21Z</time>
      </trkpt>
      <trkpt lat="45.70962" lon="1.59864">
        <ele>368</ele>
        <time>2018-11-04T22:36:21Z</time>
      </trkpt>
      <trkpt lat="45.70975" lon="1.59883">
        <ele>369</ele>
        <time>2018-11-04T22:37:21Z</time>
      </trkpt>
      <trkpt lat="45.71052" lon="1.59905">
        <ele>371</ele>
        <time>2018-11-04T22:38:21Z</time>
      </trkpt>
      <trkpt lat="45.71067" lon="1.59917">
        <ele>372</ele>
        <time>2018-11-04T22:39:21Z</time>
      </trkpt>
      <trkpt lat="45.71083" lon="1.59942">
        <ele>374</ele>
        <time>2018-11-04T22:40:21Z</time>
      </trkpt>
      <trkpt lat="45.71231" lon="1.60289">
        <ele>388</ele>
        <time>2018-11-04T22:41:21Z</time>
      </trkpt>
      <trkpt lat="45.71254" lon="1.60347">
        <ele>388</ele>
        <time>2018-11-04T22:42:21Z</time>
      </trkpt>
      <trkpt lat="45.71263" lon="1.60382">
        <ele>388</ele>
        <time>2018-11-04T22:43:21Z</time>
      </trkpt>
      <trkpt lat="45.71274" lon="1.604">
        <ele>387</ele>
        <time>2018-11-04T22:44:21Z</time>
      </trkpt>
      <trkpt lat="45.714" lon="1.60512">
        <ele>374</ele>
        <time>2018-11-04T22:45:21Z</time>
      </trkpt>
      <trkpt lat="45.71526" lon="1.60585">
        <ele>367</ele>
        <time>2018-11-04T22:46:21Z</time>
      </trkpt>
      <trkpt lat="45.71558" lon="1.60613">
        <ele>364</ele>
        <time>2018-11-04T22:47:21Z</time>
      </trkpt>
      <trkpt lat="45.71578" lon="1.60641">
        <ele>362</ele>
        <time>2018-11-04T22:48:21Z</time>
      </trkpt>
      <trkpt lat="45.71608" lon="1.60699">
        <ele>360</ele>
        <time>2018-11-04T22:49:21Z</time>
      </trkpt>
      <trkpt lat="45.71612" lon="1.60712">
        <ele>360</ele>
        <time>2018-11-04T22:50:21Z</time>
      </trkpt>
      <trkpt lat="45.71606" lon="1.60719">
        <ele>361</ele>
        <time>2018-11-04T22:51:21Z</time>
      </trkpt>
      <trkpt lat="45.71605" lon="1.60726">
        <ele>361</ele>
        <time>2018-11-04T22:52:21Z</time>
      </trkpt>
      <trkpt lat="45.71608" lon="1.60733">
        <ele>361</ele>
        <time>2018-11-04T22:53:21Z</time>
      </trkpt>
      <trkpt lat="45.71615" lon="1.60735">
        <ele>360</ele>
        <time>2018-11-04T22:54:21Z</time>
      </trkpt>
      <trkpt lat="45.71618" lon="1.60734">
        <ele>360</ele>
        <time>2018-11-04T22:55:21Z</time>
      </trkpt>
      <trkpt lat="45.71622" lon="1.60761">
        <ele>359</ele>
        <time>2018-11-04T22:56:21Z</time>
      </trkpt>
      <trkpt lat="45.71622" lon="1.60812">
        <ele>359</ele>
        <time>2018-11-04T22:57:21Z</time>
      </trkpt>
      <trkpt lat="45.71616" lon="1.60874">
        <ele>358</ele>
        <time>2018-11-04T22:58:21Z</time>
      </trkpt>
      <trkpt lat="45.71626" lon="1.60964">
        <ele>355</ele>
        <time>2018-11-04T22:59:21Z</time>
      </trkpt>
      <trkpt lat="45.71616" lon="1.6105">
        <ele>355</ele>
        <time>2018-11-04T23:00:21Z</time>
      </trkpt>
      <trkpt lat="45.71616" lon="1.61091">
        <ele>354</ele>
        <time>2018-11-04T23:01:21Z</time>
      </trkpt>
      <trkpt lat="45.71628" lon="1.61122">
        <ele>352</ele>
        <time>2018-11-04T23:02:21Z</time>
      </trkpt>
      <trkpt lat="45.71677" lon="1.61173">
        <ele>348</ele>
        <time>2018-11-04T23:03:21Z</time>
      </trkpt>
      <trkpt lat="45.7169" lon="1.61184">
        <ele>349</ele>
        <time>2018-11-04T23:04:21Z</time>
      </trkpt>
      <trkpt lat="45.71698" lon="1.61188">
        <ele>349</ele>
        <time>2018-11-04T23:05:21Z</time>
      </trkpt>
      <trkpt lat="45.71708" lon="1.61186">
        <ele>350</ele>
        <time>2018-11-04T23:06:21Z</time>
      </trkpt>
      <trkpt lat="45.71719" lon="1.61176">
        <ele>350</ele>
        <time>2018-11-04T23:07:21Z</time>
      </trkpt>
      <trkpt lat="45.71738" lon="1.61149">
        <ele>350</ele>
        <time>2018-11-04T23:08:21Z</time>
      </trkpt>
      <trkpt lat="45.71798" lon="1.61028">
        <ele>361</ele>
        <time>2018-11-04T23:09:21Z</time>
      </trkpt>
      <trkpt lat="45.71866" lon="1.60732">
        <ele>361</ele>
        <time>2018-11-04T23:10:21Z</time>
      </trkpt>
      <trkpt lat="45.71877" lon="1.60704">
        <ele>360</ele>
        <time>2018-11-04T23:11:21Z</time>
      </trkpt>
      <trkpt lat="45.71889" lon="1.60692">
        <ele>361</ele>
        <time>2018-11-04T23:12:21Z</time>
      </trkpt>
      <trkpt lat="45.71905" lon="1.60682">
        <ele>362</ele>
        <time>2018-11-04T23:13:21Z</time>
      </trkpt>
      <trkpt lat="45.71931" lon="1.60678">
        <ele>364</ele>
        <time>2018-11-04T23:14:21Z</time>
      </trkpt>
      <trkpt lat="45.71963" lon="1.60686">
        <ele>367</ele>
        <time>2018-11-04T23:15:21Z</time>
      </trkpt>
      <trkpt lat="45.7198" lon="1.60696">
        <ele>370</ele>
        <time>2018-11-04T23:16:21Z</time>
      </trkpt>
      <trkpt lat="45.72022" lon="1.60731">
        <ele>378</ele>
        <time>2018-11-04T23:17:21Z</time>
      </trkpt>
      <trkpt lat="45.72037" lon="1.60741">
        <ele>379</ele>
        <time>2018-11-04T23:18:21Z</time>
      </trkpt>
      <trkpt lat="45.72061" lon="1.60745">
        <ele>380</ele>
        <time>2018-11-04T23:19:21Z</time>
      </trkpt>
      <trkpt lat="45.721" lon="1.60744">
        <ele>380</ele>
        <time>2018-11-04T23:20:21Z</time>
      </trkpt>
      <trkpt lat="45.72154" lon="1.6075">
        <ele>382</ele>
        <time>2018-11-04T23:21:21Z</time>
      </trkpt>
      <trkpt lat="45.72202" lon="1.60762">
        <ele>385</ele>
        <time>2018-11-04T23:22:21Z</time>
      </trkpt>
      <trkpt lat="45.72202" lon="1.60762">
        <ele>385</ele>
        <time>2018-11-04T23:23:21Z</time>
      </trkpt>
      <trkpt lat="45.72312" lon="1.6079">
        <ele>389</ele>
        <time>2018-11-04T23:24:21Z</time>
      </trkpt>
      <trkpt lat="45.72369" lon="1.60847">
        <ele>394</ele>
        <time>2018-11-04T23:25:21Z</time>
      </trkpt>
      <trkpt lat="45.7239" lon="1.60878">
        <ele>395</ele>
        <time>2018-11-04T23:26:21Z</time>
      </trkpt>
      <trkpt lat="45.72398" lon="1.60902">
        <ele>398</ele>
        <time>2018-11-04T23:27:21Z</time>
      </trkpt>
      <trkpt lat="45.72404" lon="1.60926">
        <ele>400</ele>
        <time>2018-11-04T23:28:21Z</time>
      </trkpt>
      <trkpt lat="45.72405" lon="1.60948">
        <ele>400</ele>
        <time>2018-11-04T23:29:21Z</time>
      </trkpt>
      <trkpt lat="45.72402" lon="1.60972">
        <ele>400</ele>
        <time>2018-11-04T23:30:21Z</time>
      </trkpt>
      <trkpt lat="45.72377" lon="1.6106">
        <ele>403</ele>
        <time>2018-11-04T23:31:21Z</time>
      </trkpt>
      <trkpt lat="45.72376" lon="1.61116">
        <ele>405</ele>
        <time>2018-11-04T23:32:21Z</time>
      </trkpt>
      <trkpt lat="45.72387" lon="1.61192">
        <ele>408</ele>
        <time>2018-11-04T23:33:21Z</time>
      </trkpt>
      <trkpt lat="45.72458" lon="1.61581">
        <ele>420</ele>
        <time>2018-11-04T23:34:21Z</time>
      </trkpt>
      <trkpt lat="45.72468" lon="1.61622">
        <ele>418</ele>
        <time>2018-11-04T23:35:21Z</time>
      </trkpt>
      <trkpt lat="45.725" lon="1.61646">
        <ele>418</ele>
        <time>2018-11-04T23:36:21Z</time>
      </trkpt>
      <trkpt lat="45.73078" lon="1.6213">
        <ele>438</ele>
        <time>2018-11-04T23:37:21Z</time>
      </trkpt>
      <trkpt lat="45.73076" lon="1.62154">
        <ele>439</ele>
        <time>2018-11-04T23:38:21Z</time>
      </trkpt>
      <trkpt lat="45.73091" lon="1.62172">
        <ele>439</ele>
        <time>2018-11-04T23:39:21Z</time>
      </trkpt>
      <trkpt lat="45.73337" lon="1.62667">
        <ele>436</ele>
        <time>2018-11-04T23:40:21Z</time>
      </trkpt>
      <trkpt lat="45.73337" lon="1.62667">
        <ele>436</ele>
        <time>2018-11-04T23:41:21Z</time>
      </trkpt>
      <trkpt lat="45.7337" lon="1.62735">
        <ele>437</ele>
        <time>2018-11-04T23:42:21Z</time>
      </trkpt>
      <trkpt lat="45.73398" lon="1.62781">
        <ele>438</ele>
        <time>2018-11-04T23:43:21Z</time>
      </trkpt>
      <trkpt lat="45.73428" lon="1.62809">
        <ele>437</ele>
        <time>2018-11-04T23:44:21Z</time>
      </trkpt>
      <trkpt lat="45.73619" lon="1.62938">
        <ele>427</ele>
        <time>2018-11-04T23:45:21Z</time>
      </trkpt>
      <trkpt lat="45.73635" lon="1.62951">
        <ele>427</ele>
        <time>2018-11-04T23:46:21Z</time>
      </trkpt>
      <trkpt lat="45.73677" lon="1.62977">
        <ele>428</ele>
        <time>2018-11-04T23:47:21Z</time>
      </trkpt>
      <trkpt lat="45.73707" lon="1.62984">
        <ele>427</ele>
        <time>2018-11-04T23:48:21Z</time>
      </trkpt>
      <trkpt lat="45.73745" lon="1.62981">
        <ele>426</ele>
        <time>2018-11-04T23:49:21Z</time>
      </trkpt>
      <trkpt lat="45.73891" lon="1.62952">
        <ele>423</ele>
        <time>2018-11-04T23:50:21Z</time>
      </trkpt>
      <trkpt lat="45.73924" lon="1.6296">
        <ele>421</ele>
        <time>2018-11-04T23:51:21Z</time>
      </trkpt>
      <trkpt lat="45.73954" lon="1.6298">
        <ele>418</ele>
        <time>2018-11-04T23:52:21Z</time>
      </trkpt>
      <trkpt lat="45.73979" lon="1.63005">
        <ele>416</ele>
        <time>2018-11-04T23:53:21Z</time>
      </trkpt>
      <trkpt lat="45.73993" lon="1.63024">
        <ele>416</ele>
        <time>2018-11-04T23:54:21Z</time>
      </trkpt>
      <trkpt lat="45.74011" lon="1.6306">
        <ele>414</ele>
        <time>2018-11-04T23:55:21Z</time>
      </trkpt>
      <trkpt lat="45.74044" lon="1.63148">
        <ele>410</ele>
        <time>2018-11-04T23:56:21Z</time>
      </trkpt>
      <trkpt lat="45.74049" lon="1.63166">
        <ele>410</ele>
        <time>2018-11-04T23:57:21Z</time>
      </trkpt>
      <trkpt lat="45.74052" lon="1.6319">
        <ele>409</ele>
        <time>2018-11-04T23:58:21Z</time>
      </trkpt>
      <trkpt lat="45.7405" lon="1.63231">
        <ele>410</ele>
        <time>2018-11-04T23:59:21Z</time>
      </trkpt>
      <trkpt lat="45.74044" lon="1.63307">
        <ele>408</ele>
        <time>2018-11-05T00:00:21Z</time>
      </trkpt>
      <trkpt lat="45.74047" lon="1.63327">
        <ele>407</ele>
        <time>2018-11-05T00:01:21Z</time>
      </trkpt>
      <trkpt lat="45.74055" lon="1.63341">
        <ele>406</ele>
        <time>2018-11-05T00:02:21Z</time>
      </trkpt>
      <trkpt lat="45.74069" lon="1.63353">
        <ele>404</ele>
        <time>2018-11-05T00:03:21Z</time>
      </trkpt>
      <trkpt lat="45.74114" lon="1.63365">
        <ele>399</ele>
        <time>2018-11-05T00:04:21Z</time>
      </trkpt>
      <trkpt lat="45.74129" lon="1.63374">
        <ele>397</ele>
        <time>2018-11-05T00:05:21Z</time>
      </trkpt>
      <trkpt lat="45.74135" lon="1.63386">
        <ele>397</ele>
        <time>2018-11-05T00:06:21Z</time>
      </trkpt>
      <trkpt lat="45.74145" lon="1.63415">
        <ele>396</ele>
        <time>2018-11-05T00:07:21Z</time>
      </trkpt>
      <trkpt lat="45.74149" lon="1.6345">
        <ele>394</ele>
        <time>2018-11-05T00:08:21Z</time>
      </trkpt>
      <trkpt lat="45.74141" lon="1.63564">
        <ele>391</ele>
        <time>2018-11-05T00:09:21Z</time>
      </trkpt>
      <trkpt lat="45.74145" lon="1.63596">
        <ele>389</ele>
        <time>2018-11-05T00:10:21Z</time>
      </trkpt>
      <trkpt lat="45.74158" lon="1.63632">
        <ele>385</ele>
        <time>2018-11-05T00:11:21Z</time>
      </trkpt>
      <trkpt lat="45.74176" lon="1.6367">
        <ele>383</ele>
        <time>2018-11-05T00:12:21Z</time>
      </trkpt>
      <trkpt lat="45.74192" lon="1.63706">
        <ele>383</ele>
        <time>2018-11-05T00:13:21Z</time>
      </trkpt>
      <trkpt lat="45.74199" lon="1.63736">
        <ele>383</ele>
        <time>2018-11-05T00:14:21Z</time>
      </trkpt>
      <trkpt lat="45.74203" lon="1.63834">
        <ele>385</ele>
        <time>2018-11-05T00:15:21Z</time>
      </trkpt>
      <trkpt lat="45.74258" lon="1.63891">
        <ele>387</ele>
        <time>2018-11-05T00:16:21Z</time>
      </trkpt>
      <trkpt lat="45.74276" lon="1.639">
        <ele>389</ele>
        <time>2018-11-05T00:17:21Z</time>
      </trkpt>
      <trkpt lat="45.74293" lon="1.639">
        <ele>390</ele>
        <time>2018-11-05T00:18:21Z</time>
      </trkpt>
      <trkpt lat="45.74342" lon="1.63881">
        <ele>392</ele>
        <time>2018-11-05T00:19:21Z</time>
      </trkpt>
      <trkpt lat="45.74863" lon="1.63652">
        <ele>407</ele>
        <time>2018-11-05T00:20:21Z</time>
      </trkpt>
      <trkpt lat="45.75122" lon="1.6352">
        <ele>406</ele>
        <time>2018-11-05T00:21:21Z</time>
      </trkpt>
      <trkpt lat="45.75137" lon="1.63516">
        <ele>405</ele>
        <time>2018-11-05T00:22:21Z</time>
      </trkpt>
      <trkpt lat="45.75151" lon="1.63516">
        <ele>405</ele>
        <time>2018-11-05T00:23:21Z</time>
      </trkpt>
      <trkpt lat="45.7516" lon="1.6352">
        <ele>404</ele>
        <time>2018-11-05T00:24:21Z</time>
      </trkpt>
      <trkpt lat="45.75173" lon="1.63533">
        <ele>404</ele>
        <time>2018-11-05T00:25:21Z</time>
      </trkpt>
      <trkpt lat="45.75187" lon="1.63554">
        <ele>403</ele>
        <time>2018-11-05T00:26:21Z</time>
      </trkpt>
      <trkpt lat="45.75255" lon="1.63679">
        <ele>396</ele>
        <time>2018-11-05T00:27:21Z</time>
      </trkpt>
      <trkpt lat="45.75274" lon="1.63703">
        <ele>394</ele>
        <time>2018-11-05T00:28:21Z</time>
      </trkpt>
      <trkpt lat="45.75294" lon="1.6372">
        <ele>392</ele>
        <time>2018-11-05T00:29:21Z</time>
      </trkpt>
      <trkpt lat="45.75414" lon="1.63777">
        <ele>386</ele>
        <time>2018-11-05T00:30:21Z</time>
      </trkpt>
      <trkpt lat="45.75439" lon="1.63803">
        <ele>384</ele>
        <time>2018-11-05T00:31:21Z</time>
      </trkpt>
      <trkpt lat="45.75451" lon="1.63832">
        <ele>382</ele>
        <time>2018-11-05T00:32:21Z</time>
      </trkpt>
      <trkpt lat="45.75459" lon="1.63864">
        <ele>380</ele>
        <time>2018-11-05T00:33:21Z</time>
      </trkpt>
      <trkpt lat="45.75463" lon="1.63894">
        <ele>378</ele>
        <time>2018-11-05T00:34:21Z</time>
      </trkpt>
      <trkpt lat="45.75463" lon="1.63929">
        <ele>375</ele>
        <time>2018-11-05T00:35:21Z</time>
      </trkpt>
      <trkpt lat="45.75458" lon="1.63977">
        <ele>371</ele>
        <time>2018-11-05T00:36:21Z</time>
      </trkpt>
      <trkpt lat="45.75462" lon="1.64001">
        <ele>370</ele>
        <time>2018-11-05T00:37:21Z</time>
      </trkpt>
      <trkpt lat="45.75469" lon="1.64013">
        <ele>369</ele>
        <time>2018-11-05T00:38:21Z</time>
      </trkpt>
      <trkpt lat="45.7548" lon="1.64022">
        <ele>369</ele>
        <time>2018-11-05T00:39:21Z</time>
      </trkpt>
      <trkpt lat="45.75562" lon="1.64043">
        <ele>367</ele>
        <time>2018-11-05T00:40:21Z</time>
      </trkpt>
      <trkpt lat="45.75571" lon="1.64052">
        <ele>366</ele>
        <time>2018-11-05T00:41:21Z</time>
      </trkpt>
      <trkpt lat="45.75575" lon="1.64064">
        <ele>366</ele>
        <time>2018-11-05T00:42:21Z</time>
      </trkpt>
      <trkpt lat="45.75576" lon="1.64077">
        <ele>365</ele>
        <time>2018-11-05T00:43:21Z</time>
      </trkpt>
      <trkpt lat="45.75561" lon="1.64128">
        <ele>362</ele>
        <time>2018-11-05T00:44:21Z</time>
      </trkpt>
      <trkpt lat="45.75563" lon="1.64151">
        <ele>360</ele>
        <time>2018-11-05T00:45:21Z</time>
      </trkpt>
      <trkpt lat="45.75573" lon="1.64169">
        <ele>359</ele>
        <time>2018-11-05T00:46:21Z</time>
      </trkpt>
      <trkpt lat="45.7559" lon="1.64186">
        <ele>357</ele>
        <time>2018-11-05T00:47:21Z</time>
      </trkpt>
      <trkpt lat="45.75619" lon="1.64196">
        <ele>355</ele>
        <time>2018-11-05T00:48:21Z</time>
      </trkpt>
      <trkpt lat="45.75652" lon="1.642">
        <ele>353</ele>
        <time>2018-11-05T00:49:21Z</time>
      </trkpt>
      <trkpt lat="45.75675" lon="1.64198">
        <ele>351</ele>
        <time>2018-11-05T00:50:21Z</time>
      </trkpt>
      <trkpt lat="45.7582" lon="1.64164">
        <ele>342</ele>
        <time>2018-11-05T00:51:21Z</time>
      </trkpt>
      <trkpt lat="45.75842" lon="1.6417">
        <ele>340</ele>
        <time>2018-11-05T00:52:21Z</time>
      </trkpt>
      <trkpt lat="45.75854" lon="1.64179">
        <ele>339</ele>
        <time>2018-11-05T00:53:21Z</time>
      </trkpt>
      <trkpt lat="45.75868" lon="1.64199">
        <ele>337</ele>
        <time>2018-11-05T00:54:21Z</time>
      </trkpt>
      <trkpt lat="45.75984" lon="1.64404">
        <ele>328</ele>
        <time>2018-11-05T00:55:21Z</time>
      </trkpt>
      <trkpt lat="45.75992" lon="1.64431">
        <ele>326</ele>
        <time>2018-11-05T00:56:21Z</time>
      </trkpt>
      <trkpt lat="45.75989" lon="1.64449">
        <ele>325</ele>
        <time>2018-11-05T00:57:21Z</time>
      </trkpt>
      <trkpt lat="45.75983" lon="1.64466">
        <ele>324</ele>
        <time>2018-11-05T00:58:21Z</time>
      </trkpt>
      <trkpt lat="45.75973" lon="1.64479">
        <ele>324</ele>
        <time>2018-11-05T00:59:21Z</time>
      </trkpt>
      <trkpt lat="45.75946" lon="1.64485">
        <ele>323</ele>
        <time>2018-11-05T01:00:21Z</time>
      </trkpt>
      <trkpt lat="45.75859" lon="1.64492">
        <ele>324</ele>
        <time>2018-11-05T01:01:21Z</time>
      </trkpt>
      <trkpt lat="45.75822" lon="1.64501">
        <ele>323</ele>
        <time>2018-11-05T01:02:21Z</time>
      </trkpt>
      <trkpt lat="45.75814" lon="1.64511">
        <ele>322</ele>
        <time>2018-11-05T01:03:21Z</time>
      </trkpt>
      <trkpt lat="45.75811" lon="1.64522">
        <ele>321</ele>
        <time>2018-11-05T01:04:21Z</time>
      </trkpt>
      <trkpt lat="45.75814" lon="1.64547">
        <ele>319</ele>
        <time>2018-11-05T01:05:21Z</time>
      </trkpt>
      <trkpt lat="45.75819" lon="1.64555">
        <ele>318</ele>
        <time>2018-11-05T01:06:21Z</time>
      </trkpt>
      <trkpt lat="45.75838" lon="1.64563">
        <ele>316</ele>
        <time>2018-11-05T01:07:21Z</time>
      </trkpt>
      <trkpt lat="45.75859" lon="1.64569">
        <ele>317</ele>
        <time>2018-11-05T01:08:21Z</time>
      </trkpt>
      <trkpt lat="45.75892" lon="1.6459">
        <ele>317</ele>
        <time>2018-11-05T01:09:21Z</time>
      </trkpt>
      <trkpt lat="45.75926" lon="1.6462">
        <ele>314</ele>
        <time>2018-11-05T01:10:21Z</time>
      </trkpt>
      <trkpt lat="45.75974" lon="1.6468">
        <ele>314</ele>
        <time>2018-11-05T01:11:21Z</time>
      </trkpt>
      <trkpt lat="45.75998" lon="1.64773">
        <ele>313</ele>
        <time>2018-11-05T01:12:21Z</time>
      </trkpt>
      <trkpt lat="45.76005" lon="1.64794">
        <ele>313</ele>
        <time>2018-11-05T01:13:21Z</time>
      </trkpt>
      <trkpt lat="45.76021" lon="1.64823">
        <ele>314</ele>
        <time>2018-11-05T01:14:21Z</time>
      </trkpt>
      <trkpt lat="45.76045" lon="1.64859">
        <ele>315</ele>
        <time>2018-11-05T01:15:21Z</time>
      </trkpt>
      <trkpt lat="45.76112" lon="1.64908">
        <ele>313</ele>
        <time>2018-11-05T01:16:21Z</time>
      </trkpt>
      <trkpt lat="45.76125" lon="1.6491">
        <ele>314</ele>
        <time>2018-11-05T01:17:21Z</time>
      </trkpt>
      <trkpt lat="45.76145" lon="1.64908">
        <ele>316</ele>
        <time>2018-11-05T01:18:21Z</time>
      </trkpt>
      <trkpt lat="45.76175" lon="1.64898">
        <ele>319</ele>
        <time>2018-11-05T01:19:21Z</time>
      </trkpt>
      <trkpt lat="45.76192" lon="1.64899">
        <ele>317</ele>
        <time>2018-11-05T01:20:21Z</time>
      </trkpt>
      <trkpt lat="45.76201" lon="1.64906">
        <ele>315</ele>
        <time>2018-11-05T01:21:21Z</time>
      </trkpt>
      <trkpt lat="45.7624" lon="1.64976">
        <ele>319</ele>
        <time>2018-11-05T01:22:21Z</time>
      </trkpt>
      <trkpt lat="45.76249" lon="1.64988">
        <ele>321</ele>
        <time>2018-11-05T01:23:21Z</time>
      </trkpt>
      <trkpt lat="45.76279" lon="1.6497">
        <ele>325</ele>
        <time>2018-11-05T01:24:21Z</time>
      </trkpt>
      <trkpt lat="45.76298" lon="1.64951">
        <ele>326</ele>
        <time>2018-11-05T01:25:21Z</time>
      </trkpt>
      <trkpt lat="45.76329" lon="1.64903">
        <ele>322</ele>
        <time>2018-11-05T01:26:21Z</time>
      </trkpt>
      <trkpt lat="45.76361" lon="1.64874">
        <ele>321</ele>
        <time>2018-11-05T01:27:21Z</time>
      </trkpt>
      <trkpt lat="45.76382" lon="1.64862">
        <ele>321</ele>
        <time>2018-11-05T01:28:21Z</time>
      </trkpt>
      <trkpt lat="45.76419" lon="1.64864">
        <ele>326</ele>
        <time>2018-11-05T01:29:21Z</time>
      </trkpt>
      <trkpt lat="45.76431" lon="1.64858">
        <ele>326</ele>
        <time>2018-11-05T01:30:21Z</time>
      </trkpt>
      <trkpt lat="45.7647" lon="1.64819">
        <ele>323</ele>
        <time>2018-11-05T01:31:21Z</time>
      </trkpt>
      <trkpt lat="45.76498" lon="1.64799">
        <ele>324</ele>
        <time>2018-11-05T01:32:21Z</time>
      </trkpt>
      <trkpt lat="45.76569" lon="1.64761">
        <ele>329</ele>
        <time>2018-11-05T01:33:21Z</time>
      </trkpt>
      <trkpt lat="45.76643" lon="1.64727">
        <ele>334</ele>
        <time>2018-11-05T01:34:21Z</time>
      </trkpt>
      <trkpt lat="45.76664" lon="1.64713">
        <ele>334</ele>
        <time>2018-11-05T01:35:21Z</time>
      </trkpt>
      <trkpt lat="45.76697" lon="1.6468">
        <ele>334</ele>
        <time>2018-11-05T01:36:21Z</time>
      </trkpt>
      <trkpt lat="45.76718" lon="1.64667">
        <ele>335</ele>
        <time>2018-11-05T01:37:21Z</time>
      </trkpt>
      <trkpt lat="45.76749" lon="1.64658">
        <ele>339</ele>
        <time>2018-11-05T01:38:21Z</time>
      </trkpt>
      <trkpt lat="45.76783" lon="1.64653">
        <ele>342</ele>
        <time>2018-11-05T01:39:21Z</time>
      </trkpt>
      <trkpt lat="45.76871" lon="1.64634">
        <ele>350</ele>
        <time>2018-11-05T01:40:21Z</time>
      </trkpt>
      <trkpt lat="45.76883" lon="1.64628">
        <ele>351</ele>
        <time>2018-11-05T01:41:21Z</time>
      </trkpt>
      <trkpt lat="45.76892" lon="1.64618">
        <ele>352</ele>
        <time>2018-11-05T01:42:21Z</time>
      </trkpt>
      <trkpt lat="45.76896" lon="1.64606">
        <ele>352</ele>
        <time>2018-11-05T01:43:21Z</time>
      </trkpt>
      <trkpt lat="45.76899" lon="1.64587">
        <ele>351</ele>
        <time>2018-11-05T01:44:21Z</time>
      </trkpt>
      <trkpt lat="45.76888" lon="1.64527">
        <ele>351</ele>
        <time>2018-11-05T01:45:21Z</time>
      </trkpt>
      <trkpt lat="45.76888" lon="1.64503">
        <ele>351</ele>
        <time>2018-11-05T01:46:21Z</time>
      </trkpt>
      <trkpt lat="45.76893" lon="1.64484">
        <ele>351</ele>
        <time>2018-11-05T01:47:21Z</time>
      </trkpt>
      <trkpt lat="45.76902" lon="1.64462">
        <ele>350</ele>
        <time>2018-11-05T01:48:21Z</time>
      </trkpt>
      <trkpt lat="45.76923" lon="1.64445">
        <ele>351</ele>
        <time>2018-11-05T01:49:21Z</time>
      </trkpt>
      <trkpt lat="45.77012" lon="1.64442">
        <ele>357</ele>
        <time>2018-11-05T01:50:21Z</time>
      </trkpt>
      <trkpt lat="45.77036" lon="1.64456">
        <ele>357</ele>
        <time>2018-11-05T01:51:21Z</time>
      </trkpt>
      <trkpt lat="45.77051" lon="1.6447">
        <ele>358</ele>
        <time>2018-11-05T01:52:21Z</time>
      </trkpt>
      <trkpt lat="45.77057" lon="1.64494">
        <ele>359</ele>
        <time>2018-11-05T01:53:21Z</time>
      </trkpt>
      <trkpt lat="45.77063" lon="1.64621">
        <ele>361</ele>
        <time>2018-11-05T01:54:21Z</time>
      </trkpt>
      <trkpt lat="45.7708" lon="1.64665">
        <ele>364</ele>
        <time>2018-11-05T01:55:21Z</time>
      </trkpt>
      <trkpt lat="45.77094" lon="1.6469">
        <ele>367</ele>
        <time>2018-11-05T01:56:21Z</time>
      </trkpt>
      <trkpt lat="45.7711" lon="1.64697">
        <ele>368</ele>
        <time>2018-11-05T01:57:21Z</time>
      </trkpt>
      <trkpt lat="45.77146" lon="1.64675">
        <ele>366</ele>
        <time>2018-11-05T01:58:21Z</time>
      </trkpt>
      <trkpt lat="45.77164" lon="1.64676">
        <ele>366</ele>
        <time>2018-11-05T01:59:21Z</time>
      </trkpt>
      <trkpt lat="45.77198" lon="1.64698">
        <ele>371</ele>
        <time>2018-11-05T02:00:21Z</time>
      </trkpt>
      <trkpt lat="45.7721" lon="1.64698">
        <ele>372</ele>
        <time>2018-11-05T02:01:21Z</time>
      </trkpt>
      <trkpt lat="45.77221" lon="1.64685">
        <ele>372</ele>
        <time>2018-11-05T02:02:21Z</time>
      </trkpt>
      <trkpt lat="45.77236" lon="1.64651">
        <ele>370</ele>
        <time>2018-11-05T02:03:21Z</time>
      </trkpt>
      <trkpt lat="45.77261" lon="1.64619">
        <ele>368</ele>
        <time>2018-11-05T02:04:21Z</time>
      </trkpt>
      <trkpt lat="45.77282" lon="1.64607">
        <ele>368</ele>
        <time>2018-11-05T02:05:21Z</time>
      </trkpt>
      <trkpt lat="45.77299" lon="1.6461">
        <ele>369</ele>
        <time>2018-11-05T02:06:21Z</time>
      </trkpt>
      <trkpt lat="45.77437" lon="1.64715">
        <ele>381</ele>
        <time>2018-11-05T02:07:21Z</time>
      </trkpt>
      <trkpt lat="45.77452" lon="1.64723">
        <ele>381</ele>
        <time>2018-11-05T02:08:21Z</time>
      </trkpt>
      <trkpt lat="45.77465" lon="1.6472">
        <ele>381</ele>
        <time>2018-11-05T02:09:21Z</time>
      </trkpt>
      <trkpt lat="45.77478" lon="1.64706">
        <ele>382</ele>
        <time>2018-11-05T02:10:21Z</time>
      </trkpt>
      <trkpt lat="45.77682" lon="1.64431">
        <ele>399</ele>
        <time>2018-11-05T02:11:21Z</time>
      </trkpt>
      <trkpt lat="45.77696" lon="1.6442">
        <ele>399</ele>
        <time>2018-11-05T02:12:21Z</time>
      </trkpt>
      <trkpt lat="45.77715" lon="1.64411">
        <ele>398</ele>
        <time>2018-11-05T02:13:21Z</time>
      </trkpt>
      <trkpt lat="45.77732" lon="1.64406">
        <ele>397</ele>
        <time>2018-11-05T02:14:21Z</time>
      </trkpt>
      <trkpt lat="45.77794" lon="1.64399">
        <ele>399</ele>
        <time>2018-11-05T02:15:21Z</time>
      </trkpt>
      <trkpt lat="45.77806" lon="1.64392">
        <ele>399</ele>
        <time>2018-11-05T02:16:21Z</time>
      </trkpt>
      <trkpt lat="45.77817" lon="1.6437">
        <ele>398</ele>
        <time>2018-11-05T02:17:21Z</time>
      </trkpt>
      <trkpt lat="45.77831" lon="1.6433">
        <ele>398</ele>
        <time>2018-11-05T02:18:21Z</time>
      </trkpt>
      <trkpt lat="45.7784" lon="1.64275">
        <ele>399</ele>
        <time>2018-11-05T02:19:21Z</time>
      </trkpt>
      <trkpt lat="45.7785" lon="1.64233">
        <ele>401</ele>
        <time>2018-11-05T02:20:21Z</time>
      </trkpt>
      <trkpt lat="45.77865" lon="1.6421">
        <ele>402</ele>
        <time>2018-11-05T02:21:21Z</time>
      </trkpt>
      <trkpt lat="45.7788" lon="1.64198">
        <ele>404</ele>
        <time>2018-11-05T02:22:21Z</time>
      </trkpt>
      <trkpt lat="45.77891" lon="1.64181">
        <ele>406</ele>
        <time>2018-11-05T02:23:21Z</time>
      </trkpt>
      <trkpt lat="45.77914" lon="1.64132">
        <ele>410</ele>
        <time>2018-11-05T02:24:21Z</time>
      </trkpt>
      <trkpt lat="45.77928" lon="1.6411">
        <ele>412</ele>
        <time>2018-11-05T02:25:21Z</time>
      </trkpt>
      <trkpt lat="45.77958" lon="1.64092">
        <ele>412</ele>
        <time>2018-11-05T02:26:21Z</time>
      </trkpt>
      <trkpt lat="45.77989" lon="1.64085">
        <ele>412</ele>
        <time>2018-11-05T02:27:21Z</time>
      </trkpt>
      <trkpt lat="45.78127" lon="1.64123">
        <ele>407</ele>
        <time>2018-11-05T02:28:21Z</time>
      </trkpt>
      <trkpt lat="45.78152" lon="1.64121">
        <ele>405</ele>
        <time>2018-11-05T02:29:21Z</time>
      </trkpt>
      <trkpt lat="45.78264" lon="1.64088">
        <ele>404</ele>
        <time>2018-11-05T02:30:21Z</time>
      </trkpt>
      <trkpt lat="45.78287" lon="1.64077">
        <ele>404</ele>
        <time>2018-11-05T02:31:21Z</time>
      </trkpt>
      <trkpt lat="45.78304" lon="1.64065">
        <ele>405</ele>
        <time>2018-11-05T02:32:21Z</time>
      </trkpt>
      <trkpt lat="45.78317" lon="1.64048">
        <ele>404</ele>
        <time>2018-11-05T02:33:21Z</time>
      </trkpt>
      <trkpt lat="45.78322" lon="1.64039">
        <ele>404</ele>
        <time>2018-11-05T02:34:21Z</time>
      </trkpt>
      <trkpt lat="45.78417" lon="1.63822">
        <ele>390</ele>
        <time>2018-11-05T02:35:21Z</time>
      </trkpt>
      <trkpt lat="45.7844" lon="1.63806">
        <ele>387</ele>
        <time>2018-11-05T02:36:21Z</time>
      </trkpt>
      <trkpt lat="45.78467" lon="1.63815">
        <ele>384</ele>
        <time>2018-11-05T02:37:21Z</time>
      </trkpt>
      <trkpt lat="45.78531" lon="1.63843">
        <ele>379</ele>
        <time>2018-11-05T02:38:21Z</time>
      </trkpt>
      <trkpt lat="45.78559" lon="1.63869">
        <ele>378</ele>
        <time>2018-11-05T02:39:21Z</time>
      </trkpt>
      <trkpt lat="45.78582" lon="1.63885">
        <ele>377</ele>
        <time>2018-11-05T02:40:21Z</time>
      </trkpt>
      <trkpt lat="45.78611" lon="1.63893">
        <ele>377</ele>
        <time>2018-11-05T02:41:21Z</time>
      </trkpt>
      <trkpt lat="45.78636" lon="1.63896">
        <ele>378</ele>
        <time>2018-11-05T02:42:21Z</time>
      </trkpt>
      <trkpt lat="45.78656" lon="1.63895">
        <ele>379</ele>
        <time>2018-11-05T02:43:21Z</time>
      </trkpt>
      <trkpt lat="45.78692" lon="1.63872">
        <ele>379</ele>
        <time>2018-11-05T02:44:21Z</time>
      </trkpt>
      <trkpt lat="45.78736" lon="1.63826">
        <ele>380</ele>
        <time>2018-11-05T02:45:21Z</time>
      </trkpt>
      <trkpt lat="45.78765" lon="1.638">
        <ele>379</ele>
        <time>2018-11-05T02:46:21Z</time>
      </trkpt>
      <trkpt lat="45.78796" lon="1.63786">
        <ele>378</ele>
        <time>2018-11-05T02:47:21Z</time>
      </trkpt>
      <trkpt lat="45.7883" lon="1.63777">
        <ele>378</ele>
        <time>2018-11-05T02:48:21Z</time>
      </trkpt>
      <trkpt lat="45.79059" lon="1.63752">
        <ele>385</ele>
        <time>2018-11-05T02:49:21Z</time>
      </trkpt>
      <trkpt lat="45.79077" lon="1.63747">
        <ele>385</ele>
        <time>2018-11-05T02:50:21Z</time>
      </trkpt>
      <trkpt lat="45.79096" lon="1.63737">
        <ele>385</ele>
        <time>2018-11-05T02:51:21Z</time>
      </trkpt>
      <trkpt lat="45.79142" lon="1.63707">
        <ele>386</ele>
        <time>2018-11-05T02:52:21Z</time>
      </trkpt>
      <trkpt lat="45.79203" lon="1.63659">
        <ele>386</ele>
        <time>2018-11-05T02:53:21Z</time>
      </trkpt>
      <trkpt lat="45.79223" lon="1.63629">
        <ele>386</ele>
        <time>2018-11-05T02:54:21Z</time>
      </trkpt>
      <trkpt lat="45.7924" lon="1.63598">
        <ele>386</ele>
        <time>2018-11-05T02:55:21Z</time>
      </trkpt>
      <trkpt lat="45.79252" lon="1.63567">
        <ele>385</ele>
        <time>2018-11-05T02:56:21Z</time>
      </trkpt>
      <trkpt lat="45.79265" lon="1.63522">
        <ele>384</ele>
        <time>2018-11-05T02:57:21Z</time>
      </trkpt>
      <trkpt lat="45.79273" lon="1.63502">
        <ele>384</ele>
        <time>2018-11-05T02:58:21Z</time>
      </trkpt>
      <trkpt lat="45.7931" lon="1.63451">
        <ele>383</ele>
        <time>2018-11-05T02:59:21Z</time>
      </trkpt>
      <trkpt lat="45.7931" lon="1.63451">
        <ele>383</ele>
        <time>2018-11-05T03:00:21Z</time>
      </trkpt>
      <trkpt lat="45.79368" lon="1.63378">
        <ele>385</ele>
        <time>2018-11-05T03:01:21Z</time>
      </trkpt>
      <trkpt lat="45.79399" lon="1.63356">
        <ele>386</ele>
        <time>2018-11-05T03:02:21Z</time>
      </trkpt>
      <trkpt lat="45.79468" lon="1.63329">
        <ele>392</ele>
        <time>2018-11-05T03:03:21Z</time>
      </trkpt>
      <trkpt lat="45.79506" lon="1.63317">
        <ele>394</ele>
        <time>2018-11-05T03:04:21Z</time>
      </trkpt>
      <trkpt lat="45.79472" lon="1.6341">
        <ele>398</ele>
        <time>2018-11-05T03:05:21Z</time>
      </trkpt>
      <trkpt lat="45.79468" lon="1.63427">
        <ele>397</ele>
        <time>2018-11-05T03:06:21Z</time>
      </trkpt>
      <trkpt lat="45.79467" lon="1.63451">
        <ele>397</ele>
        <time>2018-11-05T03:07:21Z</time>
      </trkpt>
      <trkpt lat="45.79469" lon="1.6346">
        <ele>397</ele>
        <time>2018-11-05T03:08:21Z</time>
      </trkpt>
      <trkpt lat="45.79524" lon="1.63603">
        <ele>403</ele>
        <time>2018-11-05T03:09:21Z</time>
      </trkpt>
      <trkpt lat="45.79535" lon="1.63634">
        <ele>404</ele>
        <time>2018-11-05T03:10:21Z</time>
      </trkpt>
      <trkpt lat="45.79537" lon="1.63651">
        <ele>404</ele>
        <time>2018-11-05T03:11:21Z</time>
      </trkpt>
      <trkpt lat="45.79532" lon="1.6367">
        <ele>403</ele>
        <time>2018-11-05T03:12:21Z</time>
      </trkpt>
      <trkpt lat="45.79514" lon="1.63707">
        <ele>402</ele>
        <time>2018-11-05T03:13:21Z</time>
      </trkpt>
      <trkpt lat="45.79504" lon="1.63741">
        <ele>402</ele>
        <time>2018-11-05T03:14:21Z</time>
      </trkpt>
      <trkpt lat="45.79356" lon="1.65058">
        <ele>415</ele>
        <time>2018-11-05T03:15:21Z</time>
      </trkpt>
      <trkpt lat="45.79356" lon="1.65096">
        <ele>414</ele>
        <time>2018-11-05T03:16:21Z</time>
      </trkpt>
      <trkpt lat="45.79382" lon="1.65522">
        <ele>407</ele>
        <time>2018-11-05T03:17:21Z</time>
      </trkpt>
      <trkpt lat="45.79372" lon="1.65565">
        <ele>409</ele>
        <time>2018-11-05T03:18:21Z</time>
      </trkpt>
      <trkpt lat="45.79362" lon="1.65582">
        <ele>409</ele>
        <time>2018-11-05T03:19:21Z</time>
      </trkpt>
      <trkpt lat="45.79352" lon="1.65595">
        <ele>410</ele>
        <time>2018-11-05T03:20:21Z</time>
      </trkpt>
      <trkpt lat="45.79244" lon="1.65697">
        <ele>408</ele>
        <time>2018-11-05T03:21:21Z</time>
      </trkpt>
      <trkpt lat="45.79231" lon="1.65725">
        <ele>409</ele>
        <time>2018-11-05T03:22:21Z</time>
      </trkpt>
      <trkpt lat="45.79223" lon="1.65758">
        <ele>410</ele>
        <time>2018-11-05T03:23:21Z</time>
      </trkpt>
      <trkpt lat="45.79224" lon="1.6578">
        <ele>410</ele>
        <time>2018-11-05T03:24:21Z</time>
      </trkpt>
      <trkpt lat="45.79229" lon="1.658">
        <ele>411</ele>
        <time>2018-11-05T03:25:21Z</time>
      </trkpt>
      <trkpt lat="45.79235" lon="1.65817">
        <ele>411</ele>
        <time>2018-11-05T03:26:21Z</time>
      </trkpt>
      <trkpt lat="45.79254" lon="1.65857">
        <ele>411</ele>
        <time>2018-11-05T03:27:21Z</time>
      </trkpt>
      <trkpt lat="45.79258" lon="1.65884">
        <ele>411</ele>
        <time>2018-11-05T03:28:21Z</time>
      </trkpt>
      <trkpt lat="45.79255" lon="1.6592">
        <ele>412</ele>
        <time>2018-11-05T03:29:21Z</time>
      </trkpt>
      <trkpt lat="45.79167" lon="1.66383">
        <ele>424</ele>
        <time>2018-11-05T03:30:21Z</time>
      </trkpt>
      <trkpt lat="45.79158" lon="1.66482">
        <ele>425</ele>
        <time>2018-11-05T03:31:21Z</time>
      </trkpt>
      <trkpt lat="45.79126" lon="1.66888">
        <ele>440</ele>
        <time>2018-11-05T03:32:21Z</time>
      </trkpt>
      <trkpt lat="45.79117" lon="1.66919">
        <ele>441</ele>
        <time>2018-11-05T03:33:21Z</time>
      </trkpt>
      <trkpt lat="45.79108" lon="1.66944">
        <ele>442</ele>
        <time>2018-11-05T03:34:21Z</time>
      </trkpt>
      <trkpt lat="45.79094" lon="1.66963">
        <ele>443</ele>
        <time>2018-11-05T03:35:21Z</time>
      </trkpt>
      <trkpt lat="45.7908" lon="1.66978">
        <ele>444</ele>
        <time>2018-11-05T03:36:21Z</time>
      </trkpt>
      <trkpt lat="45.79062" lon="1.66985">
        <ele>445</ele>
        <time>2018-11-05T03:37:21Z</time>
      </trkpt>
      <trkpt lat="45.7901" lon="1.66992">
        <ele>446</ele>
        <time>2018-11-05T03:38:21Z</time>
      </trkpt>
      <trkpt lat="45.78992" lon="1.67">
        <ele>447</ele>
        <time>2018-11-05T03:39:21Z</time>
      </trkpt>
      <trkpt lat="45.78978" lon="1.67011">
        <ele>448</ele>
        <time>2018-11-05T03:40:21Z</time>
      </trkpt>
      <trkpt lat="45.78969" lon="1.67027">
        <ele>450</ele>
        <time>2018-11-05T03:41:21Z</time>
      </trkpt>
      <trkpt lat="45.7895" lon="1.67074">
        <ele>455</ele>
        <time>2018-11-05T03:42:21Z</time>
      </trkpt>
      <trkpt lat="45.78937" lon="1.67091">
        <ele>457</ele>
        <time>2018-11-05T03:43:21Z</time>
      </trkpt>
      <trkpt lat="45.78925" lon="1.67103">
        <ele>459</ele>
        <time>2018-11-05T03:44:21Z</time>
      </trkpt>
      <trkpt lat="45.7891" lon="1.67108">
        <ele>460</ele>
        <time>2018-11-05T03:45:21Z</time>
      </trkpt>
      <trkpt lat="45.78892" lon="1.67111">
        <ele>461</ele>
        <time>2018-11-05T03:46:21Z</time>
      </trkpt>
      <trkpt lat="45.78819" lon="1.67101">
        <ele>462</ele>
        <time>2018-11-05T03:47:21Z</time>
      </trkpt>
      <trkpt lat="45.78802" lon="1.67106">
        <ele>463</ele>
        <time>2018-11-05T03:48:21Z</time>
      </trkpt>
      <trkpt lat="45.78786" lon="1.67119">
        <ele>464</ele>
        <time>2018-11-05T03:49:21Z</time>
      </trkpt>
      <trkpt lat="45.7878" lon="1.6713">
        <ele>465</ele>
        <time>2018-11-05T03:50:21Z</time>
      </trkpt>
      <trkpt lat="45.78774" lon="1.67145">
        <ele>466</ele>
        <time>2018-11-05T03:51:21Z</time>
      </trkpt>
      <trkpt lat="45.7877" lon="1.6717">
        <ele>468</ele>
        <time>2018-11-05T03:52:21Z</time>
      </trkpt>
      <trkpt lat="45.78769" lon="1.67378">
        <ele>471</ele>
        <time>2018-11-05T03:53:21Z</time>
      </trkpt>
      <trkpt lat="45.78764" lon="1.67592">
        <ele>482</ele>
        <time>2018-11-05T03:54:21Z</time>
      </trkpt>
      <trkpt lat="45.78761" lon="1.67626">
        <ele>485</ele>
        <time>2018-11-05T03:55:21Z</time>
      </trkpt>
      <trkpt lat="45.78754" lon="1.67652">
        <ele>488</ele>
        <time>2018-11-05T03:56:21Z</time>
      </trkpt>
      <trkpt lat="45.78737" lon="1.67682">
        <ele>490</ele>
        <time>2018-11-05T03:57:21Z</time>
      </trkpt>
      <trkpt lat="45.78715" lon="1.67707">
        <ele>491</ele>
        <time>2018-11-05T03:58:21Z</time>
      </trkpt>
      <trkpt lat="45.78674" lon="1.67747">
        <ele>495</ele>
        <time>2018-11-05T03:59:21Z</time>
      </trkpt>
      <trkpt lat="45.78541" lon="1.67848">
        <ele>500</ele>
        <time>2018-11-05T04:00:21Z</time>
      </trkpt>
      <trkpt lat="45.78531" lon="1.67865">
        <ele>501</ele>
        <time>2018-11-05T04:01:21Z</time>
      </trkpt>
      <trkpt lat="45.78526" lon="1.67884">
        <ele>501</ele>
        <time>2018-11-05T04:02:21Z</time>
      </trkpt>
      <trkpt lat="45.78525" lon="1.67904">
        <ele>502</ele>
        <time>2018-11-05T04:03:21Z</time>
      </trkpt>
      <trkpt lat="45.78528" lon="1.67921">
        <ele>502</ele>
        <time>2018-11-05T04:04:21Z</time>
      </trkpt>
      <trkpt lat="45.78536" lon="1.67936">
        <ele>501</ele>
        <time>2018-11-05T04:05:21Z</time>
      </trkpt>
      <trkpt lat="45.78568" lon="1.67975">
        <ele>499</ele>
        <time>2018-11-05T04:06:21Z</time>
      </trkpt>
      <trkpt lat="45.7863" lon="1.68043">
        <ele>500</ele>
        <time>2018-11-05T04:07:21Z</time>
      </trkpt>
      <trkpt lat="45.78652" lon="1.6807">
        <ele>500</ele>
        <time>2018-11-05T04:08:21Z</time>
      </trkpt>
      <trkpt lat="45.78666" lon="1.68104">
        <ele>498</ele>
        <time>2018-11-05T04:09:21Z</time>
      </trkpt>
      <trkpt lat="45.78722" lon="1.68294">
        <ele>485</ele>
        <time>2018-11-05T04:10:21Z</time>
      </trkpt>
      <trkpt lat="45.78732" lon="1.68336">
        <ele>483</ele>
        <time>2018-11-05T04:11:21Z</time>
      </trkpt>
      <trkpt lat="45.7873" lon="1.68367">
        <ele>483</ele>
        <time>2018-11-05T04:12:21Z</time>
      </trkpt>
      <trkpt lat="45.78722" lon="1.68394">
        <ele>482</ele>
        <time>2018-11-05T04:13:21Z</time>
      </trkpt>
      <trkpt lat="45.78639" lon="1.68573">
        <ele>482</ele>
        <time>2018-11-05T04:14:21Z</time>
      </trkpt>
      <trkpt lat="45.78612" lon="1.68622">
        <ele>484</ele>
        <time>2018-11-05T04:15:21Z</time>
      </trkpt>
      <trkpt lat="45.78599" lon="1.68654">
        <ele>484</ele>
        <time>2018-11-05T04:16:21Z</time>
      </trkpt>
      <trkpt lat="45.7859" lon="1.68683">
        <ele>484</ele>
        <time>2018-11-05T04:17:21Z</time>
      </trkpt>
      <trkpt lat="45.78584" lon="1.68724">
        <ele>482</ele>
        <time>2018-11-05T04:18:21Z</time>
      </trkpt>
      <trkpt lat="45.78576" lon="1.69019">
        <ele>483</ele>
        <time>2018-11-05T04:19:21Z</time>
      </trkpt>
      <trkpt lat="45.78569" lon="1.69049">
        <ele>483</ele>
        <time>2018-11-05T04:20:21Z</time>
      </trkpt>
      <trkpt lat="45.78558" lon="1.69079">
        <ele>484</ele>
        <time>2018-11-05T04:21:21Z</time>
      </trkpt>
      <trkpt lat="45.78548" lon="1.69094">
        <ele>484</ele>
        <time>2018-11-05T04:22:21Z</time>
      </trkpt>
      <trkpt lat="45.78535" lon="1.69106">
        <ele>484</ele>
        <time>2018-11-05T04:23:21Z</time>
      </trkpt>
      <trkpt lat="45.78518" lon="1.69115">
        <ele>485</ele>
        <time>2018-11-05T04:24:21Z</time>
      </trkpt>
      <trkpt lat="45.785" lon="1.6912">
        <ele>485</ele>
        <time>2018-11-05T04:25:21Z</time>
      </trkpt>
      <trkpt lat="45.78356" lon="1.69122">
        <ele>486</ele>
        <time>2018-11-05T04:26:21Z</time>
      </trkpt>
      <trkpt lat="45.78186" lon="1.69166">
        <ele>481</ele>
        <time>2018-11-05T04:27:21Z</time>
      </trkpt>
      <trkpt lat="45.78065" lon="1.692">
        <ele>479</ele>
        <time>2018-11-05T04:28:21Z</time>
      </trkpt>
      <trkpt lat="45.7799" lon="1.69216">
        <ele>481</ele>
        <time>2018-11-05T04:29:21Z</time>
      </trkpt>
      <trkpt lat="45.77968" lon="1.69214">
        <ele>482</ele>
        <time>2018-11-05T04:30:21Z</time>
      </trkpt>
      <trkpt lat="45.7794" lon="1.69199">
        <ele>480</ele>
        <time>2018-11-05T04:31:21Z</time>
      </trkpt>
      <trkpt lat="45.77904" lon="1.69173">
        <ele>477</ele>
        <time>2018-11-05T04:32:21Z</time>
      </trkpt>
      <trkpt lat="45.77872" lon="1.69154">
        <ele>475</ele>
        <time>2018-11-05T04:33:21Z</time>
      </trkpt>
      <trkpt lat="45.7783" lon="1.69144">
        <ele>475</ele>
        <time>2018-11-05T04:34:21Z</time>
      </trkpt>
      <trkpt lat="45.77805" lon="1.69144">
        <ele>476</ele>
        <time>2018-11-05T04:35:21Z</time>
      </trkpt>
      <trkpt lat="45.7741" lon="1.69251">
        <ele>471</ele>
        <time>2018-11-05T04:36:21Z</time>
      </trkpt>
      <trkpt lat="45.77271" lon="1.6932">
        <ele>460</ele>
        <time>2018-11-05T04:37:21Z</time>
      </trkpt>
      <trkpt lat="45.77258" lon="1.69331">
        <ele>459</ele>
        <time>2018-11-05T04:38:21Z</time>
      </trkpt>
      <trkpt lat="45.77252" lon="1.69349">
        <ele>459</ele>
        <time>2018-11-05T04:39:21Z</time>
      </trkpt>
      <trkpt lat="45.77255" lon="1.69472">
        <ele>457</ele>
        <time>2018-11-05T04:40:21Z</time>
      </trkpt>
      <trkpt lat="45.77254" lon="1.69494">
        <ele>455</ele>
        <time>2018-11-05T04:41:21Z</time>
      </trkpt>
      <trkpt lat="45.77246" lon="1.6952">
        <ele>458</ele>
        <time>2018-11-05T04:42:21Z</time>
      </trkpt>
      <trkpt lat="45.77236" lon="1.69532">
        <ele>460</ele>
        <time>2018-11-05T04:43:21Z</time>
      </trkpt>
      <trkpt lat="45.77222" lon="1.69539">
        <ele>461</ele>
        <time>2018-11-05T04:44:21Z</time>
      </trkpt>
      <trkpt lat="45.77202" lon="1.6954">
        <ele>461</ele>
        <time>2018-11-05T04:45:21Z</time>
      </trkpt>
      <trkpt lat="45.77189" lon="1.69533">
        <ele>460</ele>
        <time>2018-11-05T04:46:21Z</time>
      </trkpt>
      <trkpt lat="45.77178" lon="1.6952">
        <ele>458</ele>
        <time>2018-11-05T04:47:21Z</time>
      </trkpt>
      <trkpt lat="45.7709" lon="1.69372">
        <ele>460</ele>
        <time>2018-11-05T04:48:21Z</time>
      </trkpt>
      <trkpt lat="45.77076" lon="1.69356">
        <ele>459</ele>
        <time>2018-11-05T04:49:21Z</time>
      </trkpt>
      <trkpt lat="45.77059" lon="1.69344">
        <ele>459</ele>
        <time>2018-11-05T04:50:21Z</time>
      </trkpt>
      <trkpt lat="45.76914" lon="1.69302">
        <ele>461</ele>
        <time>2018-11-05T04:51:21Z</time>
      </trkpt>
      <trkpt lat="45.76895" lon="1.69302">
        <ele>459</ele>
        <time>2018-11-05T04:52:21Z</time>
      </trkpt>
      <trkpt lat="45.76881" lon="1.69307">
        <ele>459</ele>
        <time>2018-11-05T04:53:21Z</time>
      </trkpt>
      <trkpt lat="45.76869" lon="1.69316">
        <ele>458</ele>
        <time>2018-11-05T04:54:21Z</time>
      </trkpt>
      <trkpt lat="45.76861" lon="1.69327">
        <ele>458</ele>
        <time>2018-11-05T04:55:21Z</time>
      </trkpt>
      <trkpt lat="45.76832" lon="1.69379">
        <ele>458</ele>
        <time>2018-11-05T04:56:21Z</time>
      </trkpt>
      <trkpt lat="45.76823" lon="1.6939">
        <ele>458</ele>
        <time>2018-11-05T04:57:21Z</time>
      </trkpt>
      <trkpt lat="45.76813" lon="1.69396">
        <ele>458</ele>
        <time>2018-11-05T04:58:21Z</time>
      </trkpt>
      <trkpt lat="45.76786" lon="1.69401">
        <ele>458</ele>
        <time>2018-11-05T04:59:21Z</time>
      </trkpt>
      <trkpt lat="45.76482" lon="1.69431">
        <ele>465</ele>
        <time>2018-11-05T05:00:21Z</time>
      </trkpt>
      <trkpt lat="45.76443" lon="1.69442">
        <ele>466</ele>
        <time>2018-11-05T05:01:21Z</time>
      </trkpt>
      <trkpt lat="45.76403" lon="1.69465">
        <ele>466</ele>
        <time>2018-11-05T05:02:21Z</time>
      </trkpt>
      <trkpt lat="45.76373" lon="1.69486">
        <ele>464</ele>
        <time>2018-11-05T05:03:21Z</time>
      </trkpt>
      <trkpt lat="45.76347" lon="1.69508">
        <ele>463</ele>
        <time>2018-11-05T05:04:21Z</time>
      </trkpt>
      <trkpt lat="45.76334" lon="1.69525">
        <ele>463</ele>
        <time>2018-11-05T05:05:21Z</time>
      </trkpt>
      <trkpt lat="45.76324" lon="1.69544">
        <ele>463</ele>
        <time>2018-11-05T05:06:21Z</time>
      </trkpt>
      <trkpt lat="45.76317" lon="1.69573">
        <ele>465</ele>
        <time>2018-11-05T05:07:21Z</time>
      </trkpt>
      <trkpt lat="45.76289" lon="1.69891">
        <ele>468</ele>
        <time>2018-11-05T05:08:21Z</time>
      </trkpt>
      <trkpt lat="45.76295" lon="1.69928">
        <ele>469</ele>
        <time>2018-11-05T05:09:21Z</time>
      </trkpt>
      <trkpt lat="45.7631" lon="1.69974">
        <ele>470</ele>
        <time>2018-11-05T05:10:21Z</time>
      </trkpt>
      <trkpt lat="45.7631" lon="1.69991">
        <ele>470</ele>
        <time>2018-11-05T05:11:21Z</time>
      </trkpt>
      <trkpt lat="45.76303" lon="1.70013">
        <ele>469</ele>
        <time>2018-11-05T05:12:21Z</time>
      </trkpt>
      <trkpt lat="45.76252" lon="1.70075">
        <ele>465</ele>
        <time>2018-11-05T05:13:21Z</time>
      </trkpt>
      <trkpt lat="45.76244" lon="1.70099">
        <ele>464</ele>
        <time>2018-11-05T05:14:21Z</time>
      </trkpt>
      <trkpt lat="45.76242" lon="1.70119">
        <ele>464</ele>
        <time>2018-11-05T05:15:21Z</time>
      </trkpt>
      <trkpt lat="45.76245" lon="1.70138">
        <ele>464</ele>
        <time>2018-11-05T05:16:21Z</time>
      </trkpt>
      <trkpt lat="45.7625" lon="1.7016">
        <ele>465</ele>
        <time>2018-11-05T05:17:21Z</time>
      </trkpt>
      <trkpt lat="45.76311" lon="1.70313">
        <ele>472</ele>
        <time>2018-11-05T05:18:21Z</time>
      </trkpt>
      <trkpt lat="45.76318" lon="1.7034">
        <ele>473</ele>
        <time>2018-11-05T05:19:21Z</time>
      </trkpt>
      <trkpt lat="45.7632" lon="1.70365">
        <ele>474</ele>
        <time>2018-11-05T05:20:21Z</time>
      </trkpt>
      <trkpt lat="45.76314" lon="1.70412">
        <ele>473</ele>
        <time>2018-11-05T05:21:21Z</time>
      </trkpt>
      <trkpt lat="45.76165" lon="1.71083">
        <ele>464</ele>
        <time>2018-11-05T05:22:21Z</time>
      </trkpt>
      <trkpt lat="45.76164" lon="1.71103">
        <ele>463</ele>
        <time>2018-11-05T05:23:21Z</time>
      </trkpt>
      <trkpt lat="45.76167" lon="1.71128">
        <ele>463</ele>
        <time>2018-11-05T05:24:21Z</time>
      </trkpt>
      <trkpt lat="45.76177" lon="1.71155">
        <ele>463</ele>
        <time>2018-11-05T05:25:21Z</time>
      </trkpt>
      <trkpt lat="45.76185" lon="1.71168">
        <ele>464</ele>
        <time>2018-11-05T05:26:21Z</time>
      </trkpt>
      <trkpt lat="45.76185" lon="1.71168">
        <ele>464</ele>
        <time>2018-11-05T05:27:21Z</time>
      </trkpt>
      <trkpt lat="45.76231" lon="1.71239">
        <ele>459</ele>
        <time>2018-11-05T05:28:21Z</time>
      </trkpt>
      <trkpt lat="45.76244" lon="1.71269">
        <ele>458</ele>
        <time>2018-11-05T05:29:21Z</time>
      </trkpt>
      <trkpt lat="45.76246" lon="1.71293">
        <ele>458</ele>
        <time>2018-11-05T05:30:21Z</time>
      </trkpt>
      <trkpt lat="45.76227" lon="1.71371">
        <ele>456</ele>
        <time>2018-11-05T05:31:21Z</time>
      </trkpt>
      <trkpt lat="45.76218" lon="1.71429">
        <ele>456</ele>
        <time>2018-11-05T05:32:21Z</time>
      </trkpt>
      <trkpt lat="45.76217" lon="1.71452">
        <ele>454</ele>
        <time>2018-11-05T05:33:21Z</time>
      </trkpt>
      <trkpt lat="45.76362" lon="1.71413">
        <ele>458</ele>
        <time>2018-11-05T05:34:21Z</time>
      </trkpt>
      <trkpt lat="45.76397" lon="1.71398">
        <ele>460</ele>
        <time>2018-11-05T05:35:21Z</time>
      </trkpt>
      <trkpt lat="45.76425" lon="1.71379">
        <ele>461</ele>
        <time>2018-11-05T05:36:21Z</time>
      </trkpt>
      <trkpt lat="45.76477" lon="1.71335">
        <ele>464</ele>
        <time>2018-11-05T05:37:21Z</time>
      </trkpt>
      <trkpt lat="45.76492" lon="1.71319">
        <ele>466</ele>
        <time>2018-11-05T05:38:21Z</time>
      </trkpt>
      <trkpt lat="45.76525" lon="1.71254">
        <ele>471</ele>
        <time>2018-11-05T05:39:21Z</time>
      </trkpt>
      <trkpt lat="45.76541" lon="1.7124">
        <ele>473</ele>
        <time>2018-11-05T05:40:21Z</time>
      </trkpt>
      <trkpt lat="45.76564" lon="1.71236">
        <ele>473</ele>
        <time>2018-11-05T05:41:21Z</time>
      </trkpt>
      <trkpt lat="45.76655" lon="1.71262">
        <ele>475</ele>
        <time>2018-11-05T05:42:21Z</time>
      </trkpt>
      <trkpt lat="45.76687" lon="1.71246">
        <ele>477</ele>
        <time>2018-11-05T05:43:21Z</time>
      </trkpt>
      <trkpt lat="45.7675" lon="1.71179">
        <ele>482</ele>
        <time>2018-11-05T05:44:21Z</time>
      </trkpt>
      <trkpt lat="45.76759" lon="1.71161">
        <ele>484</ele>
        <time>2018-11-05T05:45:21Z</time>
      </trkpt>
      <trkpt lat="45.76772" lon="1.71096">
        <ele>488</ele>
        <time>2018-11-05T05:46:21Z</time>
      </trkpt>
      <trkpt lat="45.76784" lon="1.71076">
        <ele>490</ele>
        <time>2018-11-05T05:47:21Z</time>
      </trkpt>
      <trkpt lat="45.76802" lon="1.71067">
        <ele>491</ele>
        <time>2018-11-05T05:48:21Z</time>
      </trkpt>
      <trkpt lat="45.76858" lon="1.71064">
        <ele>491</ele>
        <time>2018-11-05T05:49:21Z</time>
      </trkpt>
      <trkpt lat="45.76884" lon="1.71053">
        <ele>493</ele>
        <time>2018-11-05T05:50:21Z</time>
      </trkpt>
      <trkpt lat="45.77078" lon="1.70947">
        <ele>495</ele>
        <time>2018-11-05T05:51:21Z</time>
      </trkpt>
      <trkpt lat="45.77101" lon="1.70945">
        <ele>497</ele>
        <time>2018-11-05T05:52:21Z</time>
      </trkpt>
      <trkpt lat="45.77121" lon="1.70955">
        <ele>499</ele>
        <time>2018-11-05T05:53:21Z</time>
      </trkpt>
      <trkpt lat="45.77137" lon="1.70968">
        <ele>500</ele>
        <time>2018-11-05T05:54:21Z</time>
      </trkpt>
      <trkpt lat="45.77159" lon="1.70994">
        <ele>501</ele>
        <time>2018-11-05T05:55:21Z</time>
      </trkpt>
      <trkpt lat="45.7725" lon="1.71245">
        <ele>511</ele>
        <time>2018-11-05T05:56:21Z</time>
      </trkpt>
      <trkpt lat="45.77275" lon="1.71278">
        <ele>514</ele>
        <time>2018-11-05T05:57:21Z</time>
      </trkpt>
      <trkpt lat="45.77337" lon="1.71321">
        <ele>521</ele>
        <time>2018-11-05T05:58:21Z</time>
      </trkpt>
      <trkpt lat="45.7738" lon="1.7134">
        <ele>527</ele>
        <time>2018-11-05T05:59:21Z</time>
      </trkpt>
      <trkpt lat="45.77402" lon="1.71356">
        <ele>529</ele>
        <time>2018-11-05T06:00:21Z</time>
      </trkpt>
      <trkpt lat="45.77486" lon="1.71403">
        <ele>535</ele>
        <time>2018-11-05T06:01:21Z</time>
      </trkpt>
      <trkpt lat="45.77687" lon="1.71434">
        <ele>542</ele>
        <time>2018-11-05T06:02:21Z</time>
      </trkpt>
      <trkpt lat="45.77698" lon="1.71432">
        <ele>543</ele>
        <time>2018-11-05T06:03:21Z</time>
      </trkpt>
      <trkpt lat="45.77706" lon="1.71424">
        <ele>544</ele>
        <time>2018-11-05T06:04:21Z</time>
      </trkpt>
      <trkpt lat="45.7772" lon="1.71381">
        <ele>544</ele>
        <time>2018-11-05T06:05:21Z</time>
      </trkpt>
      <trkpt lat="45.77788" lon="1.71504">
        <ele>547</ele>
        <time>2018-11-05T06:06:21Z</time>
      </trkpt>
      <trkpt lat="45.77809" lon="1.71552">
        <ele>545</ele>
        <time>2018-11-05T06:07:21Z</time>
      </trkpt>
      <trkpt lat="45.77825" lon="1.71594">
        <ele>544</ele>
        <time>2018-11-05T06:08:21Z</time>
      </trkpt>
      <trkpt lat="45.7788" lon="1.71664">
        <ele>547</ele>
        <time>2018-11-05T06:09:21Z</time>
      </trkpt>
      <trkpt lat="45.77904" lon="1.71698">
        <ele>547</ele>
        <time>2018-11-05T06:10:21Z</time>
      </trkpt>
      <trkpt lat="45.77979" lon="1.71834">
        <ele>546</ele>
        <time>2018-11-05T06:11:21Z</time>
      </trkpt>
      <trkpt lat="45.77984" lon="1.71859">
        <ele>546</ele>
        <time>2018-11-05T06:12:21Z</time>
      </trkpt>
      <trkpt lat="45.77984" lon="1.71884">
        <ele>546</ele>
        <time>2018-11-05T06:13:21Z</time>
      </trkpt>
      <trkpt lat="45.77981" lon="1.71922">
        <ele>545</ele>
        <time>2018-11-05T06:14:21Z</time>
      </trkpt>
      <trkpt lat="45.77973" lon="1.71975">
        <ele>545</ele>
        <time>2018-11-05T06:15:21Z</time>
      </trkpt>
      <trkpt lat="45.77972" lon="1.72014">
        <ele>545</ele>
        <time>2018-11-05T06:16:21Z</time>
      </trkpt>
      <trkpt lat="45.77975" lon="1.72044">
        <ele>546</ele>
        <time>2018-11-05T06:17:21Z</time>
      </trkpt>
      <trkpt lat="45.7798" lon="1.72055">
        <ele>547</ele>
        <time>2018-11-05T06:18:21Z</time>
      </trkpt>
      <trkpt lat="45.77972" lon="1.72059">
        <ele>546</ele>
        <time>2018-11-05T06:19:21Z</time>
      </trkpt>
      <trkpt lat="45.77961" lon="1.72058">
        <ele>546</ele>
        <time>2018-11-05T06:20:21Z</time>
      </trkpt>
      <trkpt lat="45.77954" lon="1.72047">
        <ele>545</ele>
        <time>2018-11-05T06:21:21Z</time>
      </trkpt>
      <trkpt lat="45.77954" lon="1.72047">
        <ele>545</ele>
        <time>2018-11-05T06:22:21Z</time>
      </trkpt>
      <trkpt lat="45.77961" lon="1.72058">
        <ele>546</ele>
        <time>2018-11-05T06:23:21Z</time>
      </trkpt>
      <trkpt lat="45.77972" lon="1.72059">
        <ele>546</ele>
        <time>2018-11-05T06:24:21Z</time>
      </trkpt>
      <trkpt lat="45.7798" lon="1.72055">
        <ele>547</ele>
        <time>2018-11-05T06:25:21Z</time>
      </trkpt>
      <trkpt lat="45.78038" lon="1.72163">
        <ele>549</ele>
        <time>2018-11-05T06:26:21Z</time>
      </trkpt>
      <trkpt lat="45.78107" lon="1.72276">
        <ele>555</ele>
        <time>2018-11-05T06:27:21Z</time>
      </trkpt>
      <trkpt lat="45.78082" lon="1.72337">
        <ele>557</ele>
        <time>2018-11-05T06:28:21Z</time>
      </trkpt>
      <trkpt lat="45.78067" lon="1.72355">
        <ele>558</ele>
        <time>2018-11-05T06:29:21Z</time>
      </trkpt>
      <trkpt lat="45.78038" lon="1.72382">
        <ele>559</ele>
        <time>2018-11-05T06:30:21Z</time>
      </trkpt>
      <trkpt lat="45.78025" lon="1.72403">
        <ele>560</ele>
        <time>2018-11-05T06:31:21Z</time>
      </trkpt>
      <trkpt lat="45.77991" lon="1.72525">
        <ele>560</ele>
        <time>2018-11-05T06:32:21Z</time>
      </trkpt>
      <trkpt lat="45.7799" lon="1.72551">
        <ele>561</ele>
        <time>2018-11-05T06:33:21Z</time>
      </trkpt>
      <trkpt lat="45.77994" lon="1.72572">
        <ele>560</ele>
        <time>2018-11-05T06:34:21Z</time>
      </trkpt>
      <trkpt lat="45.78019" lon="1.72612">
        <ele>561</ele>
        <time>2018-11-05T06:35:21Z</time>
      </trkpt>
      <trkpt lat="45.78036" lon="1.72644">
        <ele>562</ele>
        <time>2018-11-05T06:36:21Z</time>
      </trkpt>
      <trkpt lat="45.78066" lon="1.7272">
        <ele>569</ele>
        <time>2018-11-05T06:37:21Z</time>
      </trkpt>
      <trkpt lat="45.781" lon="1.72795">
        <ele>574</ele>
        <time>2018-11-05T06:38:21Z</time>
      </trkpt>
      <trkpt lat="45.78147" lon="1.72861">
        <ele>570</ele>
        <time>2018-11-05T06:39:21Z</time>
      </trkpt>
      <trkpt lat="45.78165" lon="1.729">
        <ele>570</ele>
        <time>2018-11-05T06:40:21Z</time>
      </trkpt>
      <trkpt lat="45.78173" lon="1.72944">
        <ele>572</ele>
        <time>2018-11-05T06:41:21Z</time>
      </trkpt>
      <trkpt lat="45.78177" lon="1.73066">
        <ele>570</ele>
        <time>2018-11-05T06:42:21Z</time>
      </trkpt>
      <trkpt lat="45.78177" lon="1.73131">
        <ele>565</ele>
        <time>2018-11-05T06:43:21Z</time>
      </trkpt>
      <trkpt lat="45.78167" lon="1.73164">
        <ele>563</ele>
        <time>2018-11-05T06:44:21Z</time>
      </trkpt>
      <trkpt lat="45.78149" lon="1.7319">
        <ele>566</ele>
        <time>2018-11-05T06:45:21Z</time>
      </trkpt>
      <trkpt lat="45.78121" lon="1.73213">
        <ele>572</ele>
        <time>2018-11-05T06:46:21Z</time>
      </trkpt>
      <trkpt lat="45.78108" lon="1.73228">
        <ele>574</ele>
        <time>2018-11-05T06:47:21Z</time>
      </trkpt>
      <trkpt lat="45.78091" lon="1.73271">
        <ele>572</ele>
        <time>2018-11-05T06:48:21Z</time>
      </trkpt>
      <trkpt lat="45.78079" lon="1.73312">
        <ele>568</ele>
        <time>2018-11-05T06:49:21Z</time>
      </trkpt>
      <trkpt lat="45.78068" lon="1.7336">
        <ele>564</ele>
        <time>2018-11-05T06:50:21Z</time>
      </trkpt>
      <trkpt lat="45.78073" lon="1.73397">
        <ele>559</ele>
        <time>2018-11-05T06:51:21Z</time>
      </trkpt>
      <trkpt lat="45.78076" lon="1.73438">
        <ele>556</ele>
        <time>2018-11-05T06:52:21Z</time>
      </trkpt>
      <trkpt lat="45.78074" lon="1.73473">
        <ele>555</ele>
        <time>2018-11-05T06:53:21Z</time>
      </trkpt>
      <trkpt lat="45.78068" lon="1.73511">
        <ele>556</ele>
        <time>2018-11-05T06:54:21Z</time>
      </trkpt>
      <trkpt lat="45.78069" lon="1.73536">
        <ele>557</ele>
        <time>2018-11-05T06:55:21Z</time>
      </trkpt>
      <trkpt lat="45.78076" lon="1.73559">
        <ele>558</ele>
        <time>2018-11-05T06:56:21Z</time>
      </trkpt>
      <trkpt lat="45.78105" lon="1.73612">
        <ele>558</ele>
        <time>2018-11-05T06:57:21Z</time>
      </trkpt>
      <trkpt lat="45.78142" lon="1.73727">
        <ele>557</ele>
        <time>2018-11-05T06:58:21Z</time>
      </trkpt>
      <trkpt lat="45.78187" lon="1.7377">
        <ele>550</ele>
        <time>2018-11-05T06:59:21Z</time>
      </trkpt>
      <trkpt lat="45.78203" lon="1.73791">
        <ele>549</ele>
        <time>2018-11-05T07:00:21Z</time>
      </trkpt>
      <trkpt lat="45.7821" lon="1.7382">
        <ele>548</ele>
        <time>2018-11-05T07:01:21Z</time>
      </trkpt>
      <trkpt lat="45.78213" lon="1.73846">
        <ele>548</ele>
        <time>2018-11-05T07:02:21Z</time>
      </trkpt>
      <trkpt lat="45.78209" lon="1.73869">
        <ele>548</ele>
        <time>2018-11-05T07:03:21Z</time>
      </trkpt>
      <trkpt lat="45.78196" lon="1.73922">
        <ele>549</ele>
        <time>2018-11-05T07:04:21Z</time>
      </trkpt>
      <trkpt lat="45.78192" lon="1.73987">
        <ele>546</ele>
        <time>2018-11-05T07:05:21Z</time>
      </trkpt>
      <trkpt lat="45.78172" lon="1.74125">
        <ele>545</ele>
        <time>2018-11-05T07:06:21Z</time>
      </trkpt>
      <trkpt lat="45.78163" lon="1.74166">
        <ele>545</ele>
        <time>2018-11-05T07:07:21Z</time>
      </trkpt>
      <trkpt lat="45.78097" lon="1.74263">
        <ele>545</ele>
        <time>2018-11-05T07:08:21Z</time>
      </trkpt>
      <trkpt lat="45.78086" lon="1.74289">
        <ele>544</ele>
        <time>2018-11-05T07:09:21Z</time>
      </trkpt>
      <trkpt lat="45.78079" lon="1.74328">
        <ele>543</ele>
        <time>2018-11-05T07:10:21Z</time>
      </trkpt>
      <trkpt lat="45.78076" lon="1.74358">
        <ele>543</ele>
        <time>2018-11-05T07:11:21Z</time>
      </trkpt>
      <trkpt lat="45.78068" lon="1.74383">
        <ele>543</ele>
        <time>2018-11-05T07:12:21Z</time>
      </trkpt>
      <trkpt lat="45.78032" lon="1.74423">
        <ele>544</ele>
        <time>2018-11-05T07:13:21Z</time>
      </trkpt>
      <trkpt lat="45.77985" lon="1.74488">
        <ele>552</ele>
        <time>2018-11-05T07:14:21Z</time>
      </trkpt>
      <trkpt lat="45.77958" lon="1.74511">
        <ele>552</ele>
        <time>2018-11-05T07:15:21Z</time>
      </trkpt>
      <trkpt lat="45.77893" lon="1.74553">
        <ele>551</ele>
        <time>2018-11-05T07:16:21Z</time>
      </trkpt>
      <trkpt lat="45.77833" lon="1.746">
        <ele>552</ele>
        <time>2018-11-05T07:17:21Z</time>
      </trkpt>
      <trkpt lat="45.77811" lon="1.7462">
        <ele>552</ele>
        <time>2018-11-05T07:18:21Z</time>
      </trkpt>
      <trkpt lat="45.77789" lon="1.7465">
        <ele>551</ele>
        <time>2018-11-05T07:19:21Z</time>
      </trkpt>
      <trkpt lat="45.77772" lon="1.74678">
        <ele>550</ele>
        <time>2018-11-05T07:20:21Z</time>
      </trkpt>
      <trkpt lat="45.77767" lon="1.74694">
        <ele>549</ele>
        <time>2018-11-05T07:21:21Z</time>
      </trkpt>
      <trkpt lat="45.7777" lon="1.74763">
        <ele>550</ele>
        <time>2018-11-05T07:22:21Z</time>
      </trkpt>
      <trkpt lat="45.77768" lon="1.74783">
        <ele>550</ele>
        <time>2018-11-05T07:23:21Z</time>
      </trkpt>
      <trkpt lat="45.77763" lon="1.74803">
        <ele>550</ele>
        <time>2018-11-05T07:24:21Z</time>
      </trkpt>
      <trkpt lat="45.77757" lon="1.7482">
        <ele>550</ele>
        <time>2018-11-05T07:25:21Z</time>
      </trkpt>
      <trkpt lat="45.77748" lon="1.74833">
        <ele>549</ele>
        <time>2018-11-05T07:26:21Z</time>
      </trkpt>
      <trkpt lat="45.77726" lon="1.74843">
        <ele>550</ele>
        <time>2018-11-05T07:27:21Z</time>
      </trkpt>
      <trkpt lat="45.77705" lon="1.74858">
        <ele>551</ele>
        <time>2018-11-05T07:28:21Z</time>
      </trkpt>
      <trkpt lat="45.77664" lon="1.74913">
        <ele>551</ele>
        <time>2018-11-05T07:29:21Z</time>
      </trkpt>
      <trkpt lat="45.77646" lon="1.74955">
        <ele>547</ele>
        <time>2018-11-05T07:30:21Z</time>
      </trkpt>
      <trkpt lat="45.77629" lon="1.75022">
        <ele>544</ele>
        <time>2018-11-05T07:31:21Z</time>
      </trkpt>
      <trkpt lat="45.77617" lon="1.75038">
        <ele>543</ele>
        <time>2018-11-05T07:32:21Z</time>
      </trkpt>
      <trkpt lat="45.77567" lon="1.75072">
        <ele>538</ele>
        <time>2018-11-05T07:33:21Z</time>
      </trkpt>
      <trkpt lat="45.77525" lon="1.75117">
        <ele>534</ele>
        <time>2018-11-05T07:34:21Z</time>
      </trkpt>
      <trkpt lat="45.77501" lon="1.75144">
        <ele>533</ele>
        <time>2018-11-05T07:35:21Z</time>
      </trkpt>
      <trkpt lat="45.77488" lon="1.75167">
        <ele>531</ele>
        <time>2018-11-05T07:36:21Z</time>
      </trkpt>
      <trkpt lat="45.77485" lon="1.75178">
        <ele>531</ele>
        <time>2018-11-05T07:37:21Z</time>
      </trkpt>
      <trkpt lat="45.77484" lon="1.75193">
        <ele>532</ele>
        <time>2018-11-05T07:38:21Z</time>
      </trkpt>
      <trkpt lat="45.7749" lon="1.75366">
        <ele>536</ele>
        <time>2018-11-05T07:39:21Z</time>
      </trkpt>
      <trkpt lat="45.77488" lon="1.75385">
        <ele>536</ele>
        <time>2018-11-05T07:40:21Z</time>
      </trkpt>
      <trkpt lat="45.77479" lon="1.75413">
        <ele>535</ele>
        <time>2018-11-05T07:41:21Z</time>
      </trkpt>
      <trkpt lat="45.77473" lon="1.75422">
        <ele>535</ele>
        <time>2018-11-05T07:42:21Z</time>
      </trkpt>
      <trkpt lat="45.77457" lon="1.75432">
        <ele>535</ele>
        <time>2018-11-05T07:43:21Z</time>
      </trkpt>
      <trkpt lat="45.77416" lon="1.75439">
        <ele>534</ele>
        <time>2018-11-05T07:44:21Z</time>
      </trkpt>
      <trkpt lat="45.77398" lon="1.75446">
        <ele>534</ele>
        <time>2018-11-05T07:45:21Z</time>
      </trkpt>
      <trkpt lat="45.77351" lon="1.7548">
        <ele>536</ele>
        <time>2018-11-05T07:46:21Z</time>
      </trkpt>
      <trkpt lat="45.77351" lon="1.7548">
        <ele>536</ele>
        <time>2018-11-05T07:47:21Z</time>
      </trkpt>
      <trkpt lat="45.7733" lon="1.75496">
        <ele>536</ele>
        <time>2018-11-05T07:48:21Z</time>
      </trkpt>
      <trkpt lat="45.77318" lon="1.75509">
        <ele>536</ele>
        <time>2018-11-05T07:49:21Z</time>
      </trkpt>
      <trkpt lat="45.77285" lon="1.75585">
        <ele>539</ele>
        <time>2018-11-05T07:50:21Z</time>
      </trkpt>
      <trkpt lat="45.77274" lon="1.75635">
        <ele>540</ele>
        <time>2018-11-05T07:51:21Z</time>
      </trkpt>
      <trkpt lat="45.77275" lon="1.75676">
        <ele>542</ele>
        <time>2018-11-05T07:52:21Z</time>
      </trkpt>
      <trkpt lat="45.77262" lon="1.75717">
        <ele>546</ele>
        <time>2018-11-05T07:53:21Z</time>
      </trkpt>
      <trkpt lat="45.77226" lon="1.75755">
        <ele>550</ele>
        <time>2018-11-05T07:54:21Z</time>
      </trkpt>
      <trkpt lat="45.77207" lon="1.75769">
        <ele>552</ele>
        <time>2018-11-05T07:55:21Z</time>
      </trkpt>
      <trkpt lat="45.77192" lon="1.75772">
        <ele>552</ele>
        <time>2018-11-05T07:56:21Z</time>
      </trkpt>
      <trkpt lat="45.77164" lon="1.7577">
        <ele>553</ele>
        <time>2018-11-05T07:57:21Z</time>
      </trkpt>
      <trkpt lat="45.77141" lon="1.75773">
        <ele>555</ele>
        <time>2018-11-05T07:58:21Z</time>
      </trkpt>
      <trkpt lat="45.77127" lon="1.75777">
        <ele>556</ele>
        <time>2018-11-05T07:59:21Z</time>
      </trkpt>
      <trkpt lat="45.77112" lon="1.75793">
        <ele>557</ele>
        <time>2018-11-05T08:00:21Z</time>
      </trkpt>
      <trkpt lat="45.7719" lon="1.75908">
        <ele>557</ele>
        <time>2018-11-05T08:01:21Z</time>
      </trkpt>
      <trkpt lat="45.77218" lon="1.75938">
        <ele>557</ele>
        <time>2018-11-05T08:02:21Z</time>
      </trkpt>
      <trkpt lat="45.77246" lon="1.75953">
        <ele>558</ele>
        <time>2018-11-05T08:03:21Z</time>
      </trkpt>
      <trkpt lat="45.7727" lon="1.7596">
        <ele>557</ele>
        <time>2018-11-05T08:04:21Z</time>
      </trkpt>
      <trkpt lat="45.77287" lon="1.75961">
        <ele>557</ele>
        <time>2018-11-05T08:05:21Z</time>
      </trkpt>
      <trkpt lat="45.77304" lon="1.75962">
        <ele>557</ele>
        <time>2018-11-05T08:06:21Z</time>
      </trkpt>
      <trkpt lat="45.77473" lon="1.75938">
        <ele>554</ele>
        <time>2018-11-05T08:07:21Z</time>
      </trkpt>
      <trkpt lat="45.77503" lon="1.75939">
        <ele>553</ele>
        <time>2018-11-05T08:08:21Z</time>
      </trkpt>
      <trkpt lat="45.77532" lon="1.75952">
        <ele>550</ele>
        <time>2018-11-05T08:09:21Z</time>
      </trkpt>
      <trkpt lat="45.77546" lon="1.75961">
        <ele>549</ele>
        <time>2018-11-05T08:10:21Z</time>
      </trkpt>
      <trkpt lat="45.77565" lon="1.75979">
        <ele>549</ele>
        <time>2018-11-05T08:11:21Z</time>
      </trkpt>
      <trkpt lat="45.77894" lon="1.76306">
        <ele>555</ele>
        <time>2018-11-05T08:12:21Z</time>
      </trkpt>
      <trkpt lat="45.77914" lon="1.76325">
        <ele>555</ele>
        <time>2018-11-05T08:13:21Z</time>
      </trkpt>
      <trkpt lat="45.77935" lon="1.76339">
        <ele>556</ele>
        <time>2018-11-05T08:14:21Z</time>
      </trkpt>
      <trkpt lat="45.77957" lon="1.7635">
        <ele>557</ele>
        <time>2018-11-05T08:15:21Z</time>
      </trkpt>
      <trkpt lat="45.78253" lon="1.76467">
        <ele>569</ele>
        <time>2018-11-05T08:16:21Z</time>
      </trkpt>
      <trkpt lat="45.78397" lon="1.76514">
        <ele>562</ele>
        <time>2018-11-05T08:17:21Z</time>
      </trkpt>
      <trkpt lat="45.78418" lon="1.76526">
        <ele>560</ele>
        <time>2018-11-05T08:18:21Z</time>
      </trkpt>
      <trkpt lat="45.78431" lon="1.76531">
        <ele>558</ele>
        <time>2018-11-05T08:19:21Z</time>
      </trkpt>
      <trkpt lat="45.78442" lon="1.76531">
        <ele>556</ele>
        <time>2018-11-05T08:20:21Z</time>
      </trkpt>
      <trkpt lat="45.78458" lon="1.76525">
        <ele>555</ele>
        <time>2018-11-05T08:21:21Z</time>
      </trkpt>
      <trkpt lat="45.78466" lon="1.76517">
        <ele>555</ele>
        <time>2018-11-05T08:22:21Z</time>
      </trkpt>
      <trkpt lat="45.78479" lon="1.76498">
        <ele>555</ele>
        <time>2018-11-05T08:23:21Z</time>
      </trkpt>
      <trkpt lat="45.78494" lon="1.76473">
        <ele>556</ele>
        <time>2018-11-05T08:24:21Z</time>
      </trkpt>
      <trkpt lat="45.78503" lon="1.76459">
        <ele>557</ele>
        <time>2018-11-05T08:25:21Z</time>
      </trkpt>
      <trkpt lat="45.78532" lon="1.76429">
        <ele>556</ele>
        <time>2018-11-05T08:26:21Z</time>
      </trkpt>
      <trkpt lat="45.78547" lon="1.76418">
        <ele>555</ele>
        <time>2018-11-05T08:27:21Z</time>
      </trkpt>
      <trkpt lat="45.78569" lon="1.76414">
        <ele>553</ele>
        <time>2018-11-05T08:28:21Z</time>
      </trkpt>
      <trkpt lat="45.78604" lon="1.7642">
        <ele>548</ele>
        <time>2018-11-05T08:29:21Z</time>
      </trkpt>
      <trkpt lat="45.7862" lon="1.76418">
        <ele>547</ele>
        <time>2018-11-05T08:30:21Z</time>
      </trkpt>
      <trkpt lat="45.78636" lon="1.76408">
        <ele>548</ele>
        <time>2018-11-05T08:31:21Z</time>
      </trkpt>
      <trkpt lat="45.78669" lon="1.76373">
        <ele>552</ele>
        <time>2018-11-05T08:32:21Z</time>
      </trkpt>
      <trkpt lat="45.78701" lon="1.76355">
        <ele>548</ele>
        <time>2018-11-05T08:33:21Z</time>
      </trkpt>
      <trkpt lat="45.78721" lon="1.7634">
        <ele>546</ele>
        <time>2018-11-05T08:34:21Z</time>
      </trkpt>
      <trkpt lat="45.78743" lon="1.76313">
        <ele>543</ele>
        <time>2018-11-05T08:35:21Z</time>
      </trkpt>
      <trkpt lat="45.78754" lon="1.76304">
        <ele>542</ele>
        <time>2018-11-05T08:36:21Z</time>
      </trkpt>
      <trkpt lat="45.78764" lon="1.763">
        <ele>541</ele>
        <time>2018-11-05T08:37:21Z</time>
      </trkpt>
      <trkpt lat="45.78785" lon="1.76302">
        <ele>539</ele>
        <time>2018-11-05T08:38:21Z</time>
      </trkpt>
      <trkpt lat="45.78804" lon="1.76316">
        <ele>535</ele>
        <time>2018-11-05T08:39:21Z</time>
      </trkpt>
      <trkpt lat="45.78831" lon="1.76347">
        <ele>528</ele>
        <time>2018-11-05T08:40:21Z</time>
      </trkpt>
      <trkpt lat="45.78852" lon="1.76363">
        <ele>525</ele>
        <time>2018-11-05T08:41:21Z</time>
      </trkpt>
      <trkpt lat="45.78873" lon="1.76375">
        <ele>522</ele>
        <time>2018-11-05T08:42:21Z</time>
      </trkpt>
      <trkpt lat="45.78901" lon="1.76384">
        <ele>520</ele>
        <time>2018-11-05T08:43:21Z</time>
      </trkpt>
      <trkpt lat="45.78913" lon="1.76384">
        <ele>520</ele>
        <time>2018-11-05T08:44:21Z</time>
      </trkpt>
      <trkpt lat="45.78924" lon="1.76383">
        <ele>518</ele>
        <time>2018-11-05T08:45:21Z</time>
      </trkpt>
      <trkpt lat="45.78946" lon="1.76372">
        <ele>515</ele>
        <time>2018-11-05T08:46:21Z</time>
      </trkpt>
      <trkpt lat="45.78955" lon="1.76361">
        <ele>514</ele>
        <time>2018-11-05T08:47:21Z</time>
      </trkpt>
      <trkpt lat="45.78962" lon="1.76347">
        <ele>515</ele>
        <time>2018-11-05T08:48:21Z</time>
      </trkpt>
      <trkpt lat="45.78982" lon="1.76285">
        <ele>518</ele>
        <time>2018-11-05T08:49:21Z</time>
      </trkpt>
      <trkpt lat="45.78994" lon="1.76264">
        <ele>518</ele>
        <time>2018-11-05T08:50:21Z</time>
      </trkpt>
      <trkpt lat="45.79012" lon="1.7624">
        <ele>517</ele>
        <time>2018-11-05T08:51:21Z</time>
      </trkpt>
      <trkpt lat="45.79018" lon="1.76229">
        <ele>516</ele>
        <time>2018-11-05T08:52:21Z</time>
      </trkpt>
      <trkpt lat="45.79034" lon="1.76177">
        <ele>517</ele>
        <time>2018-11-05T08:53:21Z</time>
      </trkpt>
      <trkpt lat="45.79041" lon="1.76165">
        <ele>516</ele>
        <time>2018-11-05T08:54:21Z</time>
      </trkpt>
      <trkpt lat="45.79049" lon="1.76155">
        <ele>516</ele>
        <time>2018-11-05T08:55:21Z</time>
      </trkpt>
      <trkpt lat="45.79072" lon="1.76144">
        <ele>514</ele>
        <time>2018-11-05T08:56:21Z</time>
      </trkpt>
      <trkpt lat="45.79082" lon="1.76143">
        <ele>512</ele>
        <time>2018-11-05T08:57:21Z</time>
      </trkpt>
      <trkpt lat="45.79096" lon="1.76145">
        <ele>512</ele>
        <time>2018-11-05T08:58:21Z</time>
      </trkpt>
      <trkpt lat="45.79118" lon="1.76157">
        <ele>510</ele>
        <time>2018-11-05T08:59:21Z</time>
      </trkpt>
      <trkpt lat="45.79144" lon="1.76181">
        <ele>506</ele>
        <time>2018-11-05T09:00:21Z</time>
      </trkpt>
      <trkpt lat="45.79154" lon="1.76187">
        <ele>505</ele>
        <time>2018-11-05T09:01:21Z</time>
      </trkpt>
      <trkpt lat="45.79167" lon="1.76189">
        <ele>504</ele>
        <time>2018-11-05T09:02:21Z</time>
      </trkpt>
      <trkpt lat="45.79179" lon="1.76187">
        <ele>503</ele>
        <time>2018-11-05T09:03:21Z</time>
      </trkpt>
      <trkpt lat="45.79191" lon="1.76182">
        <ele>503</ele>
        <time>2018-11-05T09:04:21Z</time>
      </trkpt>
      <trkpt lat="45.79222" lon="1.76162">
        <ele>504</ele>
        <time>2018-11-05T09:05:21Z</time>
      </trkpt>
      <trkpt lat="45.79232" lon="1.7616">
        <ele>503</ele>
        <time>2018-11-05T09:06:21Z</time>
      </trkpt>
      <trkpt lat="45.79247" lon="1.76157">
        <ele>503</ele>
        <time>2018-11-05T09:07:21Z</time>
      </trkpt>
      <trkpt lat="45.79261" lon="1.76159">
        <ele>502</ele>
        <time>2018-11-05T09:08:21Z</time>
      </trkpt>
      <trkpt lat="45.79277" lon="1.76165">
        <ele>500</ele>
        <time>2018-11-05T09:09:21Z</time>
      </trkpt>
      <trkpt lat="45.79456" lon="1.76302">
        <ele>484</ele>
        <time>2018-11-05T09:10:21Z</time>
      </trkpt>
      <trkpt lat="45.79485" lon="1.7632">
        <ele>483</ele>
        <time>2018-11-05T09:11:21Z</time>
      </trkpt>
      <trkpt lat="45.79518" lon="1.7633">
        <ele>481</ele>
        <time>2018-11-05T09:12:21Z</time>
      </trkpt>
      <trkpt lat="45.79547" lon="1.76331">
        <ele>480</ele>
        <time>2018-11-05T09:13:21Z</time>
      </trkpt>
      <trkpt lat="45.7969" lon="1.76315">
        <ele>473</ele>
        <time>2018-11-05T09:14:21Z</time>
      </trkpt>
      <trkpt lat="45.79726" lon="1.76313">
        <ele>470</ele>
        <time>2018-11-05T09:15:21Z</time>
      </trkpt>
      <trkpt lat="45.7975" lon="1.76315">
        <ele>469</ele>
        <time>2018-11-05T09:16:21Z</time>
      </trkpt>
      <trkpt lat="45.79788" lon="1.76322">
        <ele>466</ele>
        <time>2018-11-05T09:17:21Z</time>
      </trkpt>
      <trkpt lat="45.79819" lon="1.76333">
        <ele>463</ele>
        <time>2018-11-05T09:18:21Z</time>
      </trkpt>
      <trkpt lat="45.79836" lon="1.76343">
        <ele>462</ele>
        <time>2018-11-05T09:19:21Z</time>
      </trkpt>
      <trkpt lat="45.79879" lon="1.76379">
        <ele>459</ele>
        <time>2018-11-05T09:20:21Z</time>
      </trkpt>
      <trkpt lat="45.79891" lon="1.76388">
        <ele>458</ele>
        <time>2018-11-05T09:21:21Z</time>
      </trkpt>
      <trkpt lat="45.79906" lon="1.76393">
        <ele>457</ele>
        <time>2018-11-05T09:22:21Z</time>
      </trkpt>
      <trkpt lat="45.7993" lon="1.76391">
        <ele>455</ele>
        <time>2018-11-05T09:23:21Z</time>
      </trkpt>
      <trkpt lat="45.7994" lon="1.76386">
        <ele>454</ele>
        <time>2018-11-05T09:24:21Z</time>
      </trkpt>
      <trkpt lat="45.79976" lon="1.76361">
        <ele>451</ele>
        <time>2018-11-05T09:25:21Z</time>
      </trkpt>
      <trkpt lat="45.79988" lon="1.76359">
        <ele>451</ele>
        <time>2018-11-05T09:26:21Z</time>
      </trkpt>
      <trkpt lat="45.80004" lon="1.76359">
        <ele>450</ele>
        <time>2018-11-05T09:27:21Z</time>
      </trkpt>
      <trkpt lat="45.80015" lon="1.76363">
        <ele>450</ele>
        <time>2018-11-05T09:28:21Z</time>
      </trkpt>
      <trkpt lat="45.80041" lon="1.76375">
        <ele>450</ele>
        <time>2018-11-05T09:29:21Z</time>
      </trkpt>
      <trkpt lat="45.80056" lon="1.76385">
        <ele>450</ele>
        <time>2018-11-05T09:30:21Z</time>
      </trkpt>
      <trkpt lat="45.80084" lon="1.76414">
        <ele>446</ele>
        <time>2018-11-05T09:31:21Z</time>
      </trkpt>
      <trkpt lat="45.80101" lon="1.76439">
        <ele>445</ele>
        <time>2018-11-05T09:32:21Z</time>
      </trkpt>
      <trkpt lat="45.80111" lon="1.76451">
        <ele>444</ele>
        <time>2018-11-05T09:33:21Z</time>
      </trkpt>
      <trkpt lat="45.80119" lon="1.76455">
        <ele>444</ele>
        <time>2018-11-05T09:34:21Z</time>
      </trkpt>
      <trkpt lat="45.80129" lon="1.76459">
        <ele>444</ele>
        <time>2018-11-05T09:35:21Z</time>
      </trkpt>
      <trkpt lat="45.8014" lon="1.76459">
        <ele>443</ele>
        <time>2018-11-05T09:36:21Z</time>
      </trkpt>
      <trkpt lat="45.80182" lon="1.76445">
        <ele>443</ele>
        <time>2018-11-05T09:37:21Z</time>
      </trkpt>
      <trkpt lat="45.80193" lon="1.76442">
        <ele>443</ele>
        <time>2018-11-05T09:38:21Z</time>
      </trkpt>
      <trkpt lat="45.80202" lon="1.76442">
        <ele>443</ele>
        <time>2018-11-05T09:39:21Z</time>
      </trkpt>
      <trkpt lat="45.80212" lon="1.76443">
        <ele>443</ele>
        <time>2018-11-05T09:40:21Z</time>
      </trkpt>
      <trkpt lat="45.80227" lon="1.76449">
        <ele>442</ele>
        <time>2018-11-05T09:41:21Z</time>
      </trkpt>
      <trkpt lat="45.80244" lon="1.7646">
        <ele>440</ele>
        <time>2018-11-05T09:42:21Z</time>
      </trkpt>
      <trkpt lat="45.80275" lon="1.76493">
        <ele>438</ele>
        <time>2018-11-05T09:43:21Z</time>
      </trkpt>
      <trkpt lat="45.80319" lon="1.76569">
        <ele>436</ele>
        <time>2018-11-05T09:44:21Z</time>
      </trkpt>
      <trkpt lat="45.80337" lon="1.76582">
        <ele>434</ele>
        <time>2018-11-05T09:45:21Z</time>
      </trkpt>
      <trkpt lat="45.8037" lon="1.76589">
        <ele>433</ele>
        <time>2018-11-05T09:46:21Z</time>
      </trkpt>
      <trkpt lat="45.80391" lon="1.76585">
        <ele>432</ele>
        <time>2018-11-05T09:47:21Z</time>
      </trkpt>
      <trkpt lat="45.8042" lon="1.76583">
        <ele>432</ele>
        <time>2018-11-05T09:48:21Z</time>
      </trkpt>
      <trkpt lat="45.80441" lon="1.7659">
        <ele>430</ele>
        <time>2018-11-05T09:49:21Z</time>
      </trkpt>
      <trkpt lat="45.80469" lon="1.7661">
        <ele>426</ele>
        <time>2018-11-05T09:50:21Z</time>
      </trkpt>
      <trkpt lat="45.80497" lon="1.76616">
        <ele>425</ele>
        <time>2018-11-05T09:51:21Z</time>
      </trkpt>
      <trkpt lat="45.80579" lon="1.76614">
        <ele>419</ele>
        <time>2018-11-05T09:52:21Z</time>
      </trkpt>
      <trkpt lat="45.80579" lon="1.76614">
        <ele>419</ele>
        <time>2018-11-05T09:53:21Z</time>
      </trkpt>
      <trkpt lat="45.80884" lon="1.76607">
        <ele>418</ele>
        <time>2018-11-05T09:54:21Z</time>
      </trkpt>
      <trkpt lat="45.80976" lon="1.76607">
        <ele>422</ele>
        <time>2018-11-05T09:55:21Z</time>
      </trkpt>
      <trkpt lat="45.80991" lon="1.76609">
        <ele>423</ele>
        <time>2018-11-05T09:56:21Z</time>
      </trkpt>
      <trkpt lat="45.81" lon="1.76533">
        <ele>421</ele>
        <time>2018-11-05T09:57:21Z</time>
      </trkpt>
      <trkpt lat="45.8101" lon="1.76504">
        <ele>421</ele>
        <time>2018-11-05T09:58:21Z</time>
      </trkpt>
      <trkpt lat="45.81033" lon="1.76476">
        <ele>421</ele>
        <time>2018-11-05T09:59:21Z</time>
      </trkpt>
      <trkpt lat="45.8105" lon="1.76463">
        <ele>421</ele>
        <time>2018-11-05T10:00:21Z</time>
      </trkpt>
      <trkpt lat="45.81071" lon="1.76455">
        <ele>421</ele>
        <time>2018-11-05T10:01:21Z</time>
      </trkpt>
      <trkpt lat="45.81086" lon="1.76456">
        <ele>421</ele>
        <time>2018-11-05T10:02:21Z</time>
      </trkpt>
      <trkpt lat="45.81102" lon="1.7646">
        <ele>421</ele>
        <time>2018-11-05T10:03:21Z</time>
      </trkpt>
      <trkpt lat="45.81113" lon="1.76466">
        <ele>421</ele>
        <time>2018-11-05T10:04:21Z</time>
      </trkpt>
      <trkpt lat="45.81124" lon="1.76475">
        <ele>421</ele>
        <time>2018-11-05T10:05:21Z</time>
      </trkpt>
      <trkpt lat="45.81157" lon="1.7651">
        <ele>421</ele>
        <time>2018-11-05T10:06:21Z</time>
      </trkpt>
      <trkpt lat="45.81169" lon="1.76519">
        <ele>421</ele>
        <time>2018-11-05T10:07:21Z</time>
      </trkpt>
      <trkpt lat="45.81181" lon="1.76525">
        <ele>421</ele>
        <time>2018-11-05T10:08:21Z</time>
      </trkpt>
      <trkpt lat="45.8119" lon="1.76527">
        <ele>420</ele>
        <time>2018-11-05T10:09:21Z</time>
      </trkpt>
      <trkpt lat="45.8121" lon="1.76526">
        <ele>419</ele>
        <time>2018-11-05T10:10:21Z</time>
      </trkpt>
      <trkpt lat="45.8124" lon="1.76514">
        <ele>417</ele>
        <time>2018-11-05T10:11:21Z</time>
      </trkpt>
      <trkpt lat="45.8125" lon="1.76507">
        <ele>416</ele>
        <time>2018-11-05T10:12:21Z</time>
      </trkpt>
      <trkpt lat="45.81265" lon="1.76491">
        <ele>415</ele>
        <time>2018-11-05T10:13:21Z</time>
      </trkpt>
      <trkpt lat="45.8128" lon="1.76467">
        <ele>415</ele>
        <time>2018-11-05T10:14:21Z</time>
      </trkpt>
      <trkpt lat="45.81294" lon="1.7644">
        <ele>414</ele>
        <time>2018-11-05T10:15:21Z</time>
      </trkpt>
      <trkpt lat="45.81294" lon="1.7644">
        <ele>414</ele>
        <time>2018-11-05T10:16:21Z</time>
      </trkpt>
      <trkpt lat="45.81344" lon="1.76342">
        <ele>411</ele>
        <time>2018-11-05T10:17:21Z</time>
      </trkpt>
      <trkpt lat="45.81373" lon="1.76304">
        <ele>408</ele>
        <time>2018-11-05T10:18:21Z</time>
      </trkpt>
      <trkpt lat="45.814" lon="1.76282">
        <ele>406</ele>
        <time>2018-11-05T10:19:21Z</time>
      </trkpt>
      <trkpt lat="45.81465" lon="1.76245">
        <ele>401</ele>
        <time>2018-11-05T10:20:21Z</time>
      </trkpt>
      <trkpt lat="45.81553" lon="1.76212">
        <ele>399</ele>
        <time>2018-11-05T10:21:21Z</time>
      </trkpt>
      <trkpt lat="45.81561" lon="1.76207">
        <ele>399</ele>
        <time>2018-11-05T10:22:21Z</time>
      </trkpt>
      <trkpt lat="45.81579" lon="1.7619">
        <ele>399</ele>
        <time>2018-11-05T10:23:21Z</time>
      </trkpt>
      <trkpt lat="45.81593" lon="1.76168">
        <ele>399</ele>
        <time>2018-11-05T10:24:21Z</time>
      </trkpt>
      <trkpt lat="45.81601" lon="1.7615">
        <ele>398</ele>
        <time>2018-11-05T10:25:21Z</time>
      </trkpt>
      <trkpt lat="45.81631" lon="1.76027">
        <ele>402</ele>
        <time>2018-11-05T10:26:21Z</time>
      </trkpt>
      <trkpt lat="45.81647" lon="1.75989">
        <ele>405</ele>
        <time>2018-11-05T10:27:21Z</time>
      </trkpt>
      <trkpt lat="45.81689" lon="1.7591">
        <ele>410</ele>
        <time>2018-11-05T10:28:21Z</time>
      </trkpt>
      <trkpt lat="45.81705" lon="1.7587">
        <ele>410</ele>
        <time>2018-11-05T10:29:21Z</time>
      </trkpt>
      <trkpt lat="45.81717" lon="1.75825">
        <ele>410</ele>
        <time>2018-11-05T10:30:21Z</time>
      </trkpt>
      <trkpt lat="45.81721" lon="1.75748">
        <ele>414</ele>
        <time>2018-11-05T10:31:21Z</time>
      </trkpt>
      <trkpt lat="45.81705" lon="1.75286">
        <ele>439</ele>
        <time>2018-11-05T10:32:21Z</time>
      </trkpt>
      <trkpt lat="45.81708" lon="1.75213">
        <ele>441</ele>
        <time>2018-11-05T10:33:21Z</time>
      </trkpt>
      <trkpt lat="45.81722" lon="1.7516">
        <ele>443</ele>
        <time>2018-11-05T10:34:21Z</time>
      </trkpt>
      <trkpt lat="45.81743" lon="1.75113">
        <ele>450</ele>
        <time>2018-11-05T10:35:21Z</time>
      </trkpt>
      <trkpt lat="45.81812" lon="1.75012">
        <ele>450</ele>
        <time>2018-11-05T10:36:21Z</time>
      </trkpt>
      <trkpt lat="45.81836" lon="1.74964">
        <ele>446</ele>
        <time>2018-11-05T10:37:21Z</time>
      </trkpt>
      <trkpt lat="45.81978" lon="1.74487">
        <ele>446</ele>
        <time>2018-11-05T10:38:21Z</time>
      </trkpt>
      <trkpt lat="45.82047" lon="1.74245">
        <ele>443</ele>
        <time>2018-11-05T10:39:21Z</time>
      </trkpt>
      <trkpt lat="45.82127" lon="1.73853">
        <ele>438</ele>
        <time>2018-11-05T10:40:21Z</time>
      </trkpt>
      <trkpt lat="45.82166" lon="1.7367">
        <ele>433</ele>
        <time>2018-11-05T10:41:21Z</time>
      </trkpt>
      <trkpt lat="45.82179" lon="1.73628">
        <ele>433</ele>
        <time>2018-11-05T10:42:21Z</time>
      </trkpt>
      <trkpt lat="45.82201" lon="1.73572">
        <ele>431</ele>
        <time>2018-11-05T10:43:21Z</time>
      </trkpt>
      <trkpt lat="45.82369" lon="1.73328">
        <ele>416</ele>
        <time>2018-11-05T10:44:21Z</time>
      </trkpt>
      <trkpt lat="45.824" lon="1.73291">
        <ele>411</ele>
        <time>2018-11-05T10:45:21Z</time>
      </trkpt>
      <trkpt lat="45.8243" lon="1.73264">
        <ele>410</ele>
        <time>2018-11-05T10:46:21Z</time>
      </trkpt>
      <trkpt lat="45.82464" lon="1.73238">
        <ele>411</ele>
        <time>2018-11-05T10:47:21Z</time>
      </trkpt>
      <trkpt lat="45.82497" lon="1.73224">
        <ele>413</ele>
        <time>2018-11-05T10:48:21Z</time>
      </trkpt>
      <trkpt lat="45.82552" lon="1.7321">
        <ele>413</ele>
        <time>2018-11-05T10:49:21Z</time>
      </trkpt>
      <trkpt lat="45.82662" lon="1.73212">
        <ele>414</ele>
        <time>2018-11-05T10:50:21Z</time>
      </trkpt>
      <trkpt lat="45.82701" lon="1.7321">
        <ele>413</ele>
        <time>2018-11-05T10:51:21Z</time>
      </trkpt>
      <trkpt lat="45.82722" lon="1.73199">
        <ele>412</ele>
        <time>2018-11-05T10:52:21Z</time>
      </trkpt>
      <trkpt lat="45.82743" lon="1.73184">
        <ele>411</ele>
        <time>2018-11-05T10:53:21Z</time>
      </trkpt>
      <trkpt lat="45.8277" lon="1.73159">
        <ele>411</ele>
        <time>2018-11-05T10:54:21Z</time>
      </trkpt>
      <trkpt lat="45.82796" lon="1.73122">
        <ele>412</ele>
        <time>2018-11-05T10:55:21Z</time>
      </trkpt>
      <trkpt lat="45.82841" lon="1.73041">
        <ele>415</ele>
        <time>2018-11-05T10:56:21Z</time>
      </trkpt>
      <trkpt lat="45.82883" lon="1.72962">
        <ele>424</ele>
        <time>2018-11-05T10:57:21Z</time>
      </trkpt>
      <trkpt lat="45.82906" lon="1.72904">
        <ele>427</ele>
        <time>2018-11-05T10:58:21Z</time>
      </trkpt>
      <trkpt lat="45.82915" lon="1.72848">
        <ele>430</ele>
        <time>2018-11-05T10:59:21Z</time>
      </trkpt>
      <trkpt lat="45.82917" lon="1.72821">
        <ele>430</ele>
        <time>2018-11-05T11:00:21Z</time>
      </trkpt>
      <trkpt lat="45.82916" lon="1.72782">
        <ele>431</ele>
        <time>2018-11-05T11:01:21Z</time>
      </trkpt>
      <trkpt lat="45.8291" lon="1.72743">
        <ele>433</ele>
        <time>2018-11-05T11:02:21Z</time>
      </trkpt>
      <trkpt lat="45.82874" lon="1.72643">
        <ele>441</ele>
        <time>2018-11-05T11:03:21Z</time>
      </trkpt>
      <trkpt lat="45.82831" lon="1.72529">
        <ele>444</ele>
        <time>2018-11-05T11:04:21Z</time>
      </trkpt>
      <trkpt lat="45.82824" lon="1.72491">
        <ele>445</ele>
        <time>2018-11-05T11:05:21Z</time>
      </trkpt>
      <trkpt lat="45.82822" lon="1.72461">
        <ele>446</ele>
        <time>2018-11-05T11:06:21Z</time>
      </trkpt>
      <trkpt lat="45.82823" lon="1.72427">
        <ele>447</ele>
        <time>2018-11-05T11:07:21Z</time>
      </trkpt>
      <trkpt lat="45.82831" lon="1.72368">
        <ele>446</ele>
        <time>2018-11-05T11:08:21Z</time>
      </trkpt>
      <trkpt lat="45.82842" lon="1.72332">
        <ele>447</ele>
        <time>2018-11-05T11:09:21Z</time>
      </trkpt>
      <trkpt lat="45.8286" lon="1.72286">
        <ele>447</ele>
        <time>2018-11-05T11:10:21Z</time>
      </trkpt>
      <trkpt lat="45.82985" lon="1.72009">
        <ele>462</ele>
        <time>2018-11-05T11:11:21Z</time>
      </trkpt>
      <trkpt lat="45.82989" lon="1.71989">
        <ele>464</ele>
        <time>2018-11-05T11:12:21Z</time>
      </trkpt>
      <trkpt lat="45.82991" lon="1.71969">
        <ele>465</ele>
        <time>2018-11-05T11:13:21Z</time>
      </trkpt>
      <trkpt lat="45.82989" lon="1.71947">
        <ele>466</ele>
        <time>2018-11-05T11:14:21Z</time>
      </trkpt>
      <trkpt lat="45.82983" lon="1.71927">
        <ele>465</ele>
        <time>2018-11-05T11:15:21Z</time>
      </trkpt>
      <trkpt lat="45.8296" lon="1.71867">
        <ele>465</ele>
        <time>2018-11-05T11:16:21Z</time>
      </trkpt>
      <trkpt lat="45.82924" lon="1.71672">
        <ele>475</ele>
        <time>2018-11-05T11:17:21Z</time>
      </trkpt>
      <trkpt lat="45.82891" lon="1.71478">
        <ele>478</ele>
        <time>2018-11-05T11:18:21Z</time>
      </trkpt>
      <trkpt lat="45.82886" lon="1.71389">
        <ele>481</ele>
        <time>2018-11-05T11:19:21Z</time>
      </trkpt>
      <trkpt lat="45.82887" lon="1.71273">
        <ele>483</ele>
        <time>2018-11-05T11:20:21Z</time>
      </trkpt>
      <trkpt lat="45.82892" lon="1.71221">
        <ele>485</ele>
        <time>2018-11-05T11:21:21Z</time>
      </trkpt>
      <trkpt lat="45.82902" lon="1.71194">
        <ele>486</ele>
        <time>2018-11-05T11:22:21Z</time>
      </trkpt>
      <trkpt lat="45.82917" lon="1.7117">
        <ele>487</ele>
        <time>2018-11-05T11:23:21Z</time>
      </trkpt>
      <trkpt lat="45.82941" lon="1.7114">
        <ele>489</ele>
        <time>2018-11-05T11:24:21Z</time>
      </trkpt>
      <trkpt lat="45.83035" lon="1.71033">
        <ele>492</ele>
        <time>2018-11-05T11:25:21Z</time>
      </trkpt>
      <trkpt lat="45.8313" lon="1.70919">
        <ele>499</ele>
        <time>2018-11-05T11:26:21Z</time>
      </trkpt>
      <trkpt lat="45.83146" lon="1.70889">
        <ele>501</ele>
        <time>2018-11-05T11:27:21Z</time>
      </trkpt>
      <trkpt lat="45.83151" lon="1.70873">
        <ele>502</ele>
        <time>2018-11-05T11:28:21Z</time>
      </trkpt>
      <trkpt lat="45.83168" lon="1.70786">
        <ele>504</ele>
        <time>2018-11-05T11:29:21Z</time>
      </trkpt>
      <trkpt lat="45.83172" lon="1.70749">
        <ele>505</ele>
        <time>2018-11-05T11:30:21Z</time>
      </trkpt>
      <trkpt lat="45.83174" lon="1.70654">
        <ele>502</ele>
        <time>2018-11-05T11:31:21Z</time>
      </trkpt>
      <trkpt lat="45.83173" lon="1.70569">
        <ele>499</ele>
        <time>2018-11-05T11:32:21Z</time>
      </trkpt>
      <trkpt lat="45.83175" lon="1.7055">
        <ele>498</ele>
        <time>2018-11-05T11:33:21Z</time>
      </trkpt>
      <trkpt lat="45.83179" lon="1.70535">
        <ele>497</ele>
        <time>2018-11-05T11:34:21Z</time>
      </trkpt>
      <trkpt lat="45.83191" lon="1.70513">
        <ele>496</ele>
        <time>2018-11-05T11:35:21Z</time>
      </trkpt>
      <trkpt lat="45.832" lon="1.70503">
        <ele>496</ele>
        <time>2018-11-05T11:36:21Z</time>
      </trkpt>
      <trkpt lat="45.83211" lon="1.70494">
        <ele>496</ele>
        <time>2018-11-05T11:37:21Z</time>
      </trkpt>
      <trkpt lat="45.83225" lon="1.70488">
        <ele>496</ele>
        <time>2018-11-05T11:38:21Z</time>
      </trkpt>
      <trkpt lat="45.83358" lon="1.70452">
        <ele>498</ele>
        <time>2018-11-05T11:39:21Z</time>
      </trkpt>
      <trkpt lat="45.83375" lon="1.70451">
        <ele>499</ele>
        <time>2018-11-05T11:40:21Z</time>
      </trkpt>
      <trkpt lat="45.834" lon="1.70455">
        <ele>501</ele>
        <time>2018-11-05T11:41:21Z</time>
      </trkpt>
      <trkpt lat="45.83416" lon="1.70452">
        <ele>502</ele>
        <time>2018-11-05T11:42:21Z</time>
      </trkpt>
      <trkpt lat="45.83423" lon="1.70446">
        <ele>502</ele>
        <time>2018-11-05T11:43:21Z</time>
      </trkpt>
      <trkpt lat="45.83431" lon="1.70426">
        <ele>501</ele>
        <time>2018-11-05T11:44:21Z</time>
      </trkpt>
      <trkpt lat="45.83433" lon="1.70412">
        <ele>500</ele>
        <time>2018-11-05T11:45:21Z</time>
      </trkpt>
      <trkpt lat="45.83434" lon="1.70363">
        <ele>495</ele>
        <time>2018-11-05T11:46:21Z</time>
      </trkpt>
      <trkpt lat="45.83436" lon="1.70347">
        <ele>493</ele>
        <time>2018-11-05T11:47:21Z</time>
      </trkpt>
      <trkpt lat="45.83442" lon="1.70331">
        <ele>492</ele>
        <time>2018-11-05T11:48:21Z</time>
      </trkpt>
      <trkpt lat="45.83451" lon="1.70317">
        <ele>492</ele>
        <time>2018-11-05T11:49:21Z</time>
      </trkpt>
      <trkpt lat="45.83476" lon="1.70286">
        <ele>494</ele>
        <time>2018-11-05T11:50:21Z</time>
      </trkpt>
      <trkpt lat="45.83482" lon="1.70275">
        <ele>494</ele>
        <time>2018-11-05T11:51:21Z</time>
      </trkpt>
      <trkpt lat="45.83487" lon="1.70261">
        <ele>493</ele>
        <time>2018-11-05T11:52:21Z</time>
      </trkpt>
      <trkpt lat="45.8349" lon="1.70248">
        <ele>493</ele>
        <time>2018-11-05T11:53:21Z</time>
      </trkpt>
      <trkpt lat="45.83492" lon="1.7023">
        <ele>493</ele>
        <time>2018-11-05T11:54:21Z</time>
      </trkpt>
      <trkpt lat="45.83471" lon="1.6998">
        <ele>493</ele>
        <time>2018-11-05T11:55:21Z</time>
      </trkpt>
      <trkpt lat="45.83471" lon="1.6998">
        <ele>493</ele>
        <time>2018-11-05T11:56:21Z</time>
      </trkpt>
      <trkpt lat="45.83458" lon="1.69822">
        <ele>488</ele>
        <time>2018-11-05T11:57:21Z</time>
      </trkpt>
      <trkpt lat="45.8346" lon="1.698">
        <ele>488</ele>
        <time>2018-11-05T11:58:21Z</time>
      </trkpt>
      <trkpt lat="45.83473" lon="1.69779">
        <ele>487</ele>
        <time>2018-11-05T11:59:21Z</time>
      </trkpt>
      <trkpt lat="45.83486" lon="1.69768">
        <ele>487</ele>
        <time>2018-11-05T12:00:21Z</time>
      </trkpt>
      <trkpt lat="45.83541" lon="1.69751">
        <ele>488</ele>
        <time>2018-11-05T12:01:21Z</time>
      </trkpt>
      <trkpt lat="45.83556" lon="1.69741">
        <ele>487</ele>
        <time>2018-11-05T12:02:21Z</time>
      </trkpt>
      <trkpt lat="45.83565" lon="1.6973">
        <ele>487</ele>
        <time>2018-11-05T12:03:21Z</time>
      </trkpt>
      <trkpt lat="45.83572" lon="1.69708">
        <ele>485</ele>
        <time>2018-11-05T12:04:21Z</time>
      </trkpt>
      <trkpt lat="45.83573" lon="1.69688">
        <ele>484</ele>
        <time>2018-11-05T12:05:21Z</time>
      </trkpt>
      <trkpt lat="45.83563" lon="1.69576">
        <ele>475</ele>
        <time>2018-11-05T12:06:21Z</time>
      </trkpt>
      <trkpt lat="45.83562" lon="1.6955">
        <ele>473</ele>
        <time>2018-11-05T12:07:21Z</time>
      </trkpt>
      <trkpt lat="45.83566" lon="1.69522">
        <ele>470</ele>
        <time>2018-11-05T12:08:21Z</time>
      </trkpt>
      <trkpt lat="45.83587" lon="1.6946">
        <ele>468</ele>
        <time>2018-11-05T12:09:21Z</time>
      </trkpt>
      <trkpt lat="45.83602" lon="1.69431">
        <ele>467</ele>
        <time>2018-11-05T12:10:21Z</time>
      </trkpt>
      <trkpt lat="45.83617" lon="1.69413">
        <ele>466</ele>
        <time>2018-11-05T12:11:21Z</time>
      </trkpt>
      <trkpt lat="45.83632" lon="1.69404">
        <ele>466</ele>
        <time>2018-11-05T12:12:21Z</time>
      </trkpt>
      <trkpt lat="45.83649" lon="1.694">
        <ele>467</ele>
        <time>2018-11-05T12:13:21Z</time>
      </trkpt>
      <trkpt lat="45.83788" lon="1.69377">
        <ele>459</ele>
        <time>2018-11-05T12:14:21Z</time>
      </trkpt>
      <trkpt lat="45.83807" lon="1.69372">
        <ele>459</ele>
        <time>2018-11-05T12:15:21Z</time>
      </trkpt>
      <trkpt lat="45.83831" lon="1.69356">
        <ele>458</ele>
        <time>2018-11-05T12:16:21Z</time>
      </trkpt>
      <trkpt lat="45.8385" lon="1.69336">
        <ele>458</ele>
        <time>2018-11-05T12:17:21Z</time>
      </trkpt>
      <trkpt lat="45.83865" lon="1.6931">
        <ele>459</ele>
        <time>2018-11-05T12:18:21Z</time>
      </trkpt>
      <trkpt lat="45.83908" lon="1.69257">
        <ele>462</ele>
        <time>2018-11-05T12:19:21Z</time>
      </trkpt>
      <trkpt lat="45.83935" lon="1.69244">
        <ele>464</ele>
        <time>2018-11-05T12:20:21Z</time>
      </trkpt>
      <trkpt lat="45.83971" lon="1.69246">
        <ele>467</ele>
        <time>2018-11-05T12:21:21Z</time>
      </trkpt>
      <trkpt lat="45.84022" lon="1.69259">
        <ele>470</ele>
        <time>2018-11-05T12:22:21Z</time>
      </trkpt>
      <trkpt lat="45.84099" lon="1.69317">
        <ele>477</ele>
        <time>2018-11-05T12:23:21Z</time>
      </trkpt>
      <trkpt lat="45.84123" lon="1.69318">
        <ele>478</ele>
        <time>2018-11-05T12:24:21Z</time>
      </trkpt>
      <trkpt lat="45.8414" lon="1.69302">
        <ele>477</ele>
        <time>2018-11-05T12:25:21Z</time>
      </trkpt>
      <trkpt lat="45.84208" lon="1.69198">
        <ele>477</ele>
        <time>2018-11-05T12:26:21Z</time>
      </trkpt>
      <trkpt lat="45.84221" lon="1.69192">
        <ele>477</ele>
        <time>2018-11-05T12:27:21Z</time>
      </trkpt>
      <trkpt lat="45.84247" lon="1.69199">
        <ele>478</ele>
        <time>2018-11-05T12:28:21Z</time>
      </trkpt>
      <trkpt lat="45.84456" lon="1.69236">
        <ele>471</ele>
        <time>2018-11-05T12:29:21Z</time>
      </trkpt>
      <trkpt lat="45.84479" lon="1.69246">
        <ele>471</ele>
        <time>2018-11-05T12:30:21Z</time>
      </trkpt>
      <trkpt lat="45.84541" lon="1.69262">
        <ele>468</ele>
        <time>2018-11-05T12:31:21Z</time>
      </trkpt>
      <trkpt lat="45.84587" lon="1.69293">
        <ele>468</ele>
        <time>2018-11-05T12:32:21Z</time>
      </trkpt>
      <trkpt lat="45.84615" lon="1.693">
        <ele>466</ele>
        <time>2018-11-05T12:33:21Z</time>
      </trkpt>
      <trkpt lat="45.84647" lon="1.69302">
        <ele>463</ele>
        <time>2018-11-05T12:34:21Z</time>
      </trkpt>
      <trkpt lat="45.84669" lon="1.69317">
        <ele>463</ele>
        <time>2018-11-05T12:35:21Z</time>
      </trkpt>
      <trkpt lat="45.84704" lon="1.69354">
        <ele>466</ele>
        <time>2018-11-05T12:36:21Z</time>
      </trkpt>
      <trkpt lat="45.84719" lon="1.69356">
        <ele>465</ele>
        <time>2018-11-05T12:37:21Z</time>
      </trkpt>
      <trkpt lat="45.84733" lon="1.69345">
        <ele>461</ele>
        <time>2018-11-05T12:38:21Z</time>
      </trkpt>
      <trkpt lat="45.84748" lon="1.6931">
        <ele>456</ele>
        <time>2018-11-05T12:39:21Z</time>
      </trkpt>
      <trkpt lat="45.84757" lon="1.69295">
        <ele>455</ele>
        <time>2018-11-05T12:40:21Z</time>
      </trkpt>
      <trkpt lat="45.84783" lon="1.69274">
        <ele>454</ele>
        <time>2018-11-05T12:41:21Z</time>
      </trkpt>
      <trkpt lat="45.84795" lon="1.6926">
        <ele>454</ele>
        <time>2018-11-05T12:42:21Z</time>
      </trkpt>
      <trkpt lat="45.84804" lon="1.69237">
        <ele>452</ele>
        <time>2018-11-05T12:43:21Z</time>
      </trkpt>
      <trkpt lat="45.84812" lon="1.692">
        <ele>448</ele>
        <time>2018-11-05T12:44:21Z</time>
      </trkpt>
      <trkpt lat="45.84823" lon="1.69177">
        <ele>446</ele>
        <time>2018-11-05T12:45:21Z</time>
      </trkpt>
      <trkpt lat="45.84845" lon="1.69156">
        <ele>444</ele>
        <time>2018-11-05T12:46:21Z</time>
      </trkpt>
      <trkpt lat="45.8487" lon="1.69138">
        <ele>443</ele>
        <time>2018-11-05T12:47:21Z</time>
      </trkpt>
      <trkpt lat="45.84906" lon="1.69125">
        <ele>442</ele>
        <time>2018-11-05T12:48:21Z</time>
      </trkpt>
      <trkpt lat="45.84945" lon="1.69122">
        <ele>439</ele>
        <time>2018-11-05T12:49:21Z</time>
      </trkpt>
      <trkpt lat="45.84971" lon="1.69124">
        <ele>436</ele>
        <time>2018-11-05T12:50:21Z</time>
      </trkpt>
      <trkpt lat="45.84989" lon="1.69132">
        <ele>435</ele>
        <time>2018-11-05T12:51:21Z</time>
      </trkpt>
      <trkpt lat="45.85003" lon="1.69146">
        <ele>435</ele>
        <time>2018-11-05T12:52:21Z</time>
      </trkpt>
      <trkpt lat="45.85012" lon="1.69171">
        <ele>437</ele>
        <time>2018-11-05T12:53:21Z</time>
      </trkpt>
      <trkpt lat="45.85022" lon="1.69227">
        <ele>442</ele>
        <time>2018-11-05T12:54:21Z</time>
      </trkpt>
      <trkpt lat="45.8503" lon="1.69239">
        <ele>443</ele>
        <time>2018-11-05T12:55:21Z</time>
      </trkpt>
      <trkpt lat="45.85046" lon="1.6924">
        <ele>441</ele>
        <time>2018-11-05T12:56:21Z</time>
      </trkpt>
      <trkpt lat="45.85057" lon="1.69235">
        <ele>439</ele>
        <time>2018-11-05T12:57:21Z</time>
      </trkpt>
      <trkpt lat="45.85069" lon="1.6922">
        <ele>437</ele>
        <time>2018-11-05T12:58:21Z</time>
      </trkpt>
      <trkpt lat="45.85075" lon="1.69191">
        <ele>434</ele>
        <time>2018-11-05T12:59:21Z</time>
      </trkpt>
      <trkpt lat="45.85079" lon="1.69162">
        <ele>431</ele>
        <time>2018-11-05T13:00:21Z</time>
      </trkpt>
      <trkpt lat="45.85088" lon="1.69143">
        <ele>428</ele>
        <time>2018-11-05T13:01:21Z</time>
      </trkpt>
      <trkpt lat="45.85091" lon="1.69138">
        <ele>428</ele>
        <time>2018-11-05T13:02:21Z</time>
      </trkpt>
      <trkpt lat="45.85101" lon="1.69128">
        <ele>426</ele>
        <time>2018-11-05T13:03:21Z</time>
      </trkpt>
      <trkpt lat="45.85116" lon="1.69122">
        <ele>425</ele>
        <time>2018-11-05T13:04:21Z</time>
      </trkpt>
      <trkpt lat="45.85127" lon="1.69121">
        <ele>425</ele>
        <time>2018-11-05T13:05:21Z</time>
      </trkpt>
      <trkpt lat="45.85137" lon="1.69124">
        <ele>425</ele>
        <time>2018-11-05T13:06:21Z</time>
      </trkpt>
      <trkpt lat="45.85156" lon="1.69134">
        <ele>426</ele>
        <time>2018-11-05T13:07:21Z</time>
      </trkpt>
      <trkpt lat="45.85174" lon="1.69153">
        <ele>428</ele>
        <time>2018-11-05T13:08:21Z</time>
      </trkpt>
      <trkpt lat="45.85193" lon="1.69165">
        <ele>429</ele>
        <time>2018-11-05T13:09:21Z</time>
      </trkpt>
      <trkpt lat="45.85342" lon="1.69168">
        <ele>422</ele>
        <time>2018-11-05T13:10:21Z</time>
      </trkpt>
      <trkpt lat="45.85352" lon="1.69164">
        <ele>424</ele>
        <time>2018-11-05T13:11:21Z</time>
      </trkpt>
      <trkpt lat="45.85361" lon="1.69159">
        <ele>426</ele>
        <time>2018-11-05T13:12:21Z</time>
      </trkpt>
      <trkpt lat="45.85373" lon="1.69144">
        <ele>429</ele>
        <time>2018-11-05T13:13:21Z</time>
      </trkpt>
      <trkpt lat="45.8538" lon="1.69128">
        <ele>431</ele>
        <time>2018-11-05T13:14:21Z</time>
      </trkpt>
      <trkpt lat="45.85381" lon="1.69101">
        <ele>432</ele>
        <time>2018-11-05T13:15:21Z</time>
      </trkpt>
      <trkpt lat="45.85373" lon="1.69065">
        <ele>434</ele>
        <time>2018-11-05T13:16:21Z</time>
      </trkpt>
      <trkpt lat="45.85359" lon="1.69037">
        <ele>434</ele>
        <time>2018-11-05T13:17:21Z</time>
      </trkpt>
      <trkpt lat="45.85345" lon="1.69023">
        <ele>433</ele>
        <time>2018-11-05T13:18:21Z</time>
      </trkpt>
      <trkpt lat="45.85316" lon="1.69013">
        <ele>430</ele>
        <time>2018-11-05T13:19:21Z</time>
      </trkpt>
      <trkpt lat="45.85298" lon="1.69003">
        <ele>429</ele>
        <time>2018-11-05T13:20:21Z</time>
      </trkpt>
      <trkpt lat="45.85288" lon="1.68988">
        <ele>429</ele>
        <time>2018-11-05T13:21:21Z</time>
      </trkpt>
      <trkpt lat="45.85287" lon="1.6897">
        <ele>428</ele>
        <time>2018-11-05T13:22:21Z</time>
      </trkpt>
      <trkpt lat="45.85292" lon="1.68951">
        <ele>429</ele>
        <time>2018-11-05T13:23:21Z</time>
      </trkpt>
      <trkpt lat="45.85301" lon="1.68937">
        <ele>430</ele>
        <time>2018-11-05T13:24:21Z</time>
      </trkpt>
      <trkpt lat="45.85395" lon="1.68876">
        <ele>441</ele>
        <time>2018-11-05T13:25:21Z</time>
      </trkpt>
      <trkpt lat="45.85405" lon="1.68869">
        <ele>442</ele>
        <time>2018-11-05T13:26:21Z</time>
      </trkpt>
      <trkpt lat="45.8541" lon="1.68862">
        <ele>443</ele>
        <time>2018-11-05T13:27:21Z</time>
      </trkpt>
      <trkpt lat="45.85418" lon="1.68847">
        <ele>443</ele>
        <time>2018-11-05T13:28:21Z</time>
      </trkpt>
      <trkpt lat="45.85419" lon="1.68828">
        <ele>442</ele>
        <time>2018-11-05T13:29:21Z</time>
      </trkpt>
      <trkpt lat="45.85416" lon="1.68802">
        <ele>441</ele>
        <time>2018-11-05T13:30:21Z</time>
      </trkpt>
      <trkpt lat="45.85407" lon="1.6876">
        <ele>438</ele>
        <time>2018-11-05T13:31:21Z</time>
      </trkpt>
      <trkpt lat="45.85407" lon="1.68751">
        <ele>438</ele>
        <time>2018-11-05T13:32:21Z</time>
      </trkpt>
      <trkpt lat="45.8541" lon="1.68746">
        <ele>438</ele>
        <time>2018-11-05T13:33:21Z</time>
      </trkpt>
      <trkpt lat="45.85421" lon="1.68737">
        <ele>439</ele>
        <time>2018-11-05T13:34:21Z</time>
      </trkpt>
      <trkpt lat="45.85431" lon="1.68741">
        <ele>440</ele>
        <time>2018-11-05T13:35:21Z</time>
      </trkpt>
      <trkpt lat="45.85477" lon="1.68795">
        <ele>446</ele>
        <time>2018-11-05T13:36:21Z</time>
      </trkpt>
      <trkpt lat="45.85487" lon="1.68802">
        <ele>448</ele>
        <time>2018-11-05T13:37:21Z</time>
      </trkpt>
      <trkpt lat="45.85505" lon="1.68807">
        <ele>450</ele>
        <time>2018-11-05T13:38:21Z</time>
      </trkpt>
      <trkpt lat="45.85524" lon="1.68804">
        <ele>452</ele>
        <time>2018-11-05T13:39:21Z</time>
      </trkpt>
      <trkpt lat="45.85529" lon="1.68802">
        <ele>452</ele>
        <time>2018-11-05T13:40:21Z</time>
      </trkpt>
      <trkpt lat="45.85541" lon="1.68778">
        <ele>452</ele>
        <time>2018-11-05T13:41:21Z</time>
      </trkpt>
      <trkpt lat="45.85547" lon="1.68754">
        <ele>451</ele>
        <time>2018-11-05T13:42:21Z</time>
      </trkpt>
      <trkpt lat="45.85557" lon="1.68731">
        <ele>452</ele>
        <time>2018-11-05T13:43:21Z</time>
      </trkpt>
      <trkpt lat="45.85571" lon="1.68711">
        <ele>452</ele>
        <time>2018-11-05T13:44:21Z</time>
      </trkpt>
      <trkpt lat="45.85612" lon="1.68661">
        <ele>452</ele>
        <time>2018-11-05T13:45:21Z</time>
      </trkpt>
      <trkpt lat="45.85627" lon="1.6865">
        <ele>452</ele>
        <time>2018-11-05T13:46:21Z</time>
      </trkpt>
      <trkpt lat="45.85643" lon="1.68642">
        <ele>452</ele>
        <time>2018-11-05T13:47:21Z</time>
      </trkpt>
      <trkpt lat="45.8567" lon="1.68637">
        <ele>453</ele>
        <time>2018-11-05T13:48:21Z</time>
      </trkpt>
      <trkpt lat="45.85688" lon="1.6863">
        <ele>454</ele>
        <time>2018-11-05T13:49:21Z</time>
      </trkpt>
      <trkpt lat="45.85693" lon="1.68622">
        <ele>454</ele>
        <time>2018-11-05T13:50:21Z</time>
      </trkpt>
      <trkpt lat="45.8572" lon="1.68569">
        <ele>453</ele>
        <time>2018-11-05T13:51:21Z</time>
      </trkpt>
      <trkpt lat="45.85866" lon="1.68385">
        <ele>447</ele>
        <time>2018-11-05T13:52:21Z</time>
      </trkpt>
      <trkpt lat="45.85892" lon="1.68364">
        <ele>447</ele>
        <time>2018-11-05T13:53:21Z</time>
      </trkpt>
      <trkpt lat="45.85938" lon="1.68354">
        <ele>446</ele>
        <time>2018-11-05T13:54:21Z</time>
      </trkpt>
      <trkpt lat="45.85978" lon="1.68325">
        <ele>445</ele>
        <time>2018-11-05T13:55:21Z</time>
      </trkpt>
      <trkpt lat="45.85978" lon="1.68325">
        <ele>445</ele>
        <time>2018-11-05T13:56:21Z</time>
      </trkpt>
      <trkpt lat="45.86007" lon="1.68305">
        <ele>443</ele>
        <time>2018-11-05T13:57:21Z</time>
      </trkpt>
      <trkpt lat="45.8602" lon="1.683">
        <ele>441</ele>
        <time>2018-11-05T13:58:21Z</time>
      </trkpt>
      <trkpt lat="45.86037" lon="1.68299">
        <ele>440</ele>
        <time>2018-11-05T13:59:21Z</time>
      </trkpt>
      <trkpt lat="45.8606" lon="1.6831">
        <ele>440</ele>
        <time>2018-11-05T14:00:21Z</time>
      </trkpt>
      <trkpt lat="45.86088" lon="1.68348">
        <ele>442</ele>
        <time>2018-11-05T14:01:21Z</time>
      </trkpt>
      <trkpt lat="45.86107" lon="1.68357">
        <ele>441</ele>
        <time>2018-11-05T14:02:21Z</time>
      </trkpt>
      <trkpt lat="45.86126" lon="1.68352">
        <ele>440</ele>
        <time>2018-11-05T14:03:21Z</time>
      </trkpt>
      <trkpt lat="45.86138" lon="1.68332">
        <ele>439</ele>
        <time>2018-11-05T14:04:21Z</time>
      </trkpt>
      <trkpt lat="45.86144" lon="1.68308">
        <ele>437</ele>
        <time>2018-11-05T14:05:21Z</time>
      </trkpt>
      <trkpt lat="45.86141" lon="1.68282">
        <ele>435</ele>
        <time>2018-11-05T14:06:21Z</time>
      </trkpt>
      <trkpt lat="45.8614" lon="1.68253">
        <ele>433</ele>
        <time>2018-11-05T14:07:21Z</time>
      </trkpt>
      <trkpt lat="45.86149" lon="1.68233">
        <ele>431</ele>
        <time>2018-11-05T14:08:21Z</time>
      </trkpt>
      <trkpt lat="45.86272" lon="1.68088">
        <ele>420</ele>
        <time>2018-11-05T14:09:21Z</time>
      </trkpt>
      <trkpt lat="45.86298" lon="1.68076">
        <ele>419</ele>
        <time>2018-11-05T14:10:21Z</time>
      </trkpt>
      <trkpt lat="45.86346" lon="1.68087">
        <ele>420</ele>
        <time>2018-11-05T14:11:21Z</time>
      </trkpt>
      <trkpt lat="45.86358" lon="1.68087">
        <ele>420</ele>
        <time>2018-11-05T14:12:21Z</time>
      </trkpt>
      <trkpt lat="45.86374" lon="1.68082">
        <ele>420</ele>
        <time>2018-11-05T14:13:21Z</time>
      </trkpt>
      <trkpt lat="45.8638" lon="1.68076">
        <ele>420</ele>
        <time>2018-11-05T14:14:21Z</time>
      </trkpt>
      <trkpt lat="45.8642" lon="1.68018">
        <ele>421</ele>
        <time>2018-11-05T14:15:21Z</time>
      </trkpt>
      <trkpt lat="45.86475" lon="1.67915">
        <ele>415</ele>
        <time>2018-11-05T14:16:21Z</time>
      </trkpt>
      <trkpt lat="45.86491" lon="1.67869">
        <ele>414</ele>
        <time>2018-11-05T14:17:21Z</time>
      </trkpt>
      <trkpt lat="45.86499" lon="1.67729">
        <ele>418</ele>
        <time>2018-11-05T14:18:21Z</time>
      </trkpt>
      <trkpt lat="45.86506" lon="1.67652">
        <ele>422</ele>
        <time>2018-11-05T14:19:21Z</time>
      </trkpt>
      <trkpt lat="45.86523" lon="1.67592">
        <ele>425</ele>
        <time>2018-11-05T14:20:21Z</time>
      </trkpt>
      <trkpt lat="45.86547" lon="1.67537">
        <ele>427</ele>
        <time>2018-11-05T14:21:21Z</time>
      </trkpt>
      <trkpt lat="45.86595" lon="1.67474">
        <ele>430</ele>
        <time>2018-11-05T14:22:21Z</time>
      </trkpt>
      <trkpt lat="45.86606" lon="1.67451">
        <ele>431</ele>
        <time>2018-11-05T14:23:21Z</time>
      </trkpt>
      <trkpt lat="45.86628" lon="1.67262">
        <ele>437</ele>
        <time>2018-11-05T14:24:21Z</time>
      </trkpt>
      <trkpt lat="45.86646" lon="1.67199">
        <ele>440</ele>
        <time>2018-11-05T14:25:21Z</time>
      </trkpt>
      <trkpt lat="45.86647" lon="1.6718">
        <ele>441</ele>
        <time>2018-11-05T14:26:21Z</time>
      </trkpt>
      <trkpt lat="45.86645" lon="1.67145">
        <ele>443</ele>
        <time>2018-11-05T14:27:21Z</time>
      </trkpt>
      <trkpt lat="45.8665" lon="1.67122">
        <ele>444</ele>
        <time>2018-11-05T14:28:21Z</time>
      </trkpt>
      <trkpt lat="45.86792" lon="1.66931">
        <ele>447</ele>
        <time>2018-11-05T14:29:21Z</time>
      </trkpt>
      <trkpt lat="45.86828" lon="1.66918">
        <ele>447</ele>
        <time>2018-11-05T14:30:21Z</time>
      </trkpt>
      <trkpt lat="45.86846" lon="1.6692">
        <ele>447</ele>
        <time>2018-11-05T14:31:21Z</time>
      </trkpt>
      <trkpt lat="45.86894" lon="1.66948">
        <ele>446</ele>
        <time>2018-11-05T14:32:21Z</time>
      </trkpt>
      <trkpt lat="45.86925" lon="1.66972">
        <ele>446</ele>
        <time>2018-11-05T14:33:21Z</time>
      </trkpt>
      <trkpt lat="45.87012" lon="1.67013">
        <ele>440</ele>
        <time>2018-11-05T14:34:21Z</time>
      </trkpt>
      <trkpt lat="45.87032" lon="1.67009">
        <ele>440</ele>
        <time>2018-11-05T14:35:21Z</time>
      </trkpt>
      <trkpt lat="45.87047" lon="1.66991">
        <ele>441</ele>
        <time>2018-11-05T14:36:21Z</time>
      </trkpt>
      <trkpt lat="45.87059" lon="1.66971">
        <ele>442</ele>
        <time>2018-11-05T14:37:21Z</time>
      </trkpt>
      <trkpt lat="45.87076" lon="1.66933">
        <ele>443</ele>
        <time>2018-11-05T14:38:21Z</time>
      </trkpt>
      <trkpt lat="45.87118" lon="1.66781">
        <ele>446</ele>
        <time>2018-11-05T14:39:21Z</time>
      </trkpt>
      <trkpt lat="45.87135" lon="1.66753">
        <ele>446</ele>
        <time>2018-11-05T14:40:21Z</time>
      </trkpt>
      <trkpt lat="45.87155" lon="1.66742">
        <ele>446</ele>
        <time>2018-11-05T14:41:21Z</time>
      </trkpt>
      <trkpt lat="45.87274" lon="1.66735">
        <ele>444</ele>
        <time>2018-11-05T14:42:21Z</time>
      </trkpt>
      <trkpt lat="45.87323" lon="1.66748">
        <ele>439</ele>
        <time>2018-11-05T14:43:21Z</time>
      </trkpt>
      <trkpt lat="45.87347" lon="1.66773">
        <ele>440</ele>
        <time>2018-11-05T14:44:21Z</time>
      </trkpt>
      <trkpt lat="45.87369" lon="1.66818">
        <ele>443</ele>
        <time>2018-11-05T14:45:21Z</time>
      </trkpt>
      <trkpt lat="45.87388" lon="1.6685">
        <ele>444</ele>
        <time>2018-11-05T14:46:21Z</time>
      </trkpt>
      <trkpt lat="45.87408" lon="1.6686">
        <ele>443</ele>
        <time>2018-11-05T14:47:21Z</time>
      </trkpt>
      <trkpt lat="45.87522" lon="1.66865">
        <ele>444</ele>
        <time>2018-11-05T14:48:21Z</time>
      </trkpt>
      <trkpt lat="45.87552" lon="1.6687">
        <ele>443</ele>
        <time>2018-11-05T14:49:21Z</time>
      </trkpt>
      <trkpt lat="45.87626" lon="1.66898">
        <ele>444</ele>
        <time>2018-11-05T14:50:21Z</time>
      </trkpt>
      <trkpt lat="45.87655" lon="1.66896">
        <ele>444</ele>
        <time>2018-11-05T14:51:21Z</time>
      </trkpt>
      <trkpt lat="45.88042" lon="1.66808">
        <ele>468</ele>
        <time>2018-11-05T14:52:21Z</time>
      </trkpt>
      <trkpt lat="45.8806" lon="1.668">
        <ele>470</ele>
        <time>2018-11-05T14:53:21Z</time>
      </trkpt>
      <trkpt lat="45.88075" lon="1.66788">
        <ele>471</ele>
        <time>2018-11-05T14:54:21Z</time>
      </trkpt>
      <trkpt lat="45.88089" lon="1.66771">
        <ele>473</ele>
        <time>2018-11-05T14:55:21Z</time>
      </trkpt>
      <trkpt lat="45.88101" lon="1.66745">
        <ele>474</ele>
        <time>2018-11-05T14:56:21Z</time>
      </trkpt>
      <trkpt lat="45.88108" lon="1.66717">
        <ele>476</ele>
        <time>2018-11-05T14:57:21Z</time>
      </trkpt>
      <trkpt lat="45.8811" lon="1.66672">
        <ele>475</ele>
        <time>2018-11-05T14:58:21Z</time>
      </trkpt>
      <trkpt lat="45.88093" lon="1.66601">
        <ele>472</ele>
        <time>2018-11-05T14:59:21Z</time>
      </trkpt>
      <trkpt lat="45.88088" lon="1.66547">
        <ele>470</ele>
        <time>2018-11-05T15:00:21Z</time>
      </trkpt>
      <trkpt lat="45.88098" lon="1.66505">
        <ele>470</ele>
        <time>2018-11-05T15:01:21Z</time>
      </trkpt>
      <trkpt lat="45.88108" lon="1.66484">
        <ele>471</ele>
        <time>2018-11-05T15:02:21Z</time>
      </trkpt>
      <trkpt lat="45.88119" lon="1.66469">
        <ele>472</ele>
        <time>2018-11-05T15:03:21Z</time>
      </trkpt>
      <trkpt lat="45.88199" lon="1.66404">
        <ele>480</ele>
        <time>2018-11-05T15:04:21Z</time>
      </trkpt>
      <trkpt lat="45.88212" lon="1.66391">
        <ele>482</ele>
        <time>2018-11-05T15:05:21Z</time>
      </trkpt>
      <trkpt lat="45.8822" lon="1.66376">
        <ele>483</ele>
        <time>2018-11-05T15:06:21Z</time>
      </trkpt>
      <trkpt lat="45.88227" lon="1.66353">
        <ele>483</ele>
        <time>2018-11-05T15:07:21Z</time>
      </trkpt>
      <trkpt lat="45.88237" lon="1.66306">
        <ele>481</ele>
        <time>2018-11-05T15:08:21Z</time>
      </trkpt>
      <trkpt lat="45.88245" lon="1.66298">
        <ele>481</ele>
        <time>2018-11-05T15:09:21Z</time>
      </trkpt>
      <trkpt lat="45.88252" lon="1.66296">
        <ele>482</ele>
        <time>2018-11-05T15:10:21Z</time>
      </trkpt>
      <trkpt lat="45.88265" lon="1.66296">
        <ele>482</ele>
        <time>2018-11-05T15:11:21Z</time>
      </trkpt>
      <trkpt lat="45.88278" lon="1.66304">
        <ele>483</ele>
        <time>2018-11-05T15:12:21Z</time>
      </trkpt>
      <trkpt lat="45.8829" lon="1.66315">
        <ele>485</ele>
        <time>2018-11-05T15:13:21Z</time>
      </trkpt>
      <trkpt lat="45.88297" lon="1.6633">
        <ele>486</ele>
        <time>2018-11-05T15:14:21Z</time>
      </trkpt>
      <trkpt lat="45.88306" lon="1.66354">
        <ele>489</ele>
        <time>2018-11-05T15:15:21Z</time>
      </trkpt>
      <trkpt lat="45.88317" lon="1.66367">
        <ele>491</ele>
        <time>2018-11-05T15:16:21Z</time>
      </trkpt>
      <trkpt lat="45.88329" lon="1.66373">
        <ele>493</ele>
        <time>2018-11-05T15:17:21Z</time>
      </trkpt>
      <trkpt lat="45.88339" lon="1.66374">
        <ele>494</ele>
        <time>2018-11-05T15:18:21Z</time>
      </trkpt>
      <trkpt lat="45.8835" lon="1.66372">
        <ele>494</ele>
        <time>2018-11-05T15:19:21Z</time>
      </trkpt>
      <trkpt lat="45.88361" lon="1.66365">
        <ele>494</ele>
        <time>2018-11-05T15:20:21Z</time>
      </trkpt>
      <trkpt lat="45.88372" lon="1.66353">
        <ele>493</ele>
        <time>2018-11-05T15:21:21Z</time>
      </trkpt>
      <trkpt lat="45.8838" lon="1.6634">
        <ele>491</ele>
        <time>2018-11-05T15:22:21Z</time>
      </trkpt>
      <trkpt lat="45.88386" lon="1.66322">
        <ele>491</ele>
        <time>2018-11-05T15:23:21Z</time>
      </trkpt>
      <trkpt lat="45.88391" lon="1.66296">
        <ele>491</ele>
        <time>2018-11-05T15:24:21Z</time>
      </trkpt>
      <trkpt lat="45.88391" lon="1.66271">
        <ele>490</ele>
        <time>2018-11-05T15:25:21Z</time>
      </trkpt>
      <trkpt lat="45.88389" lon="1.66248">
        <ele>490</ele>
        <time>2018-11-05T15:26:21Z</time>
      </trkpt>
      <trkpt lat="45.88381" lon="1.66225">
        <ele>491</ele>
        <time>2018-11-05T15:27:21Z</time>
      </trkpt>
      <trkpt lat="45.88372" lon="1.66206">
        <ele>492</ele>
        <time>2018-11-05T15:28:21Z</time>
      </trkpt>
      <trkpt lat="45.88352" lon="1.66178">
        <ele>491</ele>
        <time>2018-11-05T15:29:21Z</time>
      </trkpt>
      <trkpt lat="45.8833" lon="1.66127">
        <ele>491</ele>
        <time>2018-11-05T15:30:21Z</time>
      </trkpt>
      <trkpt lat="45.88324" lon="1.66084">
        <ele>494</ele>
        <time>2018-11-05T15:31:21Z</time>
      </trkpt>
      <trkpt lat="45.88333" lon="1.65999">
        <ele>499</ele>
        <time>2018-11-05T15:32:21Z</time>
      </trkpt>
      <trkpt lat="45.88329" lon="1.65959">
        <ele>499</ele>
        <time>2018-11-05T15:33:21Z</time>
      </trkpt>
      <trkpt lat="45.88314" lon="1.65899">
        <ele>497</ele>
        <time>2018-11-05T15:34:21Z</time>
      </trkpt>
      <trkpt lat="45.88311" lon="1.65872">
        <ele>496</ele>
        <time>2018-11-05T15:35:21Z</time>
      </trkpt>
      <trkpt lat="45.88312" lon="1.65848">
        <ele>495</ele>
        <time>2018-11-05T15:36:21Z</time>
      </trkpt>
      <trkpt lat="45.88316" lon="1.65825">
        <ele>495</ele>
        <time>2018-11-05T15:37:21Z</time>
      </trkpt>
      <trkpt lat="45.88322" lon="1.658">
        <ele>494</ele>
        <time>2018-11-05T15:38:21Z</time>
      </trkpt>
      <trkpt lat="45.88338" lon="1.65757">
        <ele>494</ele>
        <time>2018-11-05T15:39:21Z</time>
      </trkpt>
      <trkpt lat="45.88363" lon="1.65726">
        <ele>497</ele>
        <time>2018-11-05T15:40:21Z</time>
      </trkpt>
      <trkpt lat="45.88373" lon="1.65712">
        <ele>499</ele>
        <time>2018-11-05T15:41:21Z</time>
      </trkpt>
      <trkpt lat="45.88378" lon="1.65696">
        <ele>499</ele>
        <time>2018-11-05T15:42:21Z</time>
      </trkpt>
      <trkpt lat="45.88381" lon="1.65676">
        <ele>498</ele>
        <time>2018-11-05T15:43:21Z</time>
      </trkpt>
      <trkpt lat="45.88381" lon="1.65652">
        <ele>496</ele>
        <time>2018-11-05T15:44:21Z</time>
      </trkpt>
      <trkpt lat="45.88386" lon="1.65619">
        <ele>494</ele>
        <time>2018-11-05T15:45:21Z</time>
      </trkpt>
      <trkpt lat="45.88401" lon="1.6559">
        <ele>494</ele>
        <time>2018-11-05T15:46:21Z</time>
      </trkpt>
      <trkpt lat="45.88438" lon="1.65531">
        <ele>494</ele>
        <time>2018-11-05T15:47:21Z</time>
      </trkpt>
      <trkpt lat="45.88451" lon="1.65515">
        <ele>495</ele>
        <time>2018-11-05T15:48:21Z</time>
      </trkpt>
      <trkpt lat="45.88464" lon="1.65507">
        <ele>496</ele>
        <time>2018-11-05T15:49:21Z</time>
      </trkpt>
      <trkpt lat="45.88478" lon="1.65506">
        <ele>499</ele>
        <time>2018-11-05T15:50:21Z</time>
      </trkpt>
      <trkpt lat="45.8849" lon="1.655">
        <ele>500</ele>
        <time>2018-11-05T15:51:21Z</time>
      </trkpt>
      <trkpt lat="45.88498" lon="1.65492">
        <ele>501</ele>
        <time>2018-11-05T15:52:21Z</time>
      </trkpt>
      <trkpt lat="45.88508" lon="1.65466">
        <ele>501</ele>
        <time>2018-11-05T15:53:21Z</time>
      </trkpt>
      <trkpt lat="45.88516" lon="1.6543">
        <ele>500</ele>
        <time>2018-11-05T15:54:21Z</time>
      </trkpt>
      <trkpt lat="45.88524" lon="1.65405">
        <ele>500</ele>
        <time>2018-11-05T15:55:21Z</time>
      </trkpt>
      <trkpt lat="45.88534" lon="1.65383">
        <ele>499</ele>
        <time>2018-11-05T15:56:21Z</time>
      </trkpt>
      <trkpt lat="45.88553" lon="1.65358">
        <ele>500</ele>
        <time>2018-11-05T15:57:21Z</time>
      </trkpt>
      <trkpt lat="45.88572" lon="1.65339">
        <ele>502</ele>
        <time>2018-11-05T15:58:21Z</time>
      </trkpt>
      <trkpt lat="45.88624" lon="1.65313">
        <ele>510</ele>
        <time>2018-11-05T15:59:21Z</time>
      </trkpt>
      <trkpt lat="45.88678" lon="1.65221">
        <ele>508</ele>
        <time>2018-11-05T16:00:21Z</time>
      </trkpt>
      <trkpt lat="45.88717" lon="1.6514">
        <ele>505</ele>
        <time>2018-11-05T16:01:21Z</time>
      </trkpt>
      <trkpt lat="45.88726" lon="1.65063">
        <ele>502</ele>
        <time>2018-11-05T16:02:21Z</time>
      </trkpt>
      <trkpt lat="45.88759" lon="1.64929">
        <ele>501</ele>
        <time>2018-11-05T16:03:21Z</time>
      </trkpt>
      <trkpt lat="45.88782" lon="1.6482">
        <ele>501</ele>
        <time>2018-11-05T16:04:21Z</time>
      </trkpt>
      <trkpt lat="45.88801" lon="1.64713">
        <ele>495</ele>
        <time>2018-11-05T16:05:21Z</time>
      </trkpt>
      <trkpt lat="45.88815" lon="1.64667">
        <ele>491</ele>
        <time>2018-11-05T16:06:21Z</time>
      </trkpt>
      <trkpt lat="45.88828" lon="1.64632">
        <ele>487</ele>
        <time>2018-11-05T16:07:21Z</time>
      </trkpt>
      <trkpt lat="45.88842" lon="1.64574">
        <ele>484</ele>
        <time>2018-11-05T16:08:21Z</time>
      </trkpt>
      <trkpt lat="45.88848" lon="1.64562">
        <ele>484</ele>
        <time>2018-11-05T16:09:21Z</time>
      </trkpt>
      <trkpt lat="45.88856" lon="1.64552">
        <ele>484</ele>
        <time>2018-11-05T16:10:21Z</time>
      </trkpt>
      <trkpt lat="45.88869" lon="1.64542">
        <ele>483</ele>
        <time>2018-11-05T16:11:21Z</time>
      </trkpt>
      <trkpt lat="45.88882" lon="1.64535">
        <ele>483</ele>
        <time>2018-11-05T16:12:21Z</time>
      </trkpt>
      <trkpt lat="45.88891" lon="1.64525">
        <ele>483</ele>
        <time>2018-11-05T16:13:21Z</time>
      </trkpt>
      <trkpt lat="45.88899" lon="1.64511">
        <ele>483</ele>
        <time>2018-11-05T16:14:21Z</time>
      </trkpt>
      <trkpt lat="45.8891" lon="1.64476">
        <ele>481</ele>
        <time>2018-11-05T16:15:21Z</time>
      </trkpt>
      <trkpt lat="45.88928" lon="1.64432">
        <ele>479</ele>
        <time>2018-11-05T16:16:21Z</time>
      </trkpt>
      <trkpt lat="45.88931" lon="1.64415">
        <ele>478</ele>
        <time>2018-11-05T16:17:21Z</time>
      </trkpt>
      <trkpt lat="45.8893" lon="1.64394">
        <ele>476</ele>
        <time>2018-11-05T16:18:21Z</time>
      </trkpt>
      <trkpt lat="45.88922" lon="1.64365">
        <ele>474</ele>
        <time>2018-11-05T16:19:21Z</time>
      </trkpt>
      <trkpt lat="45.88911" lon="1.64336">
        <ele>473</ele>
        <time>2018-11-05T16:20:21Z</time>
      </trkpt>
      <trkpt lat="45.88904" lon="1.64306">
        <ele>475</ele>
        <time>2018-11-05T16:21:21Z</time>
      </trkpt>
      <trkpt lat="45.88905" lon="1.64293">
        <ele>476</ele>
        <time>2018-11-05T16:22:21Z</time>
      </trkpt>
      <trkpt lat="45.8891" lon="1.64281">
        <ele>477</ele>
        <time>2018-11-05T16:23:21Z</time>
      </trkpt>
      <trkpt lat="45.88918" lon="1.64273">
        <ele>477</ele>
        <time>2018-11-05T16:24:21Z</time>
      </trkpt>
      <trkpt lat="45.88933" lon="1.64266">
        <ele>478</ele>
        <time>2018-11-05T16:25:21Z</time>
      </trkpt>
      <trkpt lat="45.88952" lon="1.64264">
        <ele>479</ele>
        <time>2018-11-05T16:26:21Z</time>
      </trkpt>
      <trkpt lat="45.88969" lon="1.64267">
        <ele>479</ele>
        <time>2018-11-05T16:27:21Z</time>
      </trkpt>
      <trkpt lat="45.88981" lon="1.64264">
        <ele>480</ele>
        <time>2018-11-05T16:28:21Z</time>
      </trkpt>
      <trkpt lat="45.88995" lon="1.64253">
        <ele>481</ele>
        <time>2018-11-05T16:29:21Z</time>
      </trkpt>
      <trkpt lat="45.89058" lon="1.64193">
        <ele>476</ele>
        <time>2018-11-05T16:30:21Z</time>
      </trkpt>
      <trkpt lat="45.89065" lon="1.6418">
        <ele>475</ele>
        <time>2018-11-05T16:31:21Z</time>
      </trkpt>
      <trkpt lat="45.8907" lon="1.64167">
        <ele>474</ele>
        <time>2018-11-05T16:32:21Z</time>
      </trkpt>
      <trkpt lat="45.89064" lon="1.64116">
        <ele>477</ele>
        <time>2018-11-05T16:33:21Z</time>
      </trkpt>
      <trkpt lat="45.89065" lon="1.64095">
        <ele>477</ele>
        <time>2018-11-05T16:34:21Z</time>
      </trkpt>
      <trkpt lat="45.89072" lon="1.64078">
        <ele>478</ele>
        <time>2018-11-05T16:35:21Z</time>
      </trkpt>
      <trkpt lat="45.89097" lon="1.64065">
        <ele>478</ele>
        <time>2018-11-05T16:36:21Z</time>
      </trkpt>
      <trkpt lat="45.89145" lon="1.64062">
        <ele>476</ele>
        <time>2018-11-05T16:37:21Z</time>
      </trkpt>
      <trkpt lat="45.89175" lon="1.64055">
        <ele>474</ele>
        <time>2018-11-05T16:38:21Z</time>
      </trkpt>
      <trkpt lat="45.89187" lon="1.64045">
        <ele>474</ele>
        <time>2018-11-05T16:39:21Z</time>
      </trkpt>
      <trkpt lat="45.89193" lon="1.64034">
        <ele>475</ele>
        <time>2018-11-05T16:40:21Z</time>
      </trkpt>
      <trkpt lat="45.89196" lon="1.64014">
        <ele>477</ele>
        <time>2018-11-05T16:41:21Z</time>
      </trkpt>
      <trkpt lat="45.89196" lon="1.63994">
        <ele>480</ele>
        <time>2018-11-05T16:42:21Z</time>
      </trkpt>
      <trkpt lat="45.89202" lon="1.6398">
        <ele>480</ele>
        <time>2018-11-05T16:43:21Z</time>
      </trkpt>
      <trkpt lat="45.89216" lon="1.63969">
        <ele>479</ele>
        <time>2018-11-05T16:44:21Z</time>
      </trkpt>
      <trkpt lat="45.89232" lon="1.6396">
        <ele>477</ele>
        <time>2018-11-05T16:45:21Z</time>
      </trkpt>
      <trkpt lat="45.89247" lon="1.63929">
        <ele>477</ele>
        <time>2018-11-05T16:46:21Z</time>
      </trkpt>
      <trkpt lat="45.89343" lon="1.63851">
        <ele>476</ele>
        <time>2018-11-05T16:47:21Z</time>
      </trkpt>
      <trkpt lat="45.89352" lon="1.63844">
        <ele>477</ele>
        <time>2018-11-05T16:48:21Z</time>
      </trkpt>
      <trkpt lat="45.89369" lon="1.63844">
        <ele>476</ele>
        <time>2018-11-05T16:49:21Z</time>
      </trkpt>
      <trkpt lat="45.89413" lon="1.63883">
        <ele>470</ele>
        <time>2018-11-05T16:50:21Z</time>
      </trkpt>
      <trkpt lat="45.89434" lon="1.63887">
        <ele>467</ele>
        <time>2018-11-05T16:51:21Z</time>
      </trkpt>
      <trkpt lat="45.89455" lon="1.63882">
        <ele>466</ele>
        <time>2018-11-05T16:52:21Z</time>
      </trkpt>
      <trkpt lat="45.89469" lon="1.6387">
        <ele>465</ele>
        <time>2018-11-05T16:53:21Z</time>
      </trkpt>
      <trkpt lat="45.89482" lon="1.63847">
        <ele>467</ele>
        <time>2018-11-05T16:54:21Z</time>
      </trkpt>
      <trkpt lat="45.89494" lon="1.63786">
        <ele>467</ele>
        <time>2018-11-05T16:55:21Z</time>
      </trkpt>
      <trkpt lat="45.89493" lon="1.63734">
        <ele>468</ele>
        <time>2018-11-05T16:56:21Z</time>
      </trkpt>
      <trkpt lat="45.89483" lon="1.63687">
        <ele>471</ele>
        <time>2018-11-05T16:57:21Z</time>
      </trkpt>
      <trkpt lat="45.89482" lon="1.63657">
        <ele>472</ele>
        <time>2018-11-05T16:58:21Z</time>
      </trkpt>
      <trkpt lat="45.89497" lon="1.63602">
        <ele>471</ele>
        <time>2018-11-05T16:59:21Z</time>
      </trkpt>
      <trkpt lat="45.89498" lon="1.63574">
        <ele>471</ele>
        <time>2018-11-05T17:00:21Z</time>
      </trkpt>
      <trkpt lat="45.89493" lon="1.63549">
        <ele>471</ele>
        <time>2018-11-05T17:01:21Z</time>
      </trkpt>
      <trkpt lat="45.89492" lon="1.63523">
        <ele>471</ele>
        <time>2018-11-05T17:02:21Z</time>
      </trkpt>
      <trkpt lat="45.89498" lon="1.63497">
        <ele>469</ele>
        <time>2018-11-05T17:03:21Z</time>
      </trkpt>
      <trkpt lat="45.89517" lon="1.63457">
        <ele>468</ele>
        <time>2018-11-05T17:04:21Z</time>
      </trkpt>
      <trkpt lat="45.89567" lon="1.63392">
        <ele>467</ele>
        <time>2018-11-05T17:05:21Z</time>
      </trkpt>
      <trkpt lat="45.89575" lon="1.63371">
        <ele>466</ele>
        <time>2018-11-05T17:06:21Z</time>
      </trkpt>
      <trkpt lat="45.89591" lon="1.63236">
        <ele>465</ele>
        <time>2018-11-05T17:07:21Z</time>
      </trkpt>
      <trkpt lat="45.89602" lon="1.63199">
        <ele>464</ele>
        <time>2018-11-05T17:08:21Z</time>
      </trkpt>
      <trkpt lat="45.89608" lon="1.63186">
        <ele>463</ele>
        <time>2018-11-05T17:09:21Z</time>
      </trkpt>
      <trkpt lat="45.89625" lon="1.63161">
        <ele>461</ele>
        <time>2018-11-05T17:10:21Z</time>
      </trkpt>
      <trkpt lat="45.89685" lon="1.63109">
        <ele>461</ele>
        <time>2018-11-05T17:11:21Z</time>
      </trkpt>
      <trkpt lat="45.89726" lon="1.63068">
        <ele>457</ele>
        <time>2018-11-05T17:12:21Z</time>
      </trkpt>
      <trkpt lat="45.89812" lon="1.62883">
        <ele>445</ele>
        <time>2018-11-05T17:13:21Z</time>
      </trkpt>
      <trkpt lat="45.89829" lon="1.6286">
        <ele>443</ele>
        <time>2018-11-05T17:14:21Z</time>
      </trkpt>
      <trkpt lat="45.89863" lon="1.62841">
        <ele>439</ele>
        <time>2018-11-05T17:15:21Z</time>
      </trkpt>
      <trkpt lat="45.89915" lon="1.62826">
        <ele>434</ele>
        <time>2018-11-05T17:16:21Z</time>
      </trkpt>
      <trkpt lat="45.89982" lon="1.62811">
        <ele>429</ele>
        <time>2018-11-05T17:17:21Z</time>
      </trkpt>
      <trkpt lat="45.90009" lon="1.628">
        <ele>428</ele>
        <time>2018-11-05T17:18:21Z</time>
      </trkpt>
      <trkpt lat="45.90032" lon="1.62783">
        <ele>428</ele>
        <time>2018-11-05T17:19:21Z</time>
      </trkpt>
      <trkpt lat="45.90283" lon="1.62617">
        <ele>430</ele>
        <time>2018-11-05T17:20:21Z</time>
      </trkpt>
      <trkpt lat="45.90415" lon="1.6252">
        <ele>433</ele>
        <time>2018-11-05T17:21:21Z</time>
      </trkpt>
      <trkpt lat="45.90458" lon="1.62466">
        <ele>429</ele>
        <time>2018-11-05T17:22:21Z</time>
      </trkpt>
      <trkpt lat="45.90492" lon="1.62411">
        <ele>426</ele>
        <time>2018-11-05T17:23:21Z</time>
      </trkpt>
      <trkpt lat="45.90605" lon="1.62195">
        <ele>418</ele>
        <time>2018-11-05T17:24:21Z</time>
      </trkpt>
      <trkpt lat="45.90605" lon="1.62195">
        <ele>418</ele>
        <time>2018-11-05T17:25:21Z</time>
      </trkpt>
      <trkpt lat="45.90684" lon="1.62045">
        <ele>410</ele>
        <time>2018-11-05T17:26:21Z</time>
      </trkpt>
      <trkpt lat="45.90734" lon="1.61934">
        <ele>406</ele>
        <time>2018-11-05T17:27:21Z</time>
      </trkpt>
      <trkpt lat="45.90777" lon="1.61776">
        <ele>403</ele>
        <time>2018-11-05T17:28:21Z</time>
      </trkpt>
      <trkpt lat="45.90787" lon="1.6173">
        <ele>402</ele>
        <time>2018-11-05T17:29:21Z</time>
      </trkpt>
      <trkpt lat="45.90805" lon="1.61635">
        <ele>401</ele>
        <time>2018-11-05T17:30:21Z</time>
      </trkpt>
      <trkpt lat="45.90809" lon="1.61605">
        <ele>401</ele>
        <time>2018-11-05T17:31:21Z</time>
      </trkpt>
      <trkpt lat="45.90733" lon="1.61126">
        <ele>416</ele>
        <time>2018-11-05T17:32:21Z</time>
      </trkpt>
      <trkpt lat="45.90631" lon="1.60924">
        <ele>420</ele>
        <time>2018-11-05T17:33:21Z</time>
      </trkpt>
      <trkpt lat="45.9062" lon="1.60894">
        <ele>421</ele>
        <time>2018-11-05T17:34:21Z</time>
      </trkpt>
      <trkpt lat="45.90621" lon="1.60859">
        <ele>422</ele>
        <time>2018-11-05T17:35:21Z</time>
      </trkpt>
      <trkpt lat="45.90629" lon="1.60798">
        <ele>423</ele>
        <time>2018-11-05T17:36:21Z</time>
      </trkpt>
      <trkpt lat="45.90633" lon="1.60783">
        <ele>423</ele>
        <time>2018-11-05T17:37:21Z</time>
      </trkpt>
      <trkpt lat="45.90691" lon="1.60662">
        <ele>426</ele>
        <time>2018-11-05T17:38:21Z</time>
      </trkpt>
      <trkpt lat="45.90766" lon="1.6051">
        <ele>432</ele>
        <time>2018-11-05T17:39:21Z</time>
      </trkpt>
      <trkpt lat="45.90768" lon="1.60493">
        <ele>432</ele>
        <time>2018-11-05T17:40:21Z</time>
      </trkpt>
      <trkpt lat="45.90698" lon="1.60112">
        <ele>447</ele>
        <time>2018-11-05T17:41:21Z</time>
      </trkpt>
      <trkpt lat="45.90626" lon="1.59734">
        <ele>455</ele>
        <time>2018-11-05T17:42:21Z</time>
      </trkpt>
      <trkpt lat="45.90618" lon="1.597">
        <ele>458</ele>
        <time>2018-11-05T17:43:21Z</time>
      </trkpt>
      <trkpt lat="45.90605" lon="1.59659">
        <ele>461</ele>
        <time>2018-11-05T17:44:21Z</time>
      </trkpt>
      <trkpt lat="45.90584" lon="1.5962">
        <ele>464</ele>
        <time>2018-11-05T17:45:21Z</time>
      </trkpt>
      <trkpt lat="45.90497" lon="1.59509">
        <ele>470</ele>
        <time>2018-11-05T17:46:21Z</time>
      </trkpt>
      <trkpt lat="45.90414" lon="1.59398">
        <ele>472</ele>
        <time>2018-11-05T17:47:21Z</time>
      </trkpt>
      <trkpt lat="45.90376" lon="1.59328">
        <ele>474</ele>
        <time>2018-11-05T17:48:21Z</time>
      </trkpt>
      <trkpt lat="45.90279" lon="1.59102">
        <ele>470</ele>
        <time>2018-11-05T17:49:21Z</time>
      </trkpt>
      <trkpt lat="45.90247" lon="1.59035">
        <ele>474</ele>
        <time>2018-11-05T17:50:21Z</time>
      </trkpt>
      <trkpt lat="45.90206" lon="1.58957">
        <ele>477</ele>
        <time>2018-11-05T17:51:21Z</time>
      </trkpt>
      <trkpt lat="45.90131" lon="1.5884">
        <ele>472</ele>
        <time>2018-11-05T17:52:21Z</time>
      </trkpt>
      <trkpt lat="45.90081" lon="1.58746">
        <ele>470</ele>
        <time>2018-11-05T17:53:21Z</time>
      </trkpt>
      <trkpt lat="45.90099" lon="1.58705">
        <ele>469</ele>
        <time>2018-11-05T17:54:21Z</time>
      </trkpt>
      <trkpt lat="45.90106" lon="1.58678">
        <ele>470</ele>
        <time>2018-11-05T17:55:21Z</time>
      </trkpt>
      <trkpt lat="45.90141" lon="1.58475">
        <ele>466</ele>
        <time>2018-11-05T17:56:21Z</time>
      </trkpt>
      <trkpt lat="45.9015" lon="1.58411">
        <ele>466</ele>
        <time>2018-11-05T17:57:21Z</time>
      </trkpt>
      <trkpt lat="45.90151" lon="1.58332">
        <ele>467</ele>
        <time>2018-11-05T17:58:21Z</time>
      </trkpt>
      <trkpt lat="45.90142" lon="1.58245">
        <ele>469</ele>
        <time>2018-11-05T17:59:21Z</time>
      </trkpt>
      <trkpt lat="45.90125" lon="1.58052">
        <ele>474</ele>
        <time>2018-11-05T18:00:21Z</time>
      </trkpt>
      <trkpt lat="45.90126" lon="1.58027">
        <ele>475</ele>
        <time>2018-11-05T18:01:21Z</time>
      </trkpt>
      <trkpt lat="45.90132" lon="1.57997">
        <ele>476</ele>
        <time>2018-11-05T18:02:21Z</time>
      </trkpt>
      <trkpt lat="45.90139" lon="1.57973">
        <ele>477</ele>
        <time>2018-11-05T18:03:21Z</time>
      </trkpt>
      <trkpt lat="45.90164" lon="1.57917">
        <ele>478</ele>
        <time>2018-11-05T18:04:21Z</time>
      </trkpt>
      <trkpt lat="45.90208" lon="1.57823">
        <ele>470</ele>
        <time>2018-11-05T18:05:21Z</time>
      </trkpt>
      <trkpt lat="45.9022" lon="1.57774">
        <ele>465</ele>
        <time>2018-11-05T18:06:21Z</time>
      </trkpt>
      <trkpt lat="45.90183" lon="1.5761">
        <ele>462</ele>
        <time>2018-11-05T18:07:21Z</time>
      </trkpt>
      <trkpt lat="45.90121" lon="1.57155">
        <ele>443</ele>
        <time>2018-11-05T18:08:21Z</time>
      </trkpt>
      <trkpt lat="45.90085" lon="1.5691">
        <ele>441</ele>
        <time>2018-11-05T18:09:21Z</time>
      </trkpt>
      <trkpt lat="45.89971" lon="1.56093">
        <ele>441</ele>
        <time>2018-11-05T18:10:21Z</time>
      </trkpt>
      <trkpt lat="45.8995" lon="1.55924">
        <ele>439</ele>
        <time>2018-11-05T18:11:21Z</time>
      </trkpt>
      <trkpt lat="45.89949" lon="1.55893">
        <ele>439</ele>
        <time>2018-11-05T18:12:21Z</time>
      </trkpt>
      <trkpt lat="45.89955" lon="1.55664">
        <ele>442</ele>
        <time>2018-11-05T18:13:21Z</time>
      </trkpt>
      <trkpt lat="45.90015" lon="1.55333">
        <ele>438</ele>
        <time>2018-11-05T18:14:21Z</time>
      </trkpt>
      <trkpt lat="45.90031" lon="1.55258">
        <ele>437</ele>
        <time>2018-11-05T18:15:21Z</time>
      </trkpt>
      <trkpt lat="45.90078" lon="1.55171">
        <ele>433</ele>
        <time>2018-11-05T18:16:21Z</time>
      </trkpt>
      <trkpt lat="45.90415" lon="1.54721">
        <ele>425</ele>
        <time>2018-11-05T18:17:21Z</time>
      </trkpt>
      <trkpt lat="45.90444" lon="1.54657">
        <ele>428</ele>
        <time>2018-11-05T18:18:21Z</time>
      </trkpt>
      <trkpt lat="45.90538" lon="1.54361">
        <ele>425</ele>
        <time>2018-11-05T18:19:21Z</time>
      </trkpt>
      <trkpt lat="45.90553" lon="1.54323">
        <ele>423</ele>
        <time>2018-11-05T18:20:21Z</time>
      </trkpt>
      <trkpt lat="45.90567" lon="1.543">
        <ele>422</ele>
        <time>2018-11-05T18:21:21Z</time>
      </trkpt>
      <trkpt lat="45.906" lon="1.54278">
        <ele>422</ele>
        <time>2018-11-05T18:22:21Z</time>
      </trkpt>
      <trkpt lat="45.90625" lon="1.54273">
        <ele>422</ele>
        <time>2018-11-05T18:23:21Z</time>
      </trkpt>
      <trkpt lat="45.90654" lon="1.54275">
        <ele>422</ele>
        <time>2018-11-05T18:24:21Z</time>
      </trkpt>
      <trkpt lat="45.90693" lon="1.54272">
        <ele>423</ele>
        <time>2018-11-05T18:25:21Z</time>
      </trkpt>
      <trkpt lat="45.90714" lon="1.54254">
        <ele>422</ele>
        <time>2018-11-05T18:26:21Z</time>
      </trkpt>
      <trkpt lat="45.90799" lon="1.54076">
        <ele>426</ele>
        <time>2018-11-05T18:27:21Z</time>
      </trkpt>
      <trkpt lat="45.90902" lon="1.53849">
        <ele>424</ele>
        <time>2018-11-05T18:28:21Z</time>
      </trkpt>
      <trkpt lat="45.90917" lon="1.53763">
        <ele>423</ele>
        <time>2018-11-05T18:29:21Z</time>
      </trkpt>
      <trkpt lat="45.90925" lon="1.53641">
        <ele>424</ele>
        <time>2018-11-05T18:30:21Z</time>
      </trkpt>
      <trkpt lat="45.90924" lon="1.53551">
        <ele>424</ele>
        <time>2018-11-05T18:31:21Z</time>
      </trkpt>
      <trkpt lat="45.90906" lon="1.53129">
        <ele>429</ele>
        <time>2018-11-05T18:32:21Z</time>
      </trkpt>
      <trkpt lat="45.90905" lon="1.52964">
        <ele>430</ele>
        <time>2018-11-05T18:33:21Z</time>
      </trkpt>
      <trkpt lat="45.90911" lon="1.52872">
        <ele>428</ele>
        <time>2018-11-05T18:34:21Z</time>
      </trkpt>
      <trkpt lat="45.90925" lon="1.52771">
        <ele>427</ele>
        <time>2018-11-05T18:35:21Z</time>
      </trkpt>
      <trkpt lat="45.90958" lon="1.52655">
        <ele>428</ele>
        <time>2018-11-05T18:36:21Z</time>
      </trkpt>
      <trkpt lat="45.91014" lon="1.52445">
        <ele>427</ele>
        <time>2018-11-05T18:37:21Z</time>
      </trkpt>
      <trkpt lat="45.91046" lon="1.52179">
        <ele>427</ele>
        <time>2018-11-05T18:38:21Z</time>
      </trkpt>
      <trkpt lat="45.91054" lon="1.52092">
        <ele>427</ele>
        <time>2018-11-05T18:39:21Z</time>
      </trkpt>
      <trkpt lat="45.91054" lon="1.52092">
        <ele>427</ele>
        <time>2018-11-05T18:40:21Z</time>
      </trkpt>
      <trkpt lat="45.91072" lon="1.51887">
        <ele>431</ele>
        <time>2018-11-05T18:41:21Z</time>
      </trkpt>
      <trkpt lat="45.91094" lon="1.51593">
        <ele>433</ele>
        <time>2018-11-05T18:42:21Z</time>
      </trkpt>
      <trkpt lat="45.91101" lon="1.51568">
        <ele>432</ele>
        <time>2018-11-05T18:43:21Z</time>
      </trkpt>
      <trkpt lat="45.91107" lon="1.51555">
        <ele>432</ele>
        <time>2018-11-05T18:44:21Z</time>
      </trkpt>
      <trkpt lat="45.91115" lon="1.51545">
        <ele>432</ele>
        <time>2018-11-05T18:45:21Z</time>
      </trkpt>
      <trkpt lat="45.91126" lon="1.51535">
        <ele>432</ele>
        <time>2018-11-05T18:46:21Z</time>
      </trkpt>
      <trkpt lat="45.91139" lon="1.51528">
        <ele>432</ele>
        <time>2018-11-05T18:47:21Z</time>
      </trkpt>
      <trkpt lat="45.91149" lon="1.51526">
        <ele>432</ele>
        <time>2018-11-05T18:48:21Z</time>
      </trkpt>
      <trkpt lat="45.9117" lon="1.5153">
        <ele>432</ele>
        <time>2018-11-05T18:49:21Z</time>
      </trkpt>
      <trkpt lat="45.9125" lon="1.51553">
        <ele>430</ele>
        <time>2018-11-05T18:50:21Z</time>
      </trkpt>
      <trkpt lat="45.91273" lon="1.51555">
        <ele>429</ele>
        <time>2018-11-05T18:51:21Z</time>
      </trkpt>
      <trkpt lat="45.91305" lon="1.51551">
        <ele>426</ele>
        <time>2018-11-05T18:52:21Z</time>
      </trkpt>
      <trkpt lat="45.9132" lon="1.51546">
        <ele>425</ele>
        <time>2018-11-05T18:53:21Z</time>
      </trkpt>
      <trkpt lat="45.91409" lon="1.51489">
        <ele>419</ele>
        <time>2018-11-05T18:54:21Z</time>
      </trkpt>
      <trkpt lat="45.91369" lon="1.5141">
        <ele>428</ele>
        <time>2018-11-05T18:55:21Z</time>
      </trkpt>
      <trkpt lat="45.91367" lon="1.51399">
        <ele>428</ele>
        <time>2018-11-05T18:56:21Z</time>
      </trkpt>
      <trkpt lat="45.91205" lon="1.51205">
        <ele>430</ele>
        <time>2018-11-05T18:57:21Z</time>
      </trkpt>
      <trkpt lat="45.90789" lon="1.50717">
        <ele>425</ele>
        <time>2018-11-05T18:58:21Z</time>
      </trkpt>
      <trkpt lat="45.90754" lon="1.50683">
        <ele>423</ele>
        <time>2018-11-05T18:59:21Z</time>
      </trkpt>
      <trkpt lat="45.90707" lon="1.50647">
        <ele>421</ele>
        <time>2018-11-05T19:00:21Z</time>
      </trkpt>
      <trkpt lat="45.90664" lon="1.50627">
        <ele>418</ele>
        <time>2018-11-05T19:01:21Z</time>
      </trkpt>
      <trkpt lat="45.90637" lon="1.50624">
        <ele>417</ele>
        <time>2018-11-05T19:02:21Z</time>
      </trkpt>
      <trkpt lat="45.90577" lon="1.50625">
        <ele>415</ele>
        <time>2018-11-05T19:03:21Z</time>
      </trkpt>
      <trkpt lat="45.90489" lon="1.50554">
        <ele>411</ele>
        <time>2018-11-05T19:04:21Z</time>
      </trkpt>
      <trkpt lat="45.90561" lon="1.50349">
        <ele>404</ele>
        <time>2018-11-05T19:05:21Z</time>
      </trkpt>
      <trkpt lat="45.90568" lon="1.5031">
        <ele>406</ele>
        <time>2018-11-05T19:06:21Z</time>
      </trkpt>
      <trkpt lat="45.90569" lon="1.50273">
        <ele>409</ele>
        <time>2018-11-05T19:07:21Z</time>
      </trkpt>
      <trkpt lat="45.9056" lon="1.50243">
        <ele>410</ele>
        <time>2018-11-05T19:08:21Z</time>
      </trkpt>
      <trkpt lat="45.90522" lon="1.50189">
        <ele>407</ele>
        <time>2018-11-05T19:09:21Z</time>
      </trkpt>
      <trkpt lat="45.905" lon="1.50139">
        <ele>405</ele>
        <time>2018-11-05T19:10:21Z</time>
      </trkpt>
      <trkpt lat="45.90486" lon="1.5009">
        <ele>405</ele>
        <time>2018-11-05T19:11:21Z</time>
      </trkpt>
      <trkpt lat="45.90486" lon="1.50066">
        <ele>404</ele>
        <time>2018-11-05T19:12:21Z</time>
      </trkpt>
      <trkpt lat="45.90489" lon="1.50042">
        <ele>404</ele>
        <time>2018-11-05T19:13:21Z</time>
      </trkpt>
      <trkpt lat="45.90519" lon="1.4997">
        <ele>404</ele>
        <time>2018-11-05T19:14:21Z</time>
      </trkpt>
      <trkpt lat="45.9053" lon="1.49951">
        <ele>404</ele>
        <time>2018-11-05T19:15:21Z</time>
      </trkpt>
      <trkpt lat="45.90541" lon="1.49939">
        <ele>404</ele>
        <time>2018-11-05T19:16:21Z</time>
      </trkpt>
      <trkpt lat="45.90562" lon="1.49932">
        <ele>405</ele>
        <time>2018-11-05T19:17:21Z</time>
      </trkpt>
      <trkpt lat="45.90621" lon="1.49928">
        <ele>410</ele>
        <time>2018-11-05T19:18:21Z</time>
      </trkpt>
      <trkpt lat="45.9064" lon="1.49905">
        <ele>411</ele>
        <time>2018-11-05T19:19:21Z</time>
      </trkpt>
      <trkpt lat="45.90647" lon="1.49869">
        <ele>410</ele>
        <time>2018-11-05T19:20:21Z</time>
      </trkpt>
      <trkpt lat="45.90644" lon="1.49845">
        <ele>410</ele>
        <time>2018-11-05T19:21:21Z</time>
      </trkpt>
      <trkpt lat="45.9054" lon="1.49628">
        <ele>408</ele>
        <time>2018-11-05T19:22:21Z</time>
      </trkpt>
      <trkpt lat="45.9053" lon="1.49601">
        <ele>408</ele>
        <time>2018-11-05T19:23:21Z</time>
      </trkpt>
      <trkpt lat="45.90436" lon="1.49191">
        <ele>407</ele>
        <time>2018-11-05T19:24:21Z</time>
      </trkpt>
      <trkpt lat="45.90436" lon="1.4916">
        <ele>408</ele>
        <time>2018-11-05T19:25:21Z</time>
      </trkpt>
      <trkpt lat="45.90446" lon="1.49137">
        <ele>408</ele>
        <time>2018-11-05T19:26:21Z</time>
      </trkpt>
      <trkpt lat="45.90468" lon="1.49119">
        <ele>410</ele>
        <time>2018-11-05T19:27:21Z</time>
      </trkpt>
      <trkpt lat="45.90487" lon="1.49097">
        <ele>412</ele>
        <time>2018-11-05T19:28:21Z</time>
      </trkpt>
      <trkpt lat="45.90501" lon="1.49061">
        <ele>413</ele>
        <time>2018-11-05T19:29:21Z</time>
      </trkpt>
      <trkpt lat="45.90504" lon="1.4902">
        <ele>412</ele>
        <time>2018-11-05T19:30:21Z</time>
      </trkpt>
      <trkpt lat="45.90504" lon="1.48985">
        <ele>410</ele>
        <time>2018-11-05T19:31:21Z</time>
      </trkpt>
      <trkpt lat="45.90512" lon="1.4895">
        <ele>409</ele>
        <time>2018-11-05T19:32:21Z</time>
      </trkpt>
      <trkpt lat="45.90531" lon="1.48921">
        <ele>408</ele>
        <time>2018-11-05T19:33:21Z</time>
      </trkpt>
      <trkpt lat="45.90556" lon="1.48904">
        <ele>410</ele>
        <time>2018-11-05T19:34:21Z</time>
      </trkpt>
      <trkpt lat="45.90693" lon="1.48895">
        <ele>416</ele>
        <time>2018-11-05T19:35:21Z</time>
      </trkpt>
      <trkpt lat="45.9071" lon="1.48885">
        <ele>417</ele>
        <time>2018-11-05T19:36:21Z</time>
      </trkpt>
      <trkpt lat="45.90721" lon="1.48863">
        <ele>418</ele>
        <time>2018-11-05T19:37:21Z</time>
      </trkpt>
      <trkpt lat="45.90726" lon="1.48843">
        <ele>418</ele>
        <time>2018-11-05T19:38:21Z</time>
      </trkpt>
      <trkpt lat="45.90716" lon="1.48692">
        <ele>421</ele>
        <time>2018-11-05T19:39:21Z</time>
      </trkpt>
      <trkpt lat="45.90722" lon="1.48454">
        <ele>426</ele>
        <time>2018-11-05T19:40:21Z</time>
      </trkpt>
      <trkpt lat="45.90713" lon="1.48375">
        <ele>425</ele>
        <time>2018-11-05T19:41:21Z</time>
      </trkpt>
      <trkpt lat="45.90705" lon="1.48331">
        <ele>424</ele>
        <time>2018-11-05T19:42:21Z</time>
      </trkpt>
      <trkpt lat="45.90587" lon="1.4797">
        <ele>424</ele>
        <time>2018-11-05T19:43:21Z</time>
      </trkpt>
      <trkpt lat="45.90529" lon="1.47816">
        <ele>422</ele>
        <time>2018-11-05T19:44:21Z</time>
      </trkpt>
      <trkpt lat="45.90511" lon="1.47778">
        <ele>421</ele>
        <time>2018-11-05T19:45:21Z</time>
      </trkpt>
      <trkpt lat="45.90485" lon="1.47735">
        <ele>420</ele>
        <time>2018-11-05T19:46:21Z</time>
      </trkpt>
      <trkpt lat="45.90459" lon="1.47698">
        <ele>419</ele>
        <time>2018-11-05T19:47:21Z</time>
      </trkpt>
      <trkpt lat="45.90305" lon="1.4754">
        <ele>414</ele>
        <time>2018-11-05T19:48:21Z</time>
      </trkpt>
      <trkpt lat="45.90274" lon="1.47501">
        <ele>413</ele>
        <time>2018-11-05T19:49:21Z</time>
      </trkpt>
      <trkpt lat="45.90248" lon="1.47454">
        <ele>412</ele>
        <time>2018-11-05T19:50:21Z</time>
      </trkpt>
      <trkpt lat="45.90234" lon="1.47414">
        <ele>412</ele>
        <time>2018-11-05T19:51:21Z</time>
      </trkpt>
      <trkpt lat="45.90199" lon="1.47258">
        <ele>412</ele>
        <time>2018-11-05T19:52:21Z</time>
      </trkpt>
      <trkpt lat="45.90101" lon="1.46795">
        <ele>414</ele>
        <time>2018-11-05T19:53:21Z</time>
      </trkpt>
      <trkpt lat="45.90092" lon="1.46734">
        <ele>415</ele>
        <time>2018-11-05T19:54:21Z</time>
      </trkpt>
      <trkpt lat="45.90091" lon="1.46681">
        <ele>415</ele>
        <time>2018-11-05T19:55:21Z</time>
      </trkpt>
      <trkpt lat="45.90106" lon="1.46225">
        <ele>418</ele>
        <time>2018-11-05T19:56:21Z</time>
      </trkpt>
      <trkpt lat="45.90106" lon="1.46225">
        <ele>418</ele>
        <time>2018-11-05T19:57:21Z</time>
      </trkpt>
      <trkpt lat="45.90133" lon="1.45376">
        <ele>427</ele>
        <time>2018-11-05T19:58:21Z</time>
      </trkpt>
      <trkpt lat="45.90134" lon="1.45326">
        <ele>428</ele>
        <time>2018-11-05T19:59:21Z</time>
      </trkpt>
      <trkpt lat="45.90135" lon="1.45303">
        <ele>428</ele>
        <time>2018-11-05T20:00:21Z</time>
      </trkpt>
      <trkpt lat="45.9014" lon="1.45289">
        <ele>428</ele>
        <time>2018-11-05T20:01:21Z</time>
      </trkpt>
      <trkpt lat="45.90153" lon="1.45269">
        <ele>428</ele>
        <time>2018-11-05T20:02:21Z</time>
      </trkpt>
      <trkpt lat="45.90166" lon="1.45244">
        <ele>427</ele>
        <time>2018-11-05T20:03:21Z</time>
      </trkpt>
      <trkpt lat="45.90301" lon="1.44909">
        <ele>414</ele>
        <time>2018-11-05T20:04:21Z</time>
      </trkpt>
      <trkpt lat="45.90338" lon="1.44824">
        <ele>410</ele>
        <time>2018-11-05T20:05:21Z</time>
      </trkpt>
      <trkpt lat="45.90348" lon="1.44794">
        <ele>408</ele>
        <time>2018-11-05T20:06:21Z</time>
      </trkpt>
      <trkpt lat="45.90352" lon="1.44767">
        <ele>407</ele>
        <time>2018-11-05T20:07:21Z</time>
      </trkpt>
      <trkpt lat="45.90353" lon="1.44743">
        <ele>406</ele>
        <time>2018-11-05T20:08:21Z</time>
      </trkpt>
      <trkpt lat="45.90351" lon="1.44716">
        <ele>405</ele>
        <time>2018-11-05T20:09:21Z</time>
      </trkpt>
      <trkpt lat="45.90334" lon="1.44612">
        <ele>403</ele>
        <time>2018-11-05T20:10:21Z</time>
      </trkpt>
      <trkpt lat="45.90318" lon="1.44545">
        <ele>403</ele>
        <time>2018-11-05T20:11:21Z</time>
      </trkpt>
      <trkpt lat="45.90295" lon="1.44477">
        <ele>402</ele>
        <time>2018-11-05T20:12:21Z</time>
      </trkpt>
      <trkpt lat="45.90277" lon="1.44433">
        <ele>402</ele>
        <time>2018-11-05T20:13:21Z</time>
      </trkpt>
      <trkpt lat="45.90216" lon="1.44322">
        <ele>397</ele>
        <time>2018-11-05T20:14:21Z</time>
      </trkpt>
      <trkpt lat="45.90211" lon="1.44307">
        <ele>396</ele>
        <time>2018-11-05T20:15:21Z</time>
      </trkpt>
      <trkpt lat="45.90208" lon="1.44291">
        <ele>395</ele>
        <time>2018-11-05T20:16:21Z</time>
      </trkpt>
      <trkpt lat="45.90211" lon="1.44259">
        <ele>395</ele>
        <time>2018-11-05T20:17:21Z</time>
      </trkpt>
      <trkpt lat="45.90217" lon="1.44216">
        <ele>393</ele>
        <time>2018-11-05T20:18:21Z</time>
      </trkpt>
      <trkpt lat="45.90253" lon="1.44028">
        <ele>380</ele>
        <time>2018-11-05T20:19:21Z</time>
      </trkpt>
      <trkpt lat="45.90259" lon="1.43983">
        <ele>379</ele>
        <time>2018-11-05T20:20:21Z</time>
      </trkpt>
      <trkpt lat="45.9026" lon="1.43944">
        <ele>378</ele>
        <time>2018-11-05T20:21:21Z</time>
      </trkpt>
      <trkpt lat="45.90255" lon="1.43909">
        <ele>377</ele>
        <time>2018-11-05T20:22:21Z</time>
      </trkpt>
      <trkpt lat="45.90244" lon="1.4388">
        <ele>377</ele>
        <time>2018-11-05T20:23:21Z</time>
      </trkpt>
      <trkpt lat="45.90129" lon="1.43691">
        <ele>371</ele>
        <time>2018-11-05T20:24:21Z</time>
      </trkpt>
      <trkpt lat="45.90113" lon="1.43663">
        <ele>370</ele>
        <time>2018-11-05T20:25:21Z</time>
      </trkpt>
      <trkpt lat="45.90103" lon="1.43638">
        <ele>369</ele>
        <time>2018-11-05T20:26:21Z</time>
      </trkpt>
      <trkpt lat="45.89967" lon="1.42856">
        <ele>350</ele>
        <time>2018-11-05T20:27:21Z</time>
      </trkpt>
      <trkpt lat="45.89957" lon="1.42775">
        <ele>348</ele>
        <time>2018-11-05T20:28:21Z</time>
      </trkpt>
      <trkpt lat="45.89956" lon="1.42746">
        <ele>347</ele>
        <time>2018-11-05T20:29:21Z</time>
      </trkpt>
      <trkpt lat="45.8996" lon="1.42681">
        <ele>345</ele>
        <time>2018-11-05T20:30:21Z</time>
      </trkpt>
      <trkpt lat="45.89965" lon="1.42614">
        <ele>344</ele>
        <time>2018-11-05T20:31:21Z</time>
      </trkpt>
      <trkpt lat="45.8997" lon="1.42585">
        <ele>344</ele>
        <time>2018-11-05T20:32:21Z</time>
      </trkpt>
      <trkpt lat="45.89979" lon="1.42567">
        <ele>344</ele>
        <time>2018-11-05T20:33:21Z</time>
      </trkpt>
      <trkpt lat="45.89999" lon="1.42544">
        <ele>343</ele>
        <time>2018-11-05T20:34:21Z</time>
      </trkpt>
      <trkpt lat="45.90021" lon="1.42533">
        <ele>344</ele>
        <time>2018-11-05T20:35:21Z</time>
      </trkpt>
      <trkpt lat="45.90071" lon="1.42523">
        <ele>345</ele>
        <time>2018-11-05T20:36:21Z</time>
      </trkpt>
      <trkpt lat="45.90081" lon="1.42518">
        <ele>345</ele>
        <time>2018-11-05T20:37:21Z</time>
      </trkpt>
      <trkpt lat="45.90092" lon="1.42495">
        <ele>345</ele>
        <time>2018-11-05T20:38:21Z</time>
      </trkpt>
      <trkpt lat="45.90094" lon="1.4248">
        <ele>345</ele>
        <time>2018-11-05T20:39:21Z</time>
      </trkpt>
      <trkpt lat="45.90075" lon="1.42214">
        <ele>340</ele>
        <time>2018-11-05T20:40:21Z</time>
      </trkpt>
      <trkpt lat="45.90068" lon="1.42178">
        <ele>338</ele>
        <time>2018-11-05T20:41:21Z</time>
      </trkpt>
      <trkpt lat="45.89917" lon="1.41773">
        <ele>336</ele>
        <time>2018-11-05T20:42:21Z</time>
      </trkpt>
      <trkpt lat="45.89794" lon="1.4164">
        <ele>333</ele>
        <time>2018-11-05T20:43:21Z</time>
      </trkpt>
      <trkpt lat="45.89732" lon="1.41539">
        <ele>327</ele>
        <time>2018-11-05T20:44:21Z</time>
      </trkpt>
      <trkpt lat="45.89432" lon="1.40933">
        <ele>297</ele>
        <time>2018-11-05T20:45:21Z</time>
      </trkpt>
      <trkpt lat="45.89415" lon="1.40906">
        <ele>297</ele>
        <time>2018-11-05T20:46:21Z</time>
      </trkpt>
      <trkpt lat="45.89392" lon="1.40887">
        <ele>296</ele>
        <time>2018-11-05T20:47:21Z</time>
      </trkpt>
      <trkpt lat="45.89325" lon="1.40847">
        <ele>293</ele>
        <time>2018-11-05T20:48:21Z</time>
      </trkpt>
      <trkpt lat="45.89274" lon="1.40821">
        <ele>289</ele>
        <time>2018-11-05T20:49:21Z</time>
      </trkpt>
      <trkpt lat="45.89254" lon="1.40805">
        <ele>288</ele>
        <time>2018-11-05T20:50:21Z</time>
      </trkpt>
      <trkpt lat="45.89237" lon="1.40787">
        <ele>287</ele>
        <time>2018-11-05T20:51:21Z</time>
      </trkpt>
      <trkpt lat="45.89125" lon="1.40611">
        <ele>280</ele>
        <time>2018-11-05T20:52:21Z</time>
      </trkpt>
      <trkpt lat="45.89079" lon="1.40546">
        <ele>277</ele>
        <time>2018-11-05T20:53:21Z</time>
      </trkpt>
      <trkpt lat="45.89016" lon="1.40483">
        <ele>274</ele>
        <time>2018-11-05T20:54:21Z</time>
      </trkpt>
      <trkpt lat="45.88987" lon="1.40431">
        <ele>274</ele>
        <time>2018-11-05T20:55:21Z</time>
      </trkpt>
      <trkpt lat="45.88932" lon="1.40389">
        <ele>268</ele>
        <time>2018-11-05T20:56:21Z</time>
      </trkpt>
      <trkpt lat="45.88926" lon="1.40382">
        <ele>267</ele>
        <time>2018-11-05T20:57:21Z</time>
      </trkpt>
      <trkpt lat="45.8892" lon="1.40369">
        <ele>267</ele>
        <time>2018-11-05T20:58:21Z</time>
      </trkpt>
      <trkpt lat="45.8891" lon="1.4034">
        <ele>268</ele>
        <time>2018-11-05T20:59:21Z</time>
      </trkpt>
      <trkpt lat="45.88905" lon="1.40332">
        <ele>268</ele>
        <time>2018-11-05T21:00:21Z</time>
      </trkpt>
      <trkpt lat="45.88897" lon="1.40322">
        <ele>267</ele>
        <time>2018-11-05T21:01:21Z</time>
      </trkpt>
      <trkpt lat="45.88858" lon="1.40294">
        <ele>263</ele>
        <time>2018-11-05T21:02:21Z</time>
      </trkpt>
      <trkpt lat="45.88829" lon="1.40264">
        <ele>263</ele>
        <time>2018-11-05T21:03:21Z</time>
      </trkpt>
      <trkpt lat="45.88804" lon="1.40249">
        <ele>262</ele>
        <time>2018-11-05T21:04:21Z</time>
      </trkpt>
      <trkpt lat="45.88766" lon="1.40221">
        <ele>260</ele>
        <time>2018-11-05T21:05:21Z</time>
      </trkpt>
      <trkpt lat="45.88748" lon="1.40215">
        <ele>259</ele>
        <time>2018-11-05T21:06:21Z</time>
      </trkpt>
      <trkpt lat="45.88716" lon="1.40224">
        <ele>254</ele>
        <time>2018-11-05T21:07:21Z</time>
      </trkpt>
      <trkpt lat="45.88706" lon="1.40223">
        <ele>253</ele>
        <time>2018-11-05T21:08:21Z</time>
      </trkpt>
      <trkpt lat="45.88687" lon="1.40215">
        <ele>251</ele>
        <time>2018-11-05T21:09:21Z</time>
      </trkpt>
      <trkpt lat="45.88677" lon="1.402">
        <ele>251</ele>
        <time>2018-11-05T21:10:21Z</time>
      </trkpt>
      <trkpt lat="45.88667" lon="1.40165">
        <ele>251</ele>
        <time>2018-11-05T21:11:21Z</time>
      </trkpt>
      <trkpt lat="45.8865" lon="1.3992">
        <ele>248</ele>
        <time>2018-11-05T21:12:21Z</time>
      </trkpt>
      <trkpt lat="45.8867" lon="1.39565">
        <ele>238</ele>
        <time>2018-11-05T21:13:21Z</time>
      </trkpt>
      <trkpt lat="45.88674" lon="1.39543">
        <ele>237</ele>
        <time>2018-11-05T21:14:21Z</time>
      </trkpt>
      <trkpt lat="45.88707" lon="1.39428">
        <ele>239</ele>
        <time>2018-11-05T21:15:21Z</time>
      </trkpt>
      <trkpt lat="45.88719" lon="1.39395">
        <ele>242</ele>
        <time>2018-11-05T21:16:21Z</time>
      </trkpt>
      <trkpt lat="45.88712" lon="1.3936">
        <ele>243</ele>
        <time>2018-11-05T21:17:21Z</time>
      </trkpt>
      <trkpt lat="45.88629" lon="1.39152">
        <ele>247</ele>
        <time>2018-11-05T21:18:21Z</time>
      </trkpt>
      <trkpt lat="45.88614" lon="1.39127">
        <ele>249</ele>
        <time>2018-11-05T21:19:21Z</time>
      </trkpt>
      <trkpt lat="45.88596" lon="1.39106">
        <ele>249</ele>
        <time>2018-11-05T21:20:21Z</time>
      </trkpt>
      <trkpt lat="45.88501" lon="1.39041">
        <ele>246</ele>
        <time>2018-11-05T21:21:21Z</time>
      </trkpt>
      <trkpt lat="45.88481" lon="1.39024">
        <ele>247</ele>
        <time>2018-11-05T21:22:21Z</time>
      </trkpt>
      <trkpt lat="45.88454" lon="1.38992">
        <ele>249</ele>
        <time>2018-11-05T21:23:21Z</time>
      </trkpt>
      <trkpt lat="45.88416" lon="1.3894">
        <ele>253</ele>
        <time>2018-11-05T21:24:21Z</time>
      </trkpt>
      <trkpt lat="45.88395" lon="1.389">
        <ele>256</ele>
        <time>2018-11-05T21:25:21Z</time>
      </trkpt>
      <trkpt lat="45.88196" lon="1.38397">
        <ele>272</ele>
        <time>2018-11-05T21:26:21Z</time>
      </trkpt>
      <trkpt lat="45.88179" lon="1.38348">
        <ele>271</ele>
        <time>2018-11-05T21:27:21Z</time>
      </trkpt>
      <trkpt lat="45.88172" lon="1.38324">
        <ele>271</ele>
        <time>2018-11-05T21:28:21Z</time>
      </trkpt>
      <trkpt lat="45.88112" lon="1.37876">
        <ele>270</ele>
        <time>2018-11-05T21:29:21Z</time>
      </trkpt>
      <trkpt lat="45.88094" lon="1.37758">
        <ele>272</ele>
        <time>2018-11-05T21:30:21Z</time>
      </trkpt>
      <trkpt lat="45.88072" lon="1.37672">
        <ele>274</ele>
        <time>2018-11-05T21:31:21Z</time>
      </trkpt>
      <trkpt lat="45.88042" lon="1.37581">
        <ele>274</ele>
        <time>2018-11-05T21:32:21Z</time>
      </trkpt>
      <trkpt lat="45.87909" lon="1.3722">
        <ele>265</ele>
        <time>2018-11-05T21:33:21Z</time>
      </trkpt>
      <trkpt lat="45.87892" lon="1.37166">
        <ele>265</ele>
        <time>2018-11-05T21:34:21Z</time>
      </trkpt>
      <trkpt lat="45.87882" lon="1.37122">
        <ele>264</ele>
        <time>2018-11-05T21:35:21Z</time>
      </trkpt>
      <trkpt lat="45.87879" lon="1.37097">
        <ele>263</ele>
        <time>2018-11-05T21:36:21Z</time>
      </trkpt>
      <trkpt lat="45.87888" lon="1.36895">
        <ele>267</ele>
        <time>2018-11-05T21:37:21Z</time>
      </trkpt>
      <trkpt lat="45.87911" lon="1.36568">
        <ele>277</ele>
        <time>2018-11-05T21:38:21Z</time>
      </trkpt>
      <trkpt lat="45.87917" lon="1.36441">
        <ele>273</ele>
        <time>2018-11-05T21:39:21Z</time>
      </trkpt>
      <trkpt lat="45.87925" lon="1.36326">
        <ele>273</ele>
        <time>2018-11-05T21:40:21Z</time>
      </trkpt>
      <trkpt lat="45.87925" lon="1.36268">
        <ele>274</ele>
        <time>2018-11-05T21:41:21Z</time>
      </trkpt>
      <trkpt lat="45.879" lon="1.36136">
        <ele>271</ele>
        <time>2018-11-05T21:42:21Z</time>
      </trkpt>
      <trkpt lat="45.879" lon="1.36136">
        <ele>271</ele>
        <time>2018-11-05T21:43:21Z</time>
      </trkpt>
      <trkpt lat="45.87841" lon="1.35824">
        <ele>278</ele>
        <time>2018-11-05T21:44:21Z</time>
      </trkpt>
      <trkpt lat="45.87836" lon="1.3573">
        <ele>275</ele>
        <time>2018-11-05T21:45:21Z</time>
      </trkpt>
      <trkpt lat="45.87836" lon="1.35687">
        <ele>274</ele>
        <time>2018-11-05T21:46:21Z</time>
      </trkpt>
      <trkpt lat="45.87826" lon="1.35625">
        <ele>274</ele>
        <time>2018-11-05T21:47:21Z</time>
      </trkpt>
      <trkpt lat="45.87794" lon="1.35539">
        <ele>275</ele>
        <time>2018-11-05T21:48:21Z</time>
      </trkpt>
      <trkpt lat="45.87742" lon="1.35459">
        <ele>276</ele>
        <time>2018-11-05T21:49:21Z</time>
      </trkpt>
      <trkpt lat="45.87705" lon="1.35418">
        <ele>277</ele>
        <time>2018-11-05T21:50:21Z</time>
      </trkpt>
      <trkpt lat="45.87645" lon="1.35332">
        <ele>275</ele>
        <time>2018-11-05T21:51:21Z</time>
      </trkpt>
      <trkpt lat="45.87616" lon="1.35279">
        <ele>273</ele>
        <time>2018-11-05T21:52:21Z</time>
      </trkpt>
      <trkpt lat="45.87586" lon="1.35199">
        <ele>273</ele>
        <time>2018-11-05T21:53:21Z</time>
      </trkpt>
      <trkpt lat="45.87567" lon="1.35127">
        <ele>272</ele>
        <time>2018-11-05T21:54:21Z</time>
      </trkpt>
      <trkpt lat="45.87557" lon="1.3508">
        <ele>271</ele>
        <time>2018-11-05T21:55:21Z</time>
      </trkpt>
      <trkpt lat="45.87555" lon="1.34981">
        <ele>267</ele>
        <time>2018-11-05T21:56:21Z</time>
      </trkpt>
      <trkpt lat="45.87556" lon="1.34686">
        <ele>259</ele>
        <time>2018-11-05T21:57:21Z</time>
      </trkpt>
      <trkpt lat="45.87548" lon="1.3465">
        <ele>258</ele>
        <time>2018-11-05T21:58:21Z</time>
      </trkpt>
      <trkpt lat="45.87421" lon="1.3442">
        <ele>254</ele>
        <time>2018-11-05T21:59:21Z</time>
      </trkpt>
      <trkpt lat="45.87372" lon="1.34323">
        <ele>246</ele>
        <time>2018-11-05T22:00:21Z</time>
      </trkpt>
      <trkpt lat="45.87361" lon="1.34289">
        <ele>244</ele>
        <time>2018-11-05T22:01:21Z</time>
      </trkpt>
      <trkpt lat="45.87353" lon="1.34243">
        <ele>244</ele>
        <time>2018-11-05T22:02:21Z</time>
      </trkpt>
      <trkpt lat="45.87345" lon="1.34187">
        <ele>244</ele>
        <time>2018-11-05T22:03:21Z</time>
      </trkpt>
      <trkpt lat="45.87329" lon="1.34108">
        <ele>240</ele>
        <time>2018-11-05T22:04:21Z</time>
      </trkpt>
      <trkpt lat="45.87276" lon="1.33877">
        <ele>240</ele>
        <time>2018-11-05T22:05:21Z</time>
      </trkpt>
      <trkpt lat="45.87236" lon="1.33797">
        <ele>240</ele>
        <time>2018-11-05T22:06:21Z</time>
      </trkpt>
      <trkpt lat="45.87203" lon="1.3372">
        <ele>241</ele>
        <time>2018-11-05T22:07:21Z</time>
      </trkpt>
      <trkpt lat="45.87182" lon="1.33658">
        <ele>239</ele>
        <time>2018-11-05T22:08:21Z</time>
      </trkpt>
      <trkpt lat="45.87116" lon="1.33452">
        <ele>248</ele>
        <time>2018-11-05T22:09:21Z</time>
      </trkpt>
      <trkpt lat="45.87089" lon="1.3332">
        <ele>246</ele>
        <time>2018-11-05T22:10:21Z</time>
      </trkpt>
      <trkpt lat="45.87082" lon="1.33295">
        <ele>247</ele>
        <time>2018-11-05T22:11:21Z</time>
      </trkpt>
      <trkpt lat="45.87074" lon="1.33272">
        <ele>247</ele>
        <time>2018-11-05T22:12:21Z</time>
      </trkpt>
      <trkpt lat="45.87007" lon="1.33171">
        <ele>247</ele>
        <time>2018-11-05T22:13:21Z</time>
      </trkpt>
      <trkpt lat="45.86951" lon="1.3305">
        <ele>254</ele>
        <time>2018-11-05T22:14:21Z</time>
      </trkpt>
      <trkpt lat="45.86941" lon="1.33036">
        <ele>254</ele>
        <time>2018-11-05T22:15:21Z</time>
      </trkpt>
      <trkpt lat="45.86869" lon="1.32964">
        <ele>258</ele>
        <time>2018-11-05T22:16:21Z</time>
      </trkpt>
      <trkpt lat="45.86834" lon="1.32917">
        <ele>260</ele>
        <time>2018-11-05T22:17:21Z</time>
      </trkpt>
      <trkpt lat="45.86799" lon="1.32858">
        <ele>258</ele>
        <time>2018-11-05T22:18:21Z</time>
      </trkpt>
      <trkpt lat="45.86794" lon="1.32845">
        <ele>258</ele>
        <time>2018-11-05T22:19:21Z</time>
      </trkpt>
      <trkpt lat="45.86794" lon="1.32845">
        <ele>258</ele>
        <time>2018-11-05T22:20:21Z</time>
      </trkpt>
      <trkpt lat="45.8679" lon="1.32834">
        <ele>258</ele>
        <time>2018-11-05T22:21:21Z</time>
      </trkpt>
      <trkpt lat="45.86784" lon="1.328">
        <ele>257</ele>
        <time>2018-11-05T22:22:21Z</time>
      </trkpt>
      <trkpt lat="45.86785" lon="1.32746">
        <ele>254</ele>
        <time>2018-11-05T22:23:21Z</time>
      </trkpt>
      <trkpt lat="45.86797" lon="1.32463">
        <ele>244</ele>
        <time>2018-11-05T22:24:21Z</time>
      </trkpt>
      <trkpt lat="45.8679" lon="1.32425">
        <ele>244</ele>
        <time>2018-11-05T22:25:21Z</time>
      </trkpt>
      <trkpt lat="45.86772" lon="1.32408">
        <ele>245</ele>
        <time>2018-11-05T22:26:21Z</time>
      </trkpt>
      <trkpt lat="45.86761" lon="1.3241">
        <ele>246</ele>
        <time>2018-11-05T22:27:21Z</time>
      </trkpt>
      <trkpt lat="45.86748" lon="1.32418">
        <ele>246</ele>
        <time>2018-11-05T22:28:21Z</time>
      </trkpt>
      <trkpt lat="45.86708" lon="1.32467">
        <ele>245</ele>
        <time>2018-11-05T22:29:21Z</time>
      </trkpt>
      <trkpt lat="45.86654" lon="1.32518">
        <ele>245</ele>
        <time>2018-11-05T22:30:21Z</time>
      </trkpt>
      <trkpt lat="45.86637" lon="1.32525">
        <ele>245</ele>
        <time>2018-11-05T22:31:21Z</time>
      </trkpt>
      <trkpt lat="45.86621" lon="1.32523">
        <ele>245</ele>
        <time>2018-11-05T22:32:21Z</time>
      </trkpt>
      <trkpt lat="45.86609" lon="1.32516">
        <ele>246</ele>
        <time>2018-11-05T22:33:21Z</time>
      </trkpt>
      <trkpt lat="45.866" lon="1.32503">
        <ele>247</ele>
        <time>2018-11-05T22:34:21Z</time>
      </trkpt>
      <trkpt lat="45.86561" lon="1.32434">
        <ele>249</ele>
        <time>2018-11-05T22:35:21Z</time>
      </trkpt>
      <trkpt lat="45.86543" lon="1.32412">
        <ele>250</ele>
        <time>2018-11-05T22:36:21Z</time>
      </trkpt>
      <trkpt lat="45.86524" lon="1.32397">
        <ele>251</ele>
        <time>2018-11-05T22:37:21Z</time>
      </trkpt>
      <trkpt lat="45.86491" lon="1.32453">
        <ele>246</ele>
        <time>2018-11-05T22:38:21Z</time>
      </trkpt>
      <trkpt lat="45.86483" lon="1.3246">
        <ele>245</ele>
        <time>2018-11-05T22:39:21Z</time>
      </trkpt>
      <trkpt lat="45.86317" lon="1.32529">
        <ele>240</ele>
        <time>2018-11-05T22:40:21Z</time>
      </trkpt>
      <trkpt lat="45.86303" lon="1.32531">
        <ele>240</ele>
        <time>2018-11-05T22:41:21Z</time>
      </trkpt>
      <trkpt lat="45.86276" lon="1.32528">
        <ele>240</ele>
        <time>2018-11-05T22:42:21Z</time>
      </trkpt>
      <trkpt lat="45.8624" lon="1.32526">
        <ele>239</ele>
        <time>2018-11-05T22:43:21Z</time>
      </trkpt>
      <trkpt lat="45.86203" lon="1.32547">
        <ele>236</ele>
        <time>2018-11-05T22:44:21Z</time>
      </trkpt>
      <trkpt lat="45.86183" lon="1.32563">
        <ele>234</ele>
        <time>2018-11-05T22:45:21Z</time>
      </trkpt>
      <trkpt lat="45.86164" lon="1.32567">
        <ele>232</ele>
        <time>2018-11-05T22:46:21Z</time>
      </trkpt>
      <trkpt lat="45.86106" lon="1.32542">
        <ele>232</ele>
        <time>2018-11-05T22:47:21Z</time>
      </trkpt>
      <trkpt lat="45.86084" lon="1.32566">
        <ele>228</ele>
        <time>2018-11-05T22:48:21Z</time>
      </trkpt>
      <trkpt lat="45.86008" lon="1.32693">
        <ele>230</ele>
        <time>2018-11-05T22:49:21Z</time>
      </trkpt>
      <trkpt lat="45.85997" lon="1.32704">
        <ele>231</ele>
        <time>2018-11-05T22:50:21Z</time>
      </trkpt>
      <trkpt lat="45.85991" lon="1.32707">
        <ele>232</ele>
        <time>2018-11-05T22:51:21Z</time>
      </trkpt>
      <trkpt lat="45.85975" lon="1.32709">
        <ele>235</ele>
        <time>2018-11-05T22:52:21Z</time>
      </trkpt>
      <trkpt lat="45.85965" lon="1.32702">
        <ele>237</ele>
        <time>2018-11-05T22:53:21Z</time>
      </trkpt>
      <trkpt lat="45.85896" lon="1.32594">
        <ele>244</ele>
        <time>2018-11-05T22:54:21Z</time>
      </trkpt>
      <trkpt lat="45.85868" lon="1.32568">
        <ele>248</ele>
        <time>2018-11-05T22:55:21Z</time>
      </trkpt>
      <trkpt lat="45.85792" lon="1.32535">
        <ele>257</ele>
        <time>2018-11-05T22:56:21Z</time>
      </trkpt>
      <trkpt lat="45.85774" lon="1.32517">
        <ele>259</ele>
        <time>2018-11-05T22:57:21Z</time>
      </trkpt>
      <trkpt lat="45.85758" lon="1.32497">
        <ele>261</ele>
        <time>2018-11-05T22:58:21Z</time>
      </trkpt>
      <trkpt lat="45.85741" lon="1.32457">
        <ele>264</ele>
        <time>2018-11-05T22:59:21Z</time>
      </trkpt>
      <trkpt lat="45.85725" lon="1.32399">
        <ele>267</ele>
        <time>2018-11-05T23:00:21Z</time>
      </trkpt>
      <trkpt lat="45.85706" lon="1.32363">
        <ele>269</ele>
        <time>2018-11-05T23:01:21Z</time>
      </trkpt>
      <trkpt lat="45.85685" lon="1.32336">
        <ele>271</ele>
        <time>2018-11-05T23:02:21Z</time>
      </trkpt>
      <trkpt lat="45.85659" lon="1.32316">
        <ele>274</ele>
        <time>2018-11-05T23:03:21Z</time>
      </trkpt>
      <trkpt lat="45.8564" lon="1.32295">
        <ele>275</ele>
        <time>2018-11-05T23:04:21Z</time>
      </trkpt>
      <trkpt lat="45.85563" lon="1.32225">
        <ele>282</ele>
        <time>2018-11-05T23:05:21Z</time>
      </trkpt>
      <trkpt lat="45.85511" lon="1.32193">
        <ele>286</ele>
        <time>2018-11-05T23:06:21Z</time>
      </trkpt>
      <trkpt lat="45.85498" lon="1.32195">
        <ele>287</ele>
        <time>2018-11-05T23:07:21Z</time>
      </trkpt>
      <trkpt lat="45.85446" lon="1.32212">
        <ele>291</ele>
        <time>2018-11-05T23:08:21Z</time>
      </trkpt>
      <trkpt lat="45.85226" lon="1.32326">
        <ele>295</ele>
        <time>2018-11-05T23:09:21Z</time>
      </trkpt>
      <trkpt lat="45.85202" lon="1.32331">
        <ele>295</ele>
        <time>2018-11-05T23:10:21Z</time>
      </trkpt>
      <trkpt lat="45.85166" lon="1.3233">
        <ele>295</ele>
        <time>2018-11-05T23:11:21Z</time>
      </trkpt>
      <trkpt lat="45.85109" lon="1.32319">
        <ele>295</ele>
        <time>2018-11-05T23:12:21Z</time>
      </trkpt>
      <trkpt lat="45.85109" lon="1.32319">
        <ele>295</ele>
        <time>2018-11-05T23:13:21Z</time>
      </trkpt>
      <trkpt lat="45.8504" lon="1.32307">
        <ele>294</ele>
        <time>2018-11-05T23:14:21Z</time>
      </trkpt>
      <trkpt lat="45.84991" lon="1.32279">
        <ele>294</ele>
        <time>2018-11-05T23:15:21Z</time>
      </trkpt>
      <trkpt lat="45.84961" lon="1.32248">
        <ele>294</ele>
        <time>2018-11-05T23:16:21Z</time>
      </trkpt>
      <trkpt lat="45.8493" lon="1.32196">
        <ele>297</ele>
        <time>2018-11-05T23:17:21Z</time>
      </trkpt>
      <trkpt lat="45.84909" lon="1.32128">
        <ele>300</ele>
        <time>2018-11-05T23:18:21Z</time>
      </trkpt>
      <trkpt lat="45.8488" lon="1.32007">
        <ele>302</ele>
        <time>2018-11-05T23:19:21Z</time>
      </trkpt>
      <trkpt lat="45.84868" lon="1.31975">
        <ele>301</ele>
        <time>2018-11-05T23:20:21Z</time>
      </trkpt>
      <trkpt lat="45.84857" lon="1.31955">
        <ele>300</ele>
        <time>2018-11-05T23:21:21Z</time>
      </trkpt>
      <trkpt lat="45.84794" lon="1.31896">
        <ele>301</ele>
        <time>2018-11-05T23:22:21Z</time>
      </trkpt>
      <trkpt lat="45.84737" lon="1.31829">
        <ele>299</ele>
        <time>2018-11-05T23:23:21Z</time>
      </trkpt>
      <trkpt lat="45.84607" lon="1.31701">
        <ele>297</ele>
        <time>2018-11-05T23:24:21Z</time>
      </trkpt>
      <trkpt lat="45.84585" lon="1.31685">
        <ele>297</ele>
        <time>2018-11-05T23:25:21Z</time>
      </trkpt>
      <trkpt lat="45.84564" lon="1.31678">
        <ele>296</ele>
        <time>2018-11-05T23:26:21Z</time>
      </trkpt>
      <trkpt lat="45.84429" lon="1.31689">
        <ele>299</ele>
        <time>2018-11-05T23:27:21Z</time>
      </trkpt>
      <trkpt lat="45.84338" lon="1.31701">
        <ele>297</ele>
        <time>2018-11-05T23:28:21Z</time>
      </trkpt>
      <trkpt lat="45.84303" lon="1.31702">
        <ele>296</ele>
        <time>2018-11-05T23:29:21Z</time>
      </trkpt>
      <trkpt lat="45.84273" lon="1.31708">
        <ele>295</ele>
        <time>2018-11-05T23:30:21Z</time>
      </trkpt>
      <trkpt lat="45.84161" lon="1.31605">
        <ele>292</ele>
        <time>2018-11-05T23:31:21Z</time>
      </trkpt>
      <trkpt lat="45.84147" lon="1.31583">
        <ele>293</ele>
        <time>2018-11-05T23:32:21Z</time>
      </trkpt>
      <trkpt lat="45.84139" lon="1.31483">
        <ele>297</ele>
        <time>2018-11-05T23:33:21Z</time>
      </trkpt>
      <trkpt lat="45.84137" lon="1.31462">
        <ele>298</ele>
        <time>2018-11-05T23:34:21Z</time>
      </trkpt>
      <trkpt lat="45.84136" lon="1.3131">
        <ele>300</ele>
        <time>2018-11-05T23:35:21Z</time>
      </trkpt>
      <trkpt lat="45.84135" lon="1.31294">
        <ele>300</ele>
        <time>2018-11-05T23:36:21Z</time>
      </trkpt>
      <trkpt lat="45.84141" lon="1.31265">
        <ele>300</ele>
        <time>2018-11-05T23:37:21Z</time>
      </trkpt>
      <trkpt lat="45.84144" lon="1.31259">
        <ele>300</ele>
        <time>2018-11-05T23:38:21Z</time>
      </trkpt>
      <trkpt lat="45.84153" lon="1.31253">
        <ele>299</ele>
        <time>2018-11-05T23:39:21Z</time>
      </trkpt>
      <trkpt lat="45.84168" lon="1.31233">
        <ele>299</ele>
        <time>2018-11-05T23:40:21Z</time>
      </trkpt>
      <trkpt lat="45.84184" lon="1.31197">
        <ele>298</ele>
        <time>2018-11-05T23:41:21Z</time>
      </trkpt>
      <trkpt lat="45.84191" lon="1.31173">
        <ele>298</ele>
        <time>2018-11-05T23:42:21Z</time>
      </trkpt>
      <trkpt lat="45.84195" lon="1.31116">
        <ele>296</ele>
        <time>2018-11-05T23:43:21Z</time>
      </trkpt>
      <trkpt lat="45.84192" lon="1.31053">
        <ele>293</ele>
        <time>2018-11-05T23:44:21Z</time>
      </trkpt>
      <trkpt lat="45.84192" lon="1.31053">
        <ele>293</ele>
        <time>2018-11-05T23:45:21Z</time>
      </trkpt>
      <trkpt lat="45.84177" lon="1.30761">
        <ele>286</ele>
        <time>2018-11-05T23:46:21Z</time>
      </trkpt>
      <trkpt lat="45.84171" lon="1.30732">
        <ele>286</ele>
        <time>2018-11-05T23:47:21Z</time>
      </trkpt>
      <trkpt lat="45.84134" lon="1.30636">
        <ele>281</ele>
        <time>2018-11-05T23:48:21Z</time>
      </trkpt>
      <trkpt lat="45.84062" lon="1.30495">
        <ele>277</ele>
        <time>2018-11-05T23:49:21Z</time>
      </trkpt>
      <trkpt lat="45.84023" lon="1.30435">
        <ele>276</ele>
        <time>2018-11-05T23:50:21Z</time>
      </trkpt>
      <trkpt lat="45.8401" lon="1.30424">
        <ele>276</ele>
        <time>2018-11-05T23:51:21Z</time>
      </trkpt>
      <trkpt lat="45.83988" lon="1.30359">
        <ele>275</ele>
        <time>2018-11-05T23:52:21Z</time>
      </trkpt>
      <trkpt lat="45.83988" lon="1.30359">
        <ele>275</ele>
        <time>2018-11-05T23:53:21Z</time>
      </trkpt>
      <trkpt lat="45.83984" lon="1.30348">
        <ele>274</ele>
        <time>2018-11-05T23:54:21Z</time>
      </trkpt>
      <trkpt lat="45.83964" lon="1.30371">
        <ele>275</ele>
        <time>2018-11-05T23:55:21Z</time>
      </trkpt>
      <trkpt lat="45.83954" lon="1.30394">
        <ele>275</ele>
        <time>2018-11-05T23:56:21Z</time>
      </trkpt>
      <trkpt lat="45.83859" lon="1.30659">
        <ele>283</ele>
        <time>2018-11-05T23:57:21Z</time>
      </trkpt>
      <trkpt lat="45.83845" lon="1.30692">
        <ele>285</ele>
        <time>2018-11-05T23:58:21Z</time>
      </trkpt>
      <trkpt lat="45.83825" lon="1.30703">
        <ele>285</ele>
        <time>2018-11-05T23:59:21Z</time>
      </trkpt>
      <trkpt lat="45.83799" lon="1.30702">
        <ele>286</ele>
        <time>2018-11-06T00:00:21Z</time>
      </trkpt>
    </trkseg>
  </trk>
</gpx>